[[{"header":{"parameterUnit":"m.s-1","parameterCategory":1,"la1":31.0,"la2":29.5877,"lo1":-88.7671,"lo2":-86.6584,"dy":0.0162,"dx":0.0185,"nx":115,"ny":88,"refTime":"2024-03-29T12:00:00:Z","depth":0,"parameterNumber":2,"parameterNumberName":"U-component_of_WINDS"},"data":[0.0,0.0,0.0,0.0,0.0,0.0,0.0,0.0,0.0,0.0,0.0,0.0,0.0,0.0,0.0,0.0,0.0,0.0,0.0,0.0,0.0,0.0,0.0,0.0,0.0,0.0,0.0,0.0,0.0,0.0,0.0,0.0,0.0,0.0,0.0,0.0,0.0,0.0,0.0,0.0,0.0,0.0,0.0,0.0,0.0,0.0,0.0,0.0,0.0,0.0,0.0,0.0,0.0,0.0,0.0,0.0,0.0,0.0,0.0,0.0,0.0,0.0,0.0,0.0,0.0,0.0,0.0,0.0,0.0,0.0,0.0,0.0,0.0,0.0,0.0,0.0,0.0,0.0,0.0,0.0,0.0,0.0,0.0,0.0,0.0,0.0,0.0,0.0,0.0,0.0,0.0,0.0,0.0,0.0,0.0,0.0,0.0,0.0,0.0,0.0,0.0,0.0,0.0,0.0,0.0,0.0,0.0,0.0,0.0,0.0,0.0,0.0,0.0,0.0,0.0,0.0,0.0,0.0,0.0,0.0,0.0,0.0,0.0,0.0,0.0,0.0,0.0,0.0,0.0,0.0,0.0,0.0,0.0,0.0,0.0,0.0,0.0,0.0,0.0,0.0,0.0,0.0,0.0,0.0,0.0,0.0,0.0,0.0,0.0,0.0,0.0,0.0,0.0,0.0,0.0,0.0,0.0,0.0,0.0,0.0,0.0,0.0,0.0,0.0,0.0,0.0,0.0,0.0,0.0,0.0,0.0,0.0,0.0,0.0,0.0,0.0,0.0,0.0,0.0,0.0,0.0,0.0,0.0,0.0,0.0,0.0,0.0,0.0,0.0,0.0,0.0,0.0,0.0,0.0,0.0,0.0,0.0,0.0,0.0,0.0,0.0,0.0,0.0,0.0,0.0,0.0,0.0,0.0,0.0,0.0,0.0,0.0,0.0,0.0,0.0,0.0,0.0,0.0,0.0,0.0,0.0,0.0,0.0,0.0,0.0,0.0,0.0,0.0,0.0,0.0,0.0,0.0,0.0,0.0,0.0,0.0,0.0,0.0,0.0,0.0,0.0,0.0,0.0,0.0,0.0,0.0,0.0,0.0,0.0,0.0,0.0,0.0,0.0,0.0,0.0,0.0,0.0,0.0,0.0,0.0,0.0,0.0,0.0,0.0,0.0,0.0,0.0,0.0,0.0,0.0,0.0,0.0,0.0,0.0,0.0,0.0,0.0,0.0,0.0,0.0,0.0,0.0,0.0,0.0,0.0,0.0,0.0,0.0,0.0,0.0,0.0,0.0,0.0,0.0,0.0,0.0,0.0,0.0,0.0,0.0,0.0,0.0,0.0,0.0,0.0,0.0,0.0,0.0,0.0,0.0,0.0,0.0,0.0,0.0,0.0,0.0,0.0,0.0,0.0,0.0,0.0,0.0,0.0,0.0,0.0,0.0,0.0,0.0,0.0,0.0,0.0,0.0,0.0,0.0,0.0,0.0,0.0,0.0,0.0,0.0,0.0,0.0,0.0,0.0,0.0,0.0,0.0,0.0,0.0,0.0,0.0,0.0,0.0,0.0,0.0,0.0,0.0,0.0,0.0,0.0,0.0,0.0,0.0,0.0,0.0,0.0,0.0,0.0,0.0,0.0,0.0,0.0,0.0,0.0,0.0,0.0,0.0,0.0,0.0,0.0,0.0,0.0,0.0,0.0,0.0,0.0,0.0,0.0,0.0,0.0,0.0,0.0,0.0,0.0,0.0,0.0,0.0,0.0,0.0,0.0,0.0,0.0,0.0,0.0,0.0,0.0,0.0,0.0,0.0,0.0,0.0,0.0,0.0,0.0,0.0,0.0,0.0,0.0,0.0,0.0,0.0,0.0,0.0,0.0,0.0,0.0,0.0,0.0,0.0,0.0,0.0,0.0,0.0,0.0,0.0,0.0,0.0,0.0,0.0,0.0,0.0,0.0,0.0,0.0,0.0,0.0,0.0,0.0,0.0,0.0,0.0,0.0,0.0,0.0,0.0,0.0,0.0,0.0,0.0,0.0,0.0,0.0,0.0,0.0,0.0,0.0,0.0,0.0,0.0,0.0,0.0,0.0,0.0,0.0,0.0,0.0,0.0,0.0,0.0,0.0,0.0,0.0,0.0,0.0,0.0,0.0,0.0,0.0,0.0,0.0,0.0,0.0,0.0,0.0,0.0,0.0,0.0,0.0,0.0,0.0,0.0,0.0,0.0,0.0,0.0,0.0,0.0,0.0,0.0,0.0,0.0,0.0,0.0,0.0,0.0,0.0,0.0,0.0,0.0,0.0,0.0,0.0,0.0,0.0,0.0,0.0,0.0,0.0,0.0,0.0,0.0,0.0,0.0,0.0,0.0,0.0,0.0,0.0,0.0,0.0,0.0,0.0,0.0,0.0,0.0,0.0,0.0,0.0,0.0,0.0,0.0,0.0,0.0,0.0,0.0,0.0,0.0,0.0,0.0,0.0,0.0,0.0,0.0,0.0,0.0,0.0,0.0,0.0,0.0,0.0,0.0,0.0,0.0,0.0,0.0,0.0,0.0,0.0,0.0,0.0,0.0,0.0,0.0,0.0,0.0,0.0,0.0,0.0,0.0,0.0,0.0,0.0,0.0,0.0,0.0,0.0,0.0,0.0,0.0,0.0,0.0,0.0,0.0,0.0,0.0,0.0,0.0,0.0,0.0,0.0,0.0,0.0,0.0,0.0,0.0,0.0,0.0,0.0,0.0,0.0,0.0,0.0,0.0,0.0,0.0,0.0,0.0,0.0,0.0,0.0,0.0,0.0,0.0,0.0,0.0,0.0,0.0,0.0,0.0,0.0,0.0,0.0,0.0,0.0,0.0,0.0,0.0,0.0,0.0,0.0,0.0,0.0,0.0,0.0,0.0,0.0,0.0,0.0,0.0,0.0,0.0,0.0,0.0,0.0,0.0,0.0,0.0,0.0,0.0,0.0,0.0,0.0,0.0,0.0,0.0,0.0,0.0,0.0,0.0,0.0,0.0,0.0,0.0,0.0,0.0,0.0,0.0,0.0,0.0,0.0,0.0,0.0,0.0,0.0,0.0,0.0,0.0,0.0,0.0,0.0,0.0,0.0,0.0,0.0,0.0,0.0,0.0,0.0,0.0,0.0,0.0,0.0,0.0,0.0,0.0,0.0,0.0,0.0,0.0,0.0,0.0,0.0,0.0,0.0,0.0,0.0,0.0,0.0,0.0,0.0,0.0,0.0,0.0,0.0,0.0,0.0,0.0,0.0,0.0,0.0,0.0,0.0,0.0,0.0,0.0,0.0,0.0,0.0,0.0,0.0,0.0,0.0,0.0,0.0,0.0,0.0,0.0,0.0,0.0,0.0,0.0,0.0,0.0,0.0,0.0,0.0,0.0,0.0,0.0,0.0,0.0,0.0,0.0,0.0,0.0,0.0,0.0,0.0,0.0,0.0,0.0,0.0,0.0,0.0,0.0,0.0,0.0,0.0,0.0,0.0,0.0,0.0,0.0,0.0,0.0,0.0,0.0,0.0,0.0,0.0,0.0,0.0,0.0,0.0,0.0,0.0,0.0,0.0,0.0,0.0,0.0,0.0,0.0,0.0,0.0,0.0,0.0,0.0,0.0,0.0,0.0,0.0,0.0,0.0,0.0,0.0,0.0,0.0,0.0,0.0,0.0,0.0,0.0,0.0,0.0,0.0,0.0,0.0,0.0,0.0,0.0,0.0,0.0,0.0,0.0,0.0,0.0,0.0,0.0,0.0,0.0,0.0,0.0,0.0,0.0,0.0,0.0,0.0,0.0,0.0,0.0,0.0,0.0,0.0,0.0,0.0,0.0,0.0,0.0,0.0,0.0,0.0,0.0,0.0,0.0,0.0,0.0,0.0,0.0,0.0,0.0,0.0,0.0,0.0,0.0,0.0,0.0,0.0,0.0,0.0,0.0,0.0,0.0,0.0,0.0,0.0,0.0,0.0,0.0,0.0,0.0,0.0,0.0,0.0,0.0,0.0,0.0,0.0,0.0,0.0,0.0,0.0,0.0,0.0,0.0,0.0,0.0,0.0,0.0,0.0,0.0,0.0,0.0,0.0,0.0,0.0,0.0,0.0,0.0,0.0,0.0,0.0,0.0,0.0,0.0,0.0,0.0,0.0,0.0,0.0,0.0,0.0,0.0,0.0,0.0,0.0,0.0,0.0,0.0,0.0,0.0,0.0,0.0,0.0,0.0,0.0,0.0,0.0,0.0,0.0,0.0,0.0,-5.3518,0.0,0.0,0.0,-5.3348,0.0,0.0,0.0,0.0,0.0,0.0,0.0,0.0,0.0,0.0,0.0,0.0,0.0,0.0,0.0,0.0,0.0,0.0,0.0,0.0,0.0,0.0,0.0,0.0,0.0,0.0,0.0,0.0,0.0,0.0,0.0,0.0,0.0,0.0,0.0,0.0,0.0,0.0,0.0,0.0,0.0,0.0,0.0,0.0,0.0,0.0,0.0,0.0,0.0,0.0,0.0,0.0,0.0,0.0,0.0,0.0,0.0,0.0,0.0,0.0,0.0,0.0,0.0,0.0,0.0,0.0,0.0,0.0,0.0,0.0,0.0,0.0,0.0,0.0,0.0,0.0,0.0,0.0,0.0,0.0,0.0,0.0,0.0,0.0,0.0,0.0,0.0,0.0,0.0,0.0,0.0,0.0,0.0,0.0,0.0,0.0,0.0,0.0,0.0,0.0,0.0,0.0,0.0,0.0,0.0,0.0,0.0,0.0,0.0,0.0,-5.3518,-5.3518,-5.3518,-5.3518,-5.3518,0.0,0.0,0.0,0.0,0.0,0.0,0.0,0.0,0.0,0.0,0.0,0.0,0.0,0.0,0.0,0.0,0.0,0.0,0.0,0.0,0.0,0.0,0.0,0.0,0.0,0.0,0.0,0.0,0.0,0.0,0.0,0.0,0.0,0.0,0.0,0.0,0.0,0.0,0.0,0.0,0.0,0.0,0.0,0.0,0.0,0.0,0.0,0.0,0.0,0.0,0.0,0.0,0.0,0.0,0.0,0.0,0.0,0.0,0.0,0.0,0.0,0.0,0.0,0.0,0.0,0.0,0.0,0.0,0.0,0.0,0.0,0.0,0.0,0.0,0.0,0.0,0.0,0.0,0.0,0.0,0.0,0.0,0.0,0.0,0.0,0.0,0.0,0.0,0.0,0.0,0.0,0.0,0.0,0.0,0.0,0.0,0.0,0.0,0.0,0.0,0.0,0.0,0.0,0.0,0.0,0.0,0.0,0.0,0.0,0.0,0.0,0.0,-5.3518,-5.3518,-5.3501,0.0,0.0,0.0,0.0,0.0,0.0,0.0,0.0,0.0,0.0,0.0,0.0,0.0,0.0,0.0,0.0,0.0,0.0,0.0,0.0,0.0,0.0,0.0,0.0,0.0,0.0,0.0,0.0,0.0,0.0,0.0,0.0,0.0,0.0,0.0,0.0,0.0,0.0,0.0,0.0,0.0,0.0,0.0,0.0,0.0,0.0,0.0,0.0,0.0,0.0,0.0,0.0,0.0,0.0,0.0,0.0,0.0,0.0,0.0,0.0,0.0,0.0,0.0,0.0,0.0,0.0,0.0,0.0,0.0,0.0,0.0,0.0,0.0,0.0,0.0,0.0,0.0,0.0,0.0,0.0,0.0,0.0,0.0,0.0,0.0,0.0,0.0,0.0,0.0,0.0,0.0,0.0,0.0,0.0,0.0,0.0,0.0,0.0,0.0,0.0,0.0,0.0,0.0,0.0,0.0,0.0,0.0,0.0,0.0,0.0,-5.3518,-5.3518,-5.3518,0.0,-5.3467,0.0,0.0,0.0,0.0,0.0,0.0,0.0,0.0,0.0,0.0,0.0,0.0,0.0,0.0,0.0,0.0,0.0,0.0,0.0,0.0,0.0,0.0,0.0,0.0,0.0,0.0,0.0,0.0,0.0,0.0,0.0,0.0,0.0,0.0,0.0,0.0,0.0,0.0,0.0,0.0,0.0,0.0,0.0,0.0,0.0,0.0,0.0,0.0,0.0,0.0,0.0,0.0,0.0,0.0,0.0,0.0,0.0,0.0,0.0,0.0,0.0,0.0,0.0,0.0,0.0,0.0,0.0,0.0,0.0,0.0,0.0,0.0,0.0,0.0,0.0,0.0,0.0,0.0,0.0,0.0,0.0,0.0,0.0,0.0,0.0,0.0,0.0,0.0,0.0,0.0,0.0,0.0,0.0,0.0,0.0,0.0,0.0,0.0,0.0,0.0,0.0,0.0,0.0,0.0,0.0,0.0,0.0,0.0,0.0,0.0,-5.3518,-5.3518,-5.3518,-5.3281,0.0,0.0,0.0,0.0,0.0,0.0,0.0,0.0,0.0,0.0,0.0,0.0,0.0,0.0,0.0,0.0,0.0,0.0,0.0,0.0,0.0,0.0,0.0,0.0,0.0,0.0,0.0,0.0,0.0,0.0,0.0,0.0,0.0,0.0,0.0,0.0,0.0,0.0,0.0,0.0,0.0,0.0,0.0,0.0,0.0,0.0,0.0,0.0,0.0,0.0,0.0,0.0,0.0,0.0,0.0,0.0,0.0,0.0,0.0,0.0,0.0,0.0,0.0,0.0,0.0,0.0,0.0,0.0,0.0,0.0,0.0,0.0,0.0,0.0,0.0,0.0,0.0,0.0,0.0,0.0,0.0,0.0,0.0,0.0,0.0,0.0,0.0,0.0,0.0,0.0,0.0,0.0,0.0,0.0,0.0,0.0,0.0,0.0,0.0,0.0,0.0,0.0,0.0,0.0,0.0,0.0,0.0,0.0,0.0,0.0,-5.3382,-5.3518,-5.3518,-5.3518,-5.3129,-5.2334,0.0,0.0,0.0,0.0,0.0,0.0,0.0,0.0,0.0,0.0,0.0,0.0,0.0,0.0,0.0,0.0,0.0,0.0,0.0,0.0,0.0,0.0,0.0,0.0,0.0,0.0,0.0,0.0,0.0,0.0,0.0,0.0,0.0,0.0,0.0,0.0,0.0,0.0,0.0,0.0,0.0,0.0,0.0,0.0,0.0,0.0,0.0,0.0,0.0,0.0,0.0,0.0,0.0,0.0,0.0,0.0,0.0,0.0,0.0,0.0,0.0,0.0,0.0,0.0,0.0,0.0,0.0,0.0,0.0,0.0,0.0,0.0,0.0,0.0,0.0,0.0,0.0,0.0,0.0,0.0,0.0,0.0,0.0,0.0,0.0,0.0,0.0,0.0,0.0,0.0,0.0,0.0,0.0,0.0,0.0,0.0,0.0,0.0,0.0,0.0,0.0,0.0,0.0,0.0,0.0,0.0,0.0,0.0,-5.2384,-5.3112,-5.3518,-5.3518,-5.3501,-5.3129,0.0,0.0,0.0,0.0,0.0,0.0,0.0,0.0,0.0,0.0,0.0,0.0,0.0,0.0,0.0,0.0,0.0,0.0,0.0,0.0,0.0,0.0,0.0,0.0,0.0,0.0,0.0,0.0,0.0,0.0,0.0,0.0,0.0,0.0,0.0,0.0,0.0,0.0,0.0,0.0,0.0,0.0,0.0,0.0,0.0,0.0,0.0,0.0,0.0,0.0,0.0,0.0,0.0,0.0,0.0,0.0,0.0,0.0,0.0,0.0,0.0,0.0,0.0,0.0,0.0,0.0,0.0,0.0,0.0,0.0,0.0,0.0,0.0,0.0,0.0,0.0,0.0,0.0,0.0,0.0,0.0,0.0,0.0,0.0,0.0,0.0,0.0,0.0,0.0,0.0,0.0,0.0,0.0,0.0,0.0,0.0,0.0,0.0,0.0,0.0,0.0,0.0,0.0,0.0,0.0,0.0,0.0,0.0,0.0,-5.2317,-5.3078,-5.3518,-5.3484,-5.301,-5.2367,0.0,0.0,0.0,0.0,0.0,0.0,0.0,0.0,0.0,0.0,0.0,0.0,0.0,0.0,0.0,0.0,0.0,0.0,0.0,0.0,0.0,0.0,0.0,0.0,0.0,0.0,0.0,0.0,0.0,0.0,0.0,0.0,0.0,0.0,0.0,0.0,0.0,0.0,0.0,0.0,0.0,0.0,0.0,0.0,0.0,0.0,0.0,0.0,0.0,0.0,0.0,0.0,0.0,0.0,0.0,0.0,0.0,0.0,0.0,0.0,0.0,0.0,0.0,0.0,0.0,0.0,0.0,0.0,0.0,0.0,0.0,0.0,0.0,0.0,0.0,0.0,0.0,0.0,0.0,0.0,0.0,0.0,0.0,0.0,0.0,0.0,0.0,0.0,0.0,0.0,0.0,0.0,0.0,0.0,0.0,0.0,0.0,0.0,0.0,0.0,0.0,0.0,0.0,0.0,0.0,0.0,0.0,0.0,0.0,-5.2655,0.0,-5.3518,-5.3484,-5.2723,-5.1961,0.0,0.0,0.0,0.0,0.0,0.0,0.0,0.0,0.0,0.0,0.0,0.0,0.0,0.0,0.0,0.0,0.0,0.0,0.0,0.0,0.0,0.0,0.0,0.0,0.0,0.0,0.0,0.0,0.0,0.0,0.0,0.0,0.0,0.0,0.0,0.0,0.0,0.0,0.0,0.0,0.0,0.0,0.0,0.0,0.0,0.0,0.0,0.0,0.0,0.0,0.0,0.0,0.0,0.0,0.0,0.0,0.0,0.0,0.0,0.0,0.0,0.0,0.0,0.0,0.0,0.0,0.0,0.0,0.0,0.0,0.0,0.0,0.0,0.0,0.0,0.0,0.0,0.0,0.0,0.0,0.0,0.0,0.0,0.0,0.0,0.0,0.0,0.0,0.0,0.0,0.0,0.0,0.0,0.0,0.0,0.0,0.0,0.0,0.0,0.0,0.0,0.0,0.0,0.0,0.0,0.0,0.0,0.0,-5.1961,-5.3433,-5.3518,-5.3568,-5.3501,-5.2773,-5.1978,0.0,0.0,0.0,0.0,0.0,0.0,0.0,0.0,0.0,0.0,0.0,0.0,0.0,0.0,0.0,0.0,0.0,0.0,0.0,0.0,0.0,0.0,0.0,0.0,0.0,0.0,0.0,0.0,0.0,0.0,0.0,0.0,0.0,0.0,0.0,0.0,0.0,0.0,0.0,0.0,0.0,0.0,0.0,0.0,0.0,0.0,0.0,0.0,0.0,0.0,0.0,0.0,0.0,0.0,0.0,0.0,0.0,0.0,0.0,0.0,0.0,0.0,0.0,0.0,0.0,0.0,0.0,0.0,0.0,0.0,0.0,0.0,0.0,0.0,0.0,0.0,0.0,0.0,0.0,0.0,0.0,0.0,0.0,0.0,0.0,0.0,0.0,0.0,0.0,0.0,0.0,0.0,0.0,0.0,0.0,0.0,0.0,0.0,0.0,0.0,0.0,0.0,0.0,0.0,0.0,0.0,0.0,0.0,0.0,-5.4194,-5.4262,-5.4245,-5.4245,-5.3518,-5.2536,0.0,0.0,0.0,0.0,0.0,0.0,0.0,0.0,0.0,0.0,0.0,0.0,0.0,0.0,0.0,0.0,0.0,0.0,0.0,0.0,0.0,0.0,0.0,0.0,0.0,0.0,0.0,0.0,0.0,0.0,0.0,0.0,0.0,0.0,0.0,0.0,0.0,0.0,0.0,0.0,0.0,0.0,0.0,0.0,0.0,0.0,0.0,0.0,0.0,0.0,0.0,0.0,0.0,0.0,0.0,0.0,0.0,0.0,0.0,0.0,0.0,0.0,0.0,0.0,0.0,0.0,0.0,0.0,0.0,0.0,0.0,0.0,0.0,0.0,0.0,0.0,0.0,0.0,0.0,0.0,0.0,0.0,0.0,0.0,0.0,0.0,0.0,0.0,0.0,0.0,0.0,0.0,0.0,0.0,0.0,0.0,0.0,0.0,0.0,0.0,0.0,0.0,0.0,0.0,0.0,0.0,0.0,0.0,0.0,-5.531,-5.5141,-5.5006,-5.5023,-5.4042,-5.2909,-5.1674,0.0,0.0,0.0,0.0,0.0,0.0,0.0,0.0,0.0,0.0,0.0,0.0,0.0,0.0,0.0,0.0,0.0,0.0,0.0,0.0,0.0,0.0,0.0,0.0,0.0,0.0,0.0,0.0,0.0,0.0,0.0,0.0,0.0,0.0,0.0,0.0,0.0,0.0,0.0,0.0,0.0,0.0,0.0,0.0,0.0,0.0,0.0,0.0,0.0,0.0,0.0,0.0,0.0,0.0,0.0,0.0,0.0,0.0,0.0,0.0,0.0,0.0,0.0,0.0,0.0,0.0,0.0,0.0,0.0,0.0,0.0,0.0,0.0,0.0,0.0,0.0,0.0,0.0,0.0,0.0,0.0,0.0,0.0,0.0,0.0,0.0,0.0,0.0,0.0,0.0,0.0,0.0,0.0,0.0,0.0,0.0,0.0,0.0,0.0,0.0,0.0,0.0,0.0,0.0,0.0,0.0,0.0,0.0,-5.6816,-5.6224,-5.5902,-5.5835,-5.4482,-5.3281,0.0,0.0,0.0,0.0,0.0,0.0,0.0,0.0,0.0,0.0,0.0,0.0,0.0,0.0,0.0,0.0,0.0,0.0,0.0,0.0,0.0,0.0,0.0,0.0,0.0,0.0,0.0,0.0,0.0,0.0,0.0,0.0,0.0,0.0,0.0,0.0,0.0,0.0,0.0,0.0,0.0,0.0,0.0,0.0,0.0,0.0,0.0,0.0,0.0,0.0,0.0,0.0,0.0,0.0,0.0,0.0,0.0,0.0,0.0,0.0,0.0,0.0,0.0,0.0,0.0,0.0,0.0,0.0,0.0,0.0,0.0,0.0,0.0,0.0,0.0,0.0,0.0,0.0,0.0,0.0,0.0,0.0,0.0,0.0,0.0,0.0,0.0,0.0,0.0,0.0,0.0,0.0,0.0,0.0,0.0,0.0,0.0,0.0,0.0,0.0,0.0,0.0,0.0,0.0,0.0,0.0,0.0,0.0,0.0,-5.7492,-5.7966,-5.7881,-5.7323,-5.6427,-5.5074,0.0,0.0,0.0,0.0,0.0,0.0,0.0,0.0,0.0,0.0,0.0,0.0,0.0,0.0,0.0,0.0,0.0,0.0,0.0,0.0,0.0,0.0,0.0,0.0,0.0,0.0,0.0,0.0,0.0,0.0,0.0,0.0,0.0,0.0,0.0,0.0,0.0,0.0,0.0,0.0,0.0,0.0,0.0,0.0,0.0,0.0,0.0,0.0,0.0,0.0,0.0,0.0,0.0,0.0,0.0,0.0,0.0,0.0,0.0,0.0,0.0,0.0,0.0,0.0,0.0,0.0,0.0,0.0,0.0,0.0,0.0,0.0,0.0,0.0,0.0,0.0,0.0,0.0,0.0,0.0,0.0,0.0,0.0,0.0,0.0,0.0,0.0,0.0,0.0,0.0,0.0,0.0,0.0,0.0,0.0,0.0,0.0,0.0,0.0,0.0,0.0,0.0,0.0,0.0,0.0,0.0,0.0,0.0,-5.6139,-5.8321,-5.9404,-5.9776,-5.9336,-5.7966,-5.6359,0.0,0.0,0.0,0.0,0.0,0.0,0.0,0.0,0.0,0.0,0.0,0.0,0.0,0.0,0.0,0.0,0.0,0.0,0.0,0.0,0.0,0.0,0.0,0.0,0.0,0.0,0.0,0.0,0.0,0.0,0.0,0.0,0.0,0.0,0.0,0.0,0.0,0.0,0.0,0.0,0.0,0.0,0.0,0.0,0.0,0.0,0.0,0.0,0.0,0.0,0.0,0.0,0.0,0.0,0.0,0.0,0.0,0.0,0.0,0.0,0.0,0.0,0.0,0.0,0.0,0.0,0.0,0.0,0.0,0.0,0.0,0.0,0.0,0.0,0.0,0.0,0.0,0.0,0.0,0.0,0.0,0.0,0.0,0.0,0.0,0.0,0.0,0.0,0.0,0.0,0.0,0.0,0.0,0.0,0.0,0.0,0.0,0.0,0.0,0.0,0.0,0.0,0.0,0.0,0.0,0.0,0.0,0.0,-5.6884,-5.9099,-6.0554,-6.1332,-6.1332,-5.9218,-5.7323,0.0,0.0,0.0,0.0,0.0,0.0,0.0,0.0,0.0,0.0,0.0,0.0,0.0,0.0,0.0,0.0,0.0,0.0,0.0,0.0,0.0,0.0,0.0,0.0,0.0,0.0,0.0,0.0,0.0,0.0,0.0,0.0,0.0,0.0,0.0,0.0,0.0,0.0,0.0,0.0,0.0,0.0,0.0,0.0,0.0,0.0,0.0,0.0,0.0,0.0,0.0,0.0,0.0,0.0,0.0,0.0,0.0,0.0,0.0,0.0,0.0,0.0,0.0,0.0,0.0,0.0,0.0,0.0,0.0,0.0,0.0,0.0,0.0,0.0,0.0,0.0,0.0,0.0,0.0,0.0,0.0,0.0,0.0,0.0,0.0,0.0,0.0,0.0,0.0,0.0,0.0,0.0,0.0,0.0,0.0,0.0,0.0,0.0,0.0,0.0,0.0,0.0,0.0,0.0,0.0,0.0,0.0,0.0,-5.7645,-5.981,-6.0808,-6.1569,-6.2144,-5.9962,-5.8084,0.0,0.0,0.0,0.0,0.0,0.0,0.0,0.0,0.0,0.0,0.0,0.0,0.0,0.0,0.0,0.0,0.0,0.0,0.0,0.0,0.0,0.0,0.0,0.0,0.0,0.0,0.0,0.0,0.0,0.0,0.0,0.0,0.0,0.0,0.0,0.0,0.0,0.0,0.0,0.0,0.0,0.0,0.0,0.0,0.0,0.0,0.0,0.0,-5.5116,0.0,0.0,0.0,0.0,0.0,0.0,0.0,0.0,0.0,0.0,0.0,0.0,0.0,0.0,0.0,0.0,0.0,0.0,0.0,0.0,0.0,0.0,0.0,0.0,0.0,0.0,0.0,0.0,0.0,0.0,0.0,0.0,0.0,0.0,0.0,0.0,0.0,0.0,0.0,0.0,0.0,0.0,0.0,0.0,0.0,0.0,0.0,0.0,0.0,0.0,0.0,0.0,0.0,0.0,0.0,0.0,0.0,0.0,0.0,-5.8592,-6.008,-6.1214,-6.1992,-6.2296,-6.052,-5.8829,0.0,0.0,0.0,0.0,0.0,0.0,0.0,0.0,0.0,0.0,0.0,0.0,0.0,0.0,0.0,0.0,0.0,0.0,0.0,0.0,0.0,0.0,0.0,0.0,0.0,0.0,0.0,0.0,0.0,0.0,0.0,0.0,0.0,0.0,0.0,0.0,0.0,0.0,0.0,0.0,0.0,0.0,0.0,0.0,0.0,0.0,0.0,0.0,0.0,0.0,0.0,0.0,0.0,0.0,0.0,0.0,0.0,0.0,0.0,0.0,0.0,0.0,0.0,0.0,0.0,0.0,0.0,0.0,0.0,0.0,0.0,0.0,0.0,0.0,0.0,0.0,0.0,0.0,0.0,0.0,0.0,0.0,0.0,0.0,0.0,0.0,0.0,0.0,0.0,0.0,0.0,0.0,0.0,0.0,0.0,0.0,0.0,0.0,0.0,0.0,0.0,0.0,0.0,0.0,0.0,0.0,0.0,-5.7256,-5.9438,-6.03,-6.167,-6.2398,-6.2364,-6.0892,-5.9404,-5.7915,0.0,0.0,0.0,0.0,0.0,0.0,0.0,0.0,0.0,0.0,0.0,0.0,0.0,0.0,0.0,0.0,0.0,0.0,0.0,0.0,0.0,0.0,0.0,0.0,0.0,0.0,0.0,0.0,0.0,0.0,0.0,0.0,0.0,0.0,0.0,0.0,0.0,0.0,-5.4651,-5.5616,0.0,0.0,0.0,0.0,0.0,0.0,0.0,0.0,-5.8435,0.0,0.0,0.0,0.0,0.0,0.0,0.0,0.0,0.0,0.0,0.0,0.0,0.0,0.0,0.0,0.0,0.0,0.0,0.0,0.0,0.0,0.0,0.0,0.0,0.0,0.0,0.0,0.0,0.0,0.0,0.0,0.0,0.0,0.0,0.0,0.0,0.0,0.0,0.0,0.0,0.0,0.0,0.0,0.0,0.0,0.0,0.0,0.0,0.0,0.0,0.0,0.0,0.0,0.0,0.0,0.0,-5.5309,-5.778,-5.9691,-6.1078,-6.1941,-6.2398,-6.2364,-6.0909,-5.9404,-5.7865,0.0,0.0,0.0,0.0,0.0,0.0,0.0,0.0,0.0,0.0,0.0,0.0,0.0,0.0,0.0,0.0,0.0,0.0,0.0,0.0,0.0,0.0,0.0,0.0,0.0,0.0,0.0,0.0,0.0,0.0,0.0,0.0,0.0,0.0,0.0,0.0,0.0,0.0,0.0,-5.732,-5.7902,0.0,0.0,0.0,0.0,0.0,0.0,0.0,0.0,-5.934,0.0,0.0,0.0,0.0,0.0,0.0,0.0,0.0,0.0,0.0,0.0,0.0,0.0,0.0,0.0,0.0,0.0,0.0,0.0,0.0,0.0,0.0,0.0,0.0,0.0,0.0,0.0,0.0,0.0,0.0,0.0,0.0,0.0,0.0,0.0,0.0,0.0,0.0,0.0,0.0,0.0,0.0,0.0,0.0,0.0,0.0,0.0,0.0,0.0,0.0,0.0,0.0,0.0,0.0,0.0,-5.575,-5.8271,-6.0148,-6.1264,-6.2009,-6.2212,-6.1823,-6.0706,-5.9235,0.0,0.0,0.0,0.0,0.0,0.0,0.0,0.0,0.0,0.0,0.0,0.0,0.0,0.0,0.0,0.0,0.0,0.0,0.0,0.0,0.0,0.0,0.0,0.0,0.0,0.0,0.0,0.0,0.0,0.0,0.0,0.0,0.0,0.0,0.0,0.0,0.0,0.0,0.0,0.0,-5.8159,-5.919,-5.9834,0.0,0.0,0.0,0.0,0.0,0.0,-6.181,-6.1463,0.0,0.0,0.0,0.0,0.0,0.0,0.0,0.0,0.0,0.0,0.0,0.0,0.0,0.0,0.0,0.0,0.0,0.0,0.0,0.0,0.0,0.0,0.0,0.0,0.0,0.0,0.0,0.0,0.0,0.0,0.0,0.0,0.0,0.0,0.0,0.0,0.0,0.0,0.0,0.0,0.0,0.0,0.0,0.0,0.0,0.0,0.0,0.0,0.0,0.0,0.0,0.0,0.0,0.0,0.0,-5.6173,-5.8744,-6.0554,-6.1484,-6.2093,-6.2042,-6.1315,-6.052,-5.8998,0.0,0.0,0.0,0.0,0.0,0.0,0.0,0.0,0.0,0.0,0.0,0.0,0.0,0.0,0.0,0.0,0.0,0.0,0.0,0.0,0.0,0.0,0.0,0.0,0.0,0.0,0.0,0.0,0.0,0.0,0.0,0.0,0.0,0.0,0.0,0.0,0.0,0.0,0.0,0.0,0.0,-6.0259,-6.1285,-6.0583,0.0,0.0,0.0,0.0,-6.3406,-6.3782,0.0,0.0,0.0,0.0,0.0,0.0,0.0,0.0,0.0,0.0,0.0,0.0,0.0,0.0,0.0,0.0,0.0,0.0,0.0,0.0,0.0,0.0,0.0,0.0,0.0,0.0,0.0,0.0,0.0,0.0,0.0,0.0,0.0,0.0,0.0,0.0,0.0,0.0,0.0,0.0,0.0,0.0,0.0,0.0,0.0,0.0,0.0,0.0,0.0,0.0,0.0,0.0,0.0,0.0,0.0,0.0,-5.7577,-5.9268,-6.0791,-6.2178,-6.2347,-6.2059,-6.1315,-6.0537,-5.8761,0.0,0.0,0.0,0.0,0.0,0.0,0.0,0.0,0.0,0.0,0.0,0.0,0.0,0.0,0.0,0.0,0.0,0.0,0.0,0.0,0.0,0.0,0.0,0.0,0.0,0.0,0.0,0.0,0.0,0.0,0.0,0.0,0.0,0.0,0.0,0.0,0.0,0.0,0.0,0.0,0.0,-6.1373,-6.2823,-6.2892,-6.2766,0.0,0.0,-6.3751,-6.3763,-6.393,0.0,0.0,0.0,0.0,0.0,0.0,0.0,0.0,0.0,0.0,0.0,0.0,0.0,0.0,0.0,0.0,0.0,0.0,0.0,0.0,0.0,0.0,0.0,0.0,0.0,0.0,0.0,0.0,0.0,0.0,0.0,0.0,0.0,0.0,0.0,0.0,0.0,0.0,0.0,0.0,0.0,0.0,0.0,0.0,0.0,0.0,0.0,0.0,0.0,0.0,0.0,0.0,0.0,0.0,0.0,-5.4955,-5.7814,-5.9336,-6.0842,-6.2313,-6.2398,-6.2042,-6.1315,-6.052,-5.8913,0.0,0.0,0.0,0.0,0.0,0.0,0.0,0.0,0.0,0.0,0.0,0.0,0.0,0.0,0.0,0.0,0.0,0.0,0.0,0.0,0.0,0.0,0.0,0.0,0.0,0.0,0.0,0.0,0.0,0.0,0.0,0.0,0.0,0.0,0.0,0.0,0.0,0.0,0.0,0.0,0.0,0.0,-6.3066,-6.3565,0.0,0.0,0.0,-6.4765,-6.5002,0.0,0.0,0.0,0.0,0.0,0.0,0.0,0.0,0.0,0.0,0.0,0.0,0.0,0.0,0.0,0.0,0.0,0.0,0.0,0.0,0.0,0.0,0.0,0.0,0.0,0.0,0.0,0.0,0.0,0.0,0.0,0.0,0.0,0.0,0.0,0.0,0.0,0.0,0.0,0.0,0.0,0.0,0.0,0.0,0.0,0.0,0.0,0.0,0.0,0.0,0.0,0.0,0.0,0.0,0.0,0.0,0.0,-5.7848,-5.9353,-6.0842,-6.233,-6.2398,-6.2042,-6.1315,-6.052,0.0,0.0,0.0,0.0,0.0,0.0,0.0,0.0,0.0,0.0,0.0,0.0,0.0,0.0,0.0,0.0,0.0,0.0,0.0,0.0,0.0,0.0,0.0,0.0,0.0,0.0,0.0,-5.0828,0.0,0.0,0.0,0.0,0.0,0.0,0.0,0.0,0.0,0.0,0.0,0.0,0.0,0.0,-6.15,-6.327,-6.4091,-6.482,0.0,0.0,-6.5646,-6.6087,-6.6229,-6.5605,0.0,0.0,0.0,0.0,0.0,0.0,0.0,0.0,0.0,0.0,0.0,0.0,0.0,0.0,0.0,0.0,0.0,0.0,0.0,0.0,0.0,0.0,0.0,0.0,0.0,0.0,0.0,0.0,0.0,0.0,0.0,0.0,0.0,0.0,0.0,0.0,0.0,0.0,0.0,0.0,0.0,0.0,0.0,0.0,0.0,0.0,0.0,0.0,0.0,0.0,0.0,0.0,0.0,0.0,-5.4955,-5.7814,-5.9336,-6.0842,-6.233,-6.2398,-6.2042,-6.1332,-6.052,-5.8761,0.0,0.0,0.0,0.0,0.0,0.0,0.0,0.0,0.0,0.0,0.0,0.0,0.0,0.0,0.0,0.0,0.0,0.0,0.0,0.0,0.0,0.0,0.0,0.0,0.0,0.0,0.0,0.0,0.0,0.0,0.0,0.0,0.0,0.0,0.0,0.0,0.0,0.0,0.0,0.0,0.0,-6.2331,-6.3859,-6.4995,-6.5859,0.0,-6.6584,-6.6643,-6.6482,-6.6005,-6.5217,-6.3896,0.0,0.0,0.0,0.0,0.0,0.0,0.0,0.0,0.0,0.0,0.0,0.0,0.0,0.0,0.0,0.0,0.0,0.0,0.0,0.0,0.0,0.0,0.0,0.0,0.0,0.0,0.0,0.0,0.0,0.0,0.0,0.0,0.0,0.0,0.0,0.0,0.0,0.0,0.0,0.0,0.0,0.0,0.0,0.0,0.0,0.0,0.0,0.0,0.0,0.0,0.0,0.0,0.0,-5.4955,-5.7865,-5.9336,-6.0842,-6.2313,-6.2398,-6.2262,-6.1992,-6.1231,-5.9877,0.0,0.0,0.0,0.0,0.0,0.0,0.0,0.0,0.0,0.0,0.0,0.0,0.0,0.0,0.0,0.0,0.0,0.0,0.0,0.0,0.0,0.0,0.0,0.0,0.0,0.0,0.0,0.0,-5.5936,-5.6308,-5.6156,0.0,0.0,0.0,0.0,0.0,0.0,0.0,0.0,0.0,0.0,-6.2026,-6.3836,-6.5141,0.0,0.0,-6.6885,-6.703,-6.6936,-6.6395,-6.5585,-6.4447,-6.2599,0.0,0.0,0.0,0.0,0.0,0.0,0.0,0.0,0.0,0.0,0.0,0.0,0.0,0.0,0.0,0.0,0.0,0.0,0.0,0.0,0.0,0.0,0.0,0.0,0.0,0.0,0.0,0.0,0.0,0.0,0.0,0.0,0.0,0.0,0.0,0.0,0.0,0.0,0.0,0.0,0.0,0.0,0.0,0.0,0.0,0.0,0.0,0.0,0.0,0.0,0.0,0.0,-5.4955,-5.7865,-5.9336,-6.0842,-6.2364,-6.2398,-6.2398,-6.2381,-6.1687,-6.0689,0.0,0.0,0.0,0.0,0.0,0.0,0.0,0.0,0.0,0.0,0.0,0.0,0.0,0.0,0.0,0.0,0.0,0.0,0.0,0.0,0.0,0.0,0.0,0.0,0.0,0.0,0.0,0.0,-5.663,-5.6427,-5.548,0.0,0.0,0.0,0.0,0.0,0.0,0.0,0.0,0.0,0.0,-6.2531,-6.4113,-6.5377,-6.633,-6.6845,-6.7087,-6.7192,-6.7248,-6.6701,-6.5943,-6.5095,0.0,0.0,0.0,0.0,0.0,0.0,0.0,0.0,0.0,0.0,0.0,0.0,0.0,0.0,0.0,0.0,0.0,0.0,0.0,0.0,0.0,0.0,0.0,0.0,0.0,0.0,0.0,-4.6836,0.0,0.0,-4.802,0.0,0.0,0.0,0.0,0.0,0.0,0.0,0.0,0.0,0.0,0.0,0.0,0.0,0.0,0.0,0.0,0.0,0.0,0.0,0.0,0.0,0.0,-5.4938,-5.7848,-5.9353,-6.0858,-6.2347,-6.2398,-6.2398,-6.2381,-6.1687,-6.0926,-6.0063,0.0,0.0,0.0,0.0,0.0,0.0,0.0,0.0,0.0,0.0,0.0,0.0,0.0,0.0,0.0,0.0,0.0,0.0,0.0,0.0,0.0,0.0,0.0,0.0,0.0,0.0,-5.7562,-5.7205,-5.619,0.0,0.0,0.0,0.0,0.0,0.0,0.0,0.0,0.0,-5.9429,-6.2152,-6.4202,-6.4795,-6.5814,-6.6661,-6.7107,-6.721,-6.7248,-6.7387,-6.6802,-6.618,0.0,0.0,0.0,0.0,0.0,0.0,0.0,0.0,0.0,0.0,0.0,0.0,0.0,0.0,0.0,0.0,0.0,0.0,0.0,0.0,0.0,0.0,0.0,0.0,0.0,0.0,0.0,-4.8984,-4.9052,0.0,0.0,0.0,0.0,0.0,0.0,0.0,0.0,0.0,0.0,0.0,-5.6393,-5.6427,0.0,0.0,0.0,0.0,0.0,0.0,0.0,0.0,0.0,0.0,0.0,0.0,-5.4955,-5.7797,-5.9353,-6.0842,-6.233,-6.2398,-6.2398,-6.2398,-6.2144,-6.1511,-6.032,0.0,0.0,0.0,0.0,0.0,0.0,0.0,0.0,0.0,0.0,0.0,0.0,0.0,0.0,0.0,0.0,0.0,0.0,0.0,0.0,0.0,0.0,0.0,0.0,0.0,-5.6386,0.0,0.0,0.0,0.0,0.0,0.0,0.0,0.0,0.0,0.0,-5.7269,-5.9522,-6.1243,-6.2969,-6.4497,-6.5594,-6.6301,-6.6874,0.0,0.0,0.0,0.0,0.0,0.0,0.0,0.0,0.0,0.0,0.0,0.0,0.0,-6.313,-6.2459,-6.1515,-5.9807,-5.9031,-6.0742,0.0,0.0,0.0,0.0,0.0,0.0,0.0,0.0,0.0,0.0,0.0,0.0,0.0,0.0,-5.1268,-5.1302,-5.1488,0.0,0.0,0.0,0.0,0.0,0.0,0.0,0.0,-5.6511,-5.7509,-5.8643,-5.866,-5.8034,-5.69,-5.6867,-5.5446,0.0,0.0,0.0,0.0,0.0,0.0,0.0,0.0,-5.5598,-5.822,-5.9759,-6.1129,-6.233,-6.2398,-6.2398,-6.2398,-6.2459,-6.1982,-6.0915,-5.9644,-5.8152,0.0,0.0,0.0,0.0,0.0,0.0,0.0,0.0,0.0,0.0,0.0,0.0,0.0,0.0,0.0,0.0,0.0,0.0,0.0,0.0,0.0,0.0,0.0,-5.7536,0.0,0.0,0.0,0.0,0.0,0.0,0.0,0.0,0.0,-5.7235,-5.9358,-6.1502,-6.2916,-6.4149,-6.5269,-6.6301,0.0,0.0,0.0,0.0,0.0,0.0,0.0,-6.709,-6.762,-6.6743,-6.5903,-6.5628,-6.5475,-6.5385,-6.5404,0.0,0.0,-6.3617,-6.2273,-6.182,-6.3142,-6.4877,-6.5598,-6.3829,-6.3466,-6.363,0.0,0.0,0.0,0.0,-5.1403,0.0,0.0,0.0,-5.3213,-5.3551,0.0,-5.2773,0.0,0.0,0.0,0.0,-5.3636,-5.5124,0.0,0.0,-5.871,-5.9471,-6.0148,-6.0182,-5.9776,-5.9116,-5.9066,-5.866,-5.7763,-5.5074,0.0,0.0,0.0,0.0,0.0,0.0,-5.6833,-5.8964,-6.0486,-6.1653,-6.2364,-6.2398,-6.2398,-6.242,-6.2632,-6.2451,-6.1872,-6.1542,-6.0428,-5.8446,-5.7025,0.0,0.0,0.0,0.0,0.0,0.0,0.0,0.0,0.0,0.0,0.0,0.0,0.0,0.0,0.0,0.0,0.0,0.0,0.0,0.0,-5.9678,0.0,0.0,0.0,0.0,0.0,0.0,0.0,0.0,0.0,-6.0503,-6.0159,-6.239,-6.4191,-6.4436,0.0,0.0,0.0,0.0,-6.7285,-6.7488,-6.7515,-6.7552,-6.7687,-6.7669,-6.7669,-6.7696,0.0,0.0,-6.6659,-6.6531,-6.6549,-6.6549,-6.7118,-6.7093,-6.5213,-6.4858,-6.4903,-6.5164,-6.6486,-6.7043,-6.5778,-6.5349,-6.5349,-5.5124,0.0,0.0,0.0,0.0,-5.3839,-5.4245,-5.4752,-5.4972,-5.5091,-5.5039,-5.4802,0.0,0.0,0.0,0.0,0.0,0.0,-5.8575,-5.9488,-6.0283,-6.1044,-6.1738,-6.1721,-6.1349,-6.0672,-6.0639,-6.025,-5.9455,-5.8626,-5.7053,-5.4769,0.0,0.0,0.0,0.0,-5.7323,-5.8981,-6.052,-6.1653,-6.2398,-6.2398,-6.2476,-6.2593,-6.3059,-6.3314,-6.3222,-6.3119,-6.2683,-6.169,-5.9787,0.0,0.0,0.0,0.0,0.0,0.0,0.0,0.0,0.0,0.0,0.0,0.0,0.0,0.0,0.0,0.0,0.0,0.0,0.0,-6.152,-6.1718,-6.0564,0.0,0.0,0.0,0.0,0.0,0.0,0.0,0.0,0.0,-6.4746,-6.4666,-6.4787,0.0,0.0,-6.6643,-6.7011,-6.7285,-6.747,-6.7624,-6.7633,0.0,-6.7687,-6.7669,-6.7669,-6.7669,-6.7669,-6.7622,-6.7393,-6.7383,-6.7357,-6.7338,-6.754,-6.7477,-6.7038,-6.6864,-6.6891,-6.6973,-6.7375,-6.7567,-6.7118,-6.7008,-6.7008,-5.6714,-5.5818,-5.4803,-5.4634,-5.5057,-5.5344,-5.5733,-5.6173,-5.6461,-5.6579,-5.6562,-5.6275,-5.5886,-5.548,-5.5767,0.0,0.0,0.0,-6.0148,-6.0622,-6.1383,-6.1958,-6.2381,-6.2398,-6.2161,-6.1738,-6.1738,-6.1467,-6.0994,-6.0723,-5.9691,-5.7949,0.0,-5.6342,-5.6376,-5.7526,-5.871,-5.9911,-6.1129,-6.1941,-6.2364,-6.2476,-6.2615,-6.2808,-6.338,-6.3823,-6.4147,-6.4333,-6.4312,-6.3903,-6.2332,-6.0658,0.0,0.0,0.0,0.0,0.0,0.0,0.0,0.0,0.0,0.0,0.0,-5.3122,-5.4628,0.0,0.0,0.0,-6.1125,-6.2743,-6.3422,-6.3102,0.0,0.0,0.0,0.0,0.0,0.0,0.0,-6.0478,-6.254,-6.4765,-6.6892,-6.63,-6.5845,-6.6434,-6.6732,-6.7011,-6.7285,0.0,-6.7606,-6.7687,-6.7669,-6.7669,-6.7669,-6.7669,-6.7669,-6.7669,-6.7669,-6.7669,-6.7669,-6.7669,-6.7669,-6.7669,-6.7669,-6.7669,-6.7669,-6.7669,-6.7669,-6.7669,-6.7669,-6.7669,-6.7669,-6.7669,-6.7669,-5.7881,-5.7763,-5.6444,-5.585,-5.5953,-5.6613,-5.6884,-5.6934,-5.7594,-5.7881,-5.7831,-5.7188,-5.6884,-5.6934,-5.7712,0.0,-5.9167,-6.0689,-6.1366,-6.1417,-6.2093,-6.2398,-6.2398,-6.2398,-6.2398,-6.2398,-6.2398,-6.2398,-6.2347,-6.1704,-6.14,-6.1349,-5.9911,-5.915,-5.9066,-5.9674,-6.0419,-6.1197,-6.1924,-6.2313,-6.2398,-6.2615,-6.2825,-6.3059,-6.3604,-6.4129,-6.4668,-6.5204,-6.5381,-6.5071,-6.4545,-6.3197,-6.0874,0.0,0.0,0.0,0.0,0.0,0.0,0.0,0.0,0.0,0.0,0.0,0.0,0.0,0.0,-6.1074,-6.4175,0.0,-6.4831,-6.4057,0.0,0.0,0.0,-6.091,-6.0847,-6.2185,-6.2927,-6.2395,0.0,0.0,-6.7268,-6.7322,-6.7182,-6.7087,-6.7303,-6.7515,-6.7515,-6.7606,-6.7669,-6.7669,-6.7669,-6.7669,-6.7669,-6.7669,-6.7669,-6.7669,-6.7669,-6.7669,-6.7669,-6.7669,-6.7669,-6.7669,-6.7669,-6.7669,-6.7669,-6.7669,-6.7669,-6.7669,-6.7669,-6.7669,-6.7669,-6.7669,-6.7669,-5.7881,-5.7848,-5.7509,-5.7374,-5.7374,-5.756,-5.7628,-5.7645,-5.7797,-5.7881,-5.7865,-5.7712,-5.7628,-5.7695,-5.8981,-5.9674,-5.9911,-6.1434,-6.2127,-6.2144,-6.2313,-6.2398,-6.2398,-6.2398,-6.2398,-6.2398,-6.2398,-6.2398,-6.2381,-6.2212,-6.2127,-6.2076,-6.1197,-6.0182,-5.9066,-5.9147,-5.9641,-6.0368,-6.1163,-6.1823,-6.2403,-6.2731,-6.308,-6.3383,-6.4218,-6.4593,-6.4554,-6.5146,-6.5312,-6.4883,-6.4748,-6.3939,-6.2258,-6.023,0.0,0.0,0.0,0.0,0.0,0.0,0.0,0.0,0.0,-5.6189,-5.8572,0.0,-6.1539,0.0,-6.5118,-6.6296,-6.6086,-6.5778,0.0,0.0,-6.351,-6.3584,-6.3038,-6.3802,-6.4622,-6.5231,-6.5815,-6.6528,-6.7496,-6.7588,-6.7561,-6.7552,-6.7497,-6.7543,-6.7633,-6.7687,-6.7669,-6.7669,-6.7669,-6.7669,-6.7669,-6.7669,-6.7669,-6.7669,-6.7669,-6.7669,-6.7669,-6.7669,-6.7669,-6.7669,-6.7669,-6.7669,-6.7669,-6.7669,-6.7669,-6.7669,-6.7669,-6.7669,-6.7669,-6.7669,-6.7669,-5.7881,-5.7881,-5.7881,-5.7881,-5.7881,-5.7881,-5.7881,-5.7881,-5.7881,-5.7881,-5.7881,-5.7881,-5.8068,-5.844,-5.9252,-5.981,-6.0182,-6.1349,-6.1907,-6.1924,-6.2245,-6.2398,-6.2398,-6.2398,-6.2398,-6.2398,-6.2398,-6.2398,-6.2398,-6.2398,-6.2398,-6.2364,-6.167,-6.0689,-5.9556,-5.9488,-5.9708,-6.0097,-6.0875,-6.1653,-6.2386,-6.2808,-6.3001,-6.3031,-6.3869,-6.4276,-6.4024,-6.4662,-6.4954,-6.4813,-6.4858,-6.4398,-6.3339,-6.1576,-5.9279,0.0,0.0,0.0,0.0,0.0,0.0,0.0,0.0,0.0,0.0,0.0,-6.3858,-6.5388,-6.6449,-6.6898,-6.6531,-6.6441,-6.5893,-6.4665,-6.5136,-6.5402,-6.5,-6.564,-6.6289,-6.6846,-6.6901,-6.7111,-6.7632,-6.7669,-6.7669,-6.7669,-6.7633,-6.7624,-6.7687,-6.7669,-6.7669,-6.7669,-6.7669,-6.7669,-6.7669,-6.7669,-6.7669,-6.7669,-6.7669,-6.7669,-6.7669,-6.7669,-6.7669,-6.7669,-6.7669,-6.7669,-6.7669,-6.7669,-6.7669,-6.7669,-6.7669,-6.7669,-6.7669,-6.7669,-6.7669,-5.7881,-5.7881,-5.7881,-5.7881,-5.7881,-5.7881,-5.7881,-5.7881,-5.7881,-5.7881,-5.7881,-5.7881,-5.8254,-5.8863,-5.8981,-5.9353,-5.9996,-6.0791,-6.1146,-6.1197,-6.1806,-6.2093,-6.2093,-6.2093,-6.2144,-6.2245,-6.2245,-6.2296,-6.2398,-6.2398,-6.2398,-6.2364,-6.167,-6.0943,-6.0283,-6.0148,-6.0097,-6.0114,-6.0977,-6.1755,-6.2364,-6.277,-6.2758,-6.2461,-6.3239,-6.3568,-6.3301,-6.3928,-6.4356,-6.4512,-6.4746,-6.4584,-6.3943,-6.2503,-6.0604,0.0,-5.7416,0.0,0.0,0.0,0.0,0.0,0.0,0.0,0.0,-6.3129,-6.5581,-6.7537,-6.7686,-6.7412,-6.6714,-6.6659,-6.6384,-6.5723,-6.6237,-6.6641,-6.6678,-6.7265,-6.7669,-6.7669,-6.7669,-6.7669,-6.7669,-6.7669,-6.7669,-6.7669,-6.7687,-6.7687,-6.7669,-6.7669,-6.7669,-6.7669,-6.7669,-6.7669,-6.7669,-6.7669,-6.7669,-6.7669,-6.7669,-6.7669,-6.7669,-6.7669,-6.7669,-6.7669,-6.7669,-6.7669,-6.7669,-6.7669,-6.7669,-6.7669,-6.7669,-6.7669,-6.7669,-6.7669,-6.7669,-5.7881,-5.7881,-5.7881,-5.7881,-5.7881,-5.7881,-5.7881,-5.7881,-5.7881,-5.7881,-5.7881,-5.7881,-5.7966,-5.8152,-5.8744,-5.9099,-5.9268,-5.9996,-6.0334,-6.0317,-6.0469,-6.0537,-6.0537,-6.0537,-6.0875,-6.1484,-6.1501,-6.1823,-6.2398,-6.2398,-6.2398,-6.2364,-6.1653,-6.1231,-6.1044,0.0,0.0,0.0,-6.1467,-6.2245,-6.2403,-6.2632,-6.2624,-6.2444,-6.3256,0.0,-6.2654,-6.3335,-6.3509,-6.3064,-6.3823,0.0,0.0,0.0,0.0,0.0,0.0,0.0,0.0,0.0,0.0,0.0,-6.2718,-6.2883,-6.2425,-6.4633,-6.6557,-6.7585,-6.7696,-6.7659,-6.7485,-6.7467,-6.7412,-6.7265,-6.7375,-6.7448,-6.7467,-6.7622,-6.7669,-6.7669,-6.7669,-6.7687,-6.7687,-6.7669,-6.7687,-6.7687,-6.7669,-6.7669,-6.7669,-6.7669,-6.7669,-6.7669,-6.7669,-6.7669,-6.7669,-6.7669,-6.7669,-6.7669,-6.7669,-6.7669,-6.7669,-6.7669,-6.7669,-6.7669,-6.7669,-6.7669,-6.7669,-6.7669,-6.7669,-6.7669,-6.7669,-6.7669,-6.7669,-6.7669,-6.7669,-5.7881,-5.7881,-5.7881,-5.7881,0.0,-5.7881,-5.7881,-5.7881,-5.7881,-5.7881,-5.7881,-5.7881,-5.7881,-5.7915,-5.8287,-5.8457,-5.849,-5.9235,-5.9556,-5.9573,-5.9928,-6.0097,-6.0097,-6.0097,-6.03,-6.0706,-6.0706,-6.0909,-6.1264,-6.1653,-6.1856,-6.1856,-6.1839,-6.1653,-6.1298,-6.0909,-6.0706,-6.0689,-6.1467,-6.2009,-6.2403,-6.2693,-6.2682,-6.2444,-6.3221,0.0,0.0,0.0,0.0,0.0,0.0,0.0,0.0,-6.3782,0.0,-6.231,-6.2603,-6.264,-6.2291,-6.297,-6.3613,-6.4035,-6.4787,-6.5099,-6.4659,-6.5778,-6.6824,-6.7614,-6.7669,-6.7669,-6.7669,-6.7669,-6.7669,-6.7669,-6.7669,-6.7669,-6.7669,-6.7669,-6.766,-6.7624,-6.7606,-6.7579,-6.746,-6.7552,-6.7579,-6.7606,-6.766,-6.7669,-6.7669,-6.7669,-6.7669,-6.7669,-6.7669,-6.7669,-6.7669,-6.7669,-6.7669,-6.7669,-6.7669,-6.7669,-6.7669,-6.7669,-6.7669,-6.7669,-6.7669,-6.7669,-6.7669,-6.7669,-6.7669,-6.7669,-6.7669,-6.7669,-6.7669,-6.7669,-6.7669,-5.7881,-5.7881,-5.7881,-5.7881,-5.7881,-5.7881,-5.7881,-5.7881,-5.7881,0.0,0.0,-5.7881,-5.7881,-5.7881,-5.7881,-5.7881,-5.7932,-5.8524,-5.8829,-5.8846,-5.9438,-5.9708,-5.9708,-5.9708,-5.9793,-5.9894,-5.9911,-5.9979,-6.0114,-6.0774,-6.1095,-6.1146,-6.1704,-6.1772,-6.1332,-6.1434,-6.1501,-6.1501,-6.1484,-6.1772,-6.2364,-6.2753,-6.2775,-6.2337,-6.3205,-6.3256,-6.2406,-6.3166,-6.3657,-6.3801,-6.3437,-6.3866,-6.5183,-6.4882,-6.4552,-6.4365,-6.5063,-6.5228,-6.4585,-6.5283,-6.5742,-6.5742,-6.6329,-6.6714,-6.6714,-6.6714,-6.6971,-6.765,-6.7669,-6.7669,-6.7669,-6.7669,-6.7669,-6.7669,-6.7669,-6.7669,-6.7669,-6.7669,-6.766,-6.7543,-6.7515,-6.7414,-6.7229,-6.7303,-6.7414,-6.7414,-6.747,-6.7606,-6.766,-6.7687,-6.7669,-6.7669,-6.7669,-6.7669,-6.7669,-6.7669,-6.7669,-6.7669,-6.7669,-6.7669,-6.7669,-6.7669,-6.7669,-6.7669,-6.7669,-6.7669,-6.7669,-6.7669,-6.7669,-6.7669,-6.7669,-6.7669,-6.7669,-6.7669,-6.7669,-5.7881,-5.7881,-5.7881,-5.7881,-5.7881,-5.7881,-5.7881,-5.7881,-5.7881,-5.7881,-5.7881,-5.7881,-5.7881,-5.7881,-5.7881,-5.7881,-5.7881,-5.7983,-5.8034,-5.8034,-5.8152,-5.8203,-5.8186,-5.8203,-5.8541,-5.9133,-5.9167,-5.9488,-6.0063,-6.0199,-6.0266,-6.0266,-6.0368,-6.0723,-6.1298,-6.1924,-6.2245,-6.2245,-6.2229,-6.2279,-6.2398,-6.2615,-6.2548,-6.2226,-6.3049,-6.3375,-6.3004,-6.3914,-6.4503,-6.4639,-6.4825,-6.5073,-6.5283,-6.5238,-6.5165,-6.5173,-6.5888,-6.6274,-6.6182,-6.6916,-6.7338,-6.7357,-6.7448,-6.7522,-6.7522,-6.7522,-6.7577,-6.7669,-6.7669,-6.7669,-6.7669,-6.7669,-6.7669,-6.7669,-6.7669,-6.7669,-6.7669,-6.7687,-6.7633,-6.7488,-6.7488,-6.7331,-6.7058,-6.703,-6.703,-6.7058,-6.7144,-6.7247,-6.7497,-6.7652,-6.7687,-6.7669,-6.7669,-6.7669,-6.7669,-6.7669,-6.7669,-6.7669,-6.7669,-6.7669,-6.7669,-6.7669,-6.7669,-6.7669,-6.7669,-6.7669,-6.7669,-6.7669,-6.7669,-6.7669,-6.7669,-6.7669,-6.7669,-6.7669,-6.7669,-5.7881,-5.7881,-5.7881,-5.7881,-5.7881,-5.7881,-5.7881,-5.7881,-5.7881,-5.7881,-5.7881,-5.7881,-5.7881,-5.7881,-5.7881,-5.7881,-5.7881,-5.7881,-5.7881,-5.7881,-5.7881,-5.7881,-5.7881,-5.7881,-5.8068,-5.8406,-5.8406,-5.8592,-5.8896,-5.9302,-5.9522,-5.9522,-5.9911,-6.0503,-6.1281,-6.162,-6.1992,-6.2381,-6.2398,-6.2398,-6.2398,-6.2808,-6.3038,-6.3033,-6.3989,-6.4404,-6.421,-6.4936,-6.5451,-6.5614,-6.5683,-6.5991,-6.6568,-6.6604,-6.6604,-6.6604,-6.6935,-6.7136,-6.7136,-6.7485,-6.7669,-6.7669,-6.7669,-6.7669,-6.7669,-6.7669,-6.7669,-6.7669,-6.7669,-6.7669,-6.7669,-6.7669,-6.7669,-6.7669,-6.7669,-6.7669,-6.7687,-6.7633,-6.7515,-6.7275,-6.7058,-6.6838,-6.6494,-6.6464,-6.6494,-6.6584,-6.682,-6.7182,-6.7442,-6.7606,-6.7669,-6.7669,-6.7669,-6.7669,-6.7669,-6.7669,-6.7669,-6.7669,-6.7669,-6.7669,-6.7669,-6.7669,-6.7669,-6.7669,-6.7669,-6.7669,-6.7669,-6.7669,-6.7669,-6.7669,-6.7669,-6.7669,-6.7669,-6.7669,-6.7669,-5.7881,-5.7881,-5.7881,-5.7881,-5.7881,-5.7881,-5.7881,-5.7881,-5.7881,-5.7881,-5.7881,-5.7881,-5.7881,-5.7881,-5.7881,-5.7881,-5.7881,-5.7881,-5.7881,-5.7881,-5.7881,-5.7881,-5.7881,-5.7881,-5.7881,-5.7881,-5.7881,-5.7881,-5.7966,-5.849,-5.8761,-5.8846,-5.9488,-6.0165,-6.0774,-6.1129,-6.1586,-6.211,-6.2296,-6.2398,-6.2437,-6.3017,-6.3471,-6.3825,-6.4889,-6.5443,-6.5388,-6.597,-6.6409,-6.6564,-6.6506,-6.6835,-6.7595,-6.7669,-6.7669,-6.7669,-6.7669,-6.7669,-6.7669,-6.7669,-6.7669,-6.7669,-6.7669,-6.7669,-6.7669,-6.7669,-6.7669,-6.7669,-6.7669,-6.7669,-6.7669,-6.7669,-6.7669,-6.7669,-6.7669,-6.7669,-6.7669,-6.7579,-6.7359,-6.703,-6.672,-6.6355,-6.5985,-6.5877,-6.5954,-6.6215,-6.6743,-6.721,-6.7396,-6.7579,-6.7687,-6.7669,-6.7669,-6.7669,-6.7669,-6.7669,-6.7669,-6.7669,-6.7669,-6.7669,-6.7669,-6.7669,-6.7669,-6.7669,-6.7669,-6.7669,-6.7669,-6.7669,-6.7669,-6.7669,-6.7669,-6.7669,-6.7669,-6.7669,-6.7669,-5.7881,-5.7881,-5.7881,-5.7881,-5.7881,-5.7881,-5.7881,-5.7881,-5.7881,-5.7881,-5.7881,-5.7881,-5.7881,-5.7881,-5.7881,-5.7881,-5.7881,-5.7881,-5.7881,-5.7881,-5.7881,-5.7881,-5.7881,-5.7881,-5.7881,-5.7881,-5.7881,-5.7881,-5.7881,-5.7966,-5.8,-5.8084,-5.8744,-5.9167,-5.9387,-6.0588,-6.1332,-6.1417,-6.2042,-6.2398,-6.2437,-6.3,-6.3471,-6.3806,-6.5008,-6.5819,-6.6084,-6.6931,-6.7378,-6.7405,-6.7486,-6.7577,-6.7669,-6.7669,-6.7669,-6.7669,-6.7669,-6.7669,-6.7669,-6.7669,-6.7669,-6.7669,-6.7669,-6.7669,-6.7669,-6.7669,-6.7669,-6.7669,-6.7669,-6.7669,-6.7669,-6.7669,-6.7687,-6.7687,-6.7687,-6.7669,-6.7642,-6.7579,-6.7359,-6.703,-6.6613,-6.6264,-6.5668,-6.5525,-6.5686,-6.6016,-6.6613,-6.7097,-6.7266,-6.7533,-6.7669,-6.7669,-6.7669,-6.7669,-6.7669,-6.7669,-6.7669,-6.7669,-6.7669,-6.7669,-6.7669,-6.7669,-6.7669,-6.7669,-6.7669,-6.7669,-6.7669,-6.7669,-6.7669,-6.7669,-6.7669,-6.7669,-6.7669,-6.7669,-6.7669,-5.7881,-5.7881,-5.7881,-5.7881,-5.7881,-5.7881,-5.7881,-5.7881,-5.7881,-5.7881,-5.7881,-5.7881,-5.7881,-5.7881,-5.7881,-5.7881,-5.7881,-5.7881,-5.7881,-5.7881,-5.7881,-5.7881,-5.7881,-5.7881,-5.7881,-5.7881,-5.7881,-5.7881,-5.7881,-5.7881,-5.7881,-5.7915,-5.822,-5.8575,-5.8994,-5.9641,-6.0148,-6.0588,-6.1349,-6.1755,-6.1883,-6.2891,-6.3639,-6.4057,-6.529,-6.6166,-6.6536,-6.721,-6.7606,-6.7606,-6.766,-6.7669,-6.7669,-6.7669,-6.7669,-6.7669,-6.7669,-6.7669,-6.7669,-6.7669,-6.7669,-6.7669,-6.7669,-6.7669,-6.7669,-6.7669,-6.7669,-6.7669,-6.7669,-6.7669,-6.7669,-6.7669,-6.766,-6.7606,-6.7597,-6.7524,-6.7285,-6.7144,-6.6932,-6.6464,-6.6016,-6.5572,-6.5196,-6.5196,-6.5539,-6.603,-6.6643,-6.7069,-6.7341,-6.7579,-6.7687,-6.7669,-6.7669,-6.7669,-6.7669,-6.7669,-6.7669,-6.7669,-6.7669,-6.7669,-6.7669,-6.7669,-6.7669,-6.7669,-6.7669,-6.7669,-6.7669,-6.7669,-6.7669,-6.7669,-6.7669,-6.7669,-6.7669,-6.7669,-6.7669,-5.7881,-5.7881,-5.7881,-5.7881,-5.7881,-5.7881,-5.7881,-5.7881,-5.7881,-5.7881,-5.7881,-5.7881,-5.7881,-5.7881,-5.7881,-5.7881,-5.7881,-5.7881,-5.7881,-5.7881,-5.7881,-5.7881,-5.7881,-5.7881,-5.7881,-5.7881,-5.7881,-5.7881,-5.7881,-5.7881,-5.7881,-5.7881,-5.7881,-5.8169,-5.8676,-5.8879,-5.9268,-5.9827,-6.0571,-6.1061,-6.1448,-6.259,-6.3541,-6.4164,-6.5454,-6.6367,-6.6684,-6.735,-6.7669,-6.7669,-6.7669,-6.7669,-6.7669,-6.7669,-6.7669,-6.7669,-6.7669,-6.7669,-6.7669,-6.7669,-6.7669,-6.7669,-6.7522,-6.7375,-6.732,-6.7155,-6.7045,-6.699,-6.7045,-6.71,-6.7677,-6.7669,-6.756,-6.7222,-6.7159,-6.692,-6.6347,-6.6279,-6.6109,-6.5618,-6.5347,-6.5029,-6.4825,-6.5045,-6.5504,-6.6105,-6.6684,-6.7144,-6.7414,-6.7624,-6.7669,-6.7669,-6.7669,-6.7669,-6.7669,-6.7669,-6.7669,-6.7669,-6.7669,-6.7669,-6.7669,-6.7669,-6.7669,-6.7669,-6.7669,-6.7669,-6.7669,-6.7669,-6.7669,-6.7669,-6.7669,-6.7669,-6.7669,-6.7669,-6.7669,-5.7881,-5.7881,-5.7881,-5.7881,-5.7881,-5.7881,-5.7881,-5.7881,-5.7881,-5.7881,-5.7881,-5.7881,-5.7881,-5.7881,-5.7881,-5.7881,-5.7881,-5.7881,-5.7881,-5.7881,-5.7881,-5.7881,-5.7881,-5.7881,-5.7881,-5.7881,-5.7881,-5.7881,-5.7881,-5.7881,-5.7881,-5.7881,-5.7881,-5.7898,-5.8084,-5.8643,-5.9015,-5.9133,-5.9793,-6.0503,-6.1278,-6.2041,-6.3022,-6.4095,-6.5436,-6.6367,-6.6714,-6.735,-6.7669,-6.7669,-6.7669,-6.7669,-6.7669,-6.7669,-6.7669,-6.7669,-6.7669,-6.7669,-6.7632,-6.7614,-6.7595,-6.7522,-6.6916,-6.6549,-6.6512,-6.5999,-6.5668,-6.5485,-6.5632,-6.6127,-6.7265,-6.7393,-6.7111,-6.6363,-6.6144,-6.5595,-6.466,-6.4896,-6.49,-6.4525,-6.4528,-6.456,-6.4617,-6.5127,-6.5437,-6.6017,-6.6711,-6.7193,-6.7378,-6.7551,-6.7687,-6.7669,-6.7669,-6.7669,-6.7669,-6.7669,-6.7669,-6.7669,-6.7669,-6.7669,-6.7669,-6.7669,-6.7669,-6.7669,-6.7669,-6.7669,-6.7669,-6.7669,-6.7669,-6.7669,-6.7669,-6.7669,-6.7669,-6.7669,-6.7669,-5.7881,-5.7881,-5.7881,-5.7881,-5.7881,-5.7881,-5.7881,-5.7881,-5.7881,-5.7881,-5.7881,-5.7881,-5.7881,-5.7881,-5.7881,-5.7881,-5.7881,-5.7881,-5.7881,-5.7881,-5.7881,-5.7881,-5.7881,-5.7881,-5.7881,-5.7881,-5.7881,-5.7881,-5.7881,-5.7881,-5.7881,-5.7881,-5.7881,-5.7881,-5.7932,-5.8152,-5.8287,-5.8372,-5.9032,-5.9759,-6.0579,-6.1656,-6.2845,-6.4077,-6.5454,-6.6367,-6.6702,-6.7368,-6.7669,-6.7669,-6.7669,-6.7669,-6.7669,-6.7669,-6.7669,-6.7669,-6.7669,-6.7467,-6.7008,-6.6935,-6.6696,-6.62,-6.5925,-6.5723,-6.5705,-6.5485,-6.5319,-6.5301,-6.5301,-6.5642,-6.5838,-6.6031,-6.5724,-6.5047,-6.474,-6.4313,-6.3563,-6.3346,-6.3153,-6.2726,-6.2751,-6.2925,-6.3451,-6.3786,-6.4348,-6.5084,-6.5959,-6.6592,-6.6901,-6.7293,-6.7669,-6.7669,-6.7669,-6.7669,-6.7669,-6.7669,-6.7669,-6.7669,-6.7669,-6.7669,-6.7669,-6.7669,-6.7669,-6.7669,-6.7669,-6.7669,-6.7669,-6.7669,-6.7669,-6.7669,-6.7669,-6.7669,-6.7669,-6.7669,-6.7669,-5.8609,-5.8592,-5.8609,-5.8457,-5.8271,-5.8254,-5.8101,-5.7898,-5.7881,-5.7881,-5.7881,-5.7881,-5.7881,-5.7881,-5.7881,-5.7881,-5.7881,-5.7881,-5.7881,-5.7881,-5.7881,-5.7881,-5.7881,-5.7881,-5.7881,-5.7881,-5.7881,-5.7881,-5.7881,-5.7881,-5.7881,-5.7881,-5.7881,-5.7881,-5.7881,-5.7881,-5.7881,-5.8,-5.8406,-5.9015,-5.9817,-6.1087,-6.2391,-6.3676,-6.5196,-6.6276,-6.6684,-6.7294,-6.7679,-6.7687,-6.7669,-6.7669,-6.7669,-6.7669,-6.7559,-6.7357,-6.7302,-6.6953,-6.6256,-6.6109,-6.5888,-6.5375,-6.5063,-6.4916,-6.4897,-6.4677,-6.4486,-6.4468,-6.4461,-6.4365,-6.4163,-6.4029,-6.3856,-6.3625,-6.3464,-6.2921,-6.1947,-6.1827,-6.1756,-6.1675,-6.171,-6.1986,-6.2519,-6.3142,-6.3837,-6.4518,-6.5588,-6.6333,-6.6559,-6.7155,-6.7669,-6.7669,-6.7669,-6.7669,-6.7669,-6.7669,-6.7669,-6.7669,-6.7669,-6.7669,-6.7669,-6.7669,-6.7669,-6.7669,-6.7669,-6.7669,-6.7669,-6.7669,-6.7669,-6.7669,-6.7669,-6.7669,-6.7669,-6.7669,-6.7669,-6.003,-5.9979,-6.0063,-5.9607,-5.9049,-5.8947,-5.8558,-5.8034,-5.7915,-5.7881,-5.7881,-5.7881,-5.7881,-5.7881,-5.7881,-5.7881,-5.7881,-5.7881,-5.7881,-5.7881,-5.7881,-5.7881,-5.7881,-5.7881,-5.7881,-5.7881,-5.7881,-5.7881,-5.7881,-5.7881,-5.7881,-5.7881,-5.7881,-5.7881,-5.7881,-5.7881,-5.7881,-5.7898,-5.7983,-5.8338,-5.9035,-6.0316,-6.1561,-6.2821,-6.4599,-6.5909,-6.6655,-6.7229,-6.7552,-6.7687,-6.7669,-6.7669,-6.7669,-6.7614,-6.732,-6.6696,-6.6531,-6.6109,-6.543,-6.5301,-6.5264,-6.4952,-6.4494,-6.409,-6.398,-6.3466,-6.3037,-6.3092,-6.2936,-6.2691,-6.243,-6.2076,-6.2029,-6.2465,-6.2284,-6.145,-6.0431,-6.0365,-6.0807,-6.1067,-6.1241,-6.1812,-6.2496,-6.3025,-6.361,-6.431,-6.545,-6.6303,-6.6402,-6.7081,-6.7614,-6.7669,-6.7669,-6.7669,-6.7669,-6.7669,-6.7669,-6.7669,-6.7669,-6.7669,-6.7669,-6.7669,-6.7669,-6.7669,-6.7669,-6.7669,-6.7669,-6.7669,-6.7669,-6.7669,-6.7669,-6.7669,-6.7669,-6.7669,-6.7669,-6.0097,-6.0097,-6.0097,-5.9979,-5.9708,-5.9235,-5.8863,-5.8609,-5.8135,-5.7881,-5.7881,-5.7881,-5.7881,-5.7881,-5.7881,-5.7881,-5.7881,-5.7881,-5.7881,-5.7881,-5.7881,-5.7881,-5.7881,-5.7881,-5.7881,-5.7881,-5.7881,-5.7881,-5.7881,-5.7881,-5.7881,-5.7881,-5.7881,-5.7881,-5.7881,-5.7881,-5.7881,-5.7881,-5.7881,-5.8254,-5.8947,-5.9551,-6.0724,-6.2577,-6.3689,-6.4917,-6.6452,-6.7172,-6.7543,-6.7687,-6.7669,-6.7669,-6.7595,-6.7155,-6.6769,-6.6494,-6.5962,-6.5338,-6.4604,-6.4457,-6.42,-6.3741,-6.3356,-6.3246,-6.3209,-6.2989,-6.2823,-6.2798,-6.2679,-6.25,-6.2185,-6.1638,-6.1276,-6.1077,-6.0607,-6.0076,-5.9218,-5.9029,-5.9201,-5.9633,-5.996,-6.0478,-6.1233,-6.2027,-6.2681,-6.3312,-6.467,-6.5697,-6.5907,-6.6916,-6.7659,-6.7669,-6.7669,-6.7669,-6.7669,-6.7669,-6.7669,-6.7669,-6.7669,-6.7669,-6.7669,-6.7669,-6.7669,-6.7669,-6.7669,-6.7669,-6.7669,-6.7669,-6.7669,-6.7669,-6.7669,-6.7669,-6.7669,-6.7669,-6.7669,-6.096,-6.096,-6.0943,-6.0791,-6.052,-6.003,-5.9505,-5.9015,-5.8524,-5.8152,-5.7932,-5.7881,-5.7881,-5.7881,-5.7881,-5.7881,-5.7881,-5.7881,-5.7881,-5.7881,-5.7881,-5.7881,-5.7881,-5.7881,-5.7881,-5.7881,-5.7881,-5.7881,-5.7881,-5.7881,-5.7881,-5.7881,-5.7881,-5.7881,-5.7881,-5.7881,-5.7881,-5.7881,-5.7881,-5.8118,-5.8578,-5.9084,-6.022,-6.1985,-6.303,-6.4463,-6.6265,-6.6983,-6.7442,-6.7633,-6.7669,-6.7559,-6.7247,-6.6751,-6.6237,-6.5595,-6.5136,-6.4494,-6.3741,-6.3594,-6.3411,-6.2915,-6.2823,-6.2823,-6.2823,-6.2823,-6.2823,-6.2798,-6.2629,-6.2397,-6.2005,-6.1365,-6.0669,-5.9972,-5.97,-5.9199,-5.8667,-5.8526,-5.8736,-5.9235,-5.9602,-6.0114,-6.0782,-6.1448,-6.2096,-6.2891,-6.4258,-6.5521,-6.587,-6.688,-6.7375,-6.7669,-6.7669,-6.7669,-6.7669,-6.7669,-6.7669,-6.7669,-6.7669,-6.7669,-6.7669,-6.7669,-6.7669,-6.7669,-6.7669,-6.7669,-6.7669,-6.7669,-6.7669,-6.7669,-6.7669,-6.7669,-6.7669,-6.7669,-6.7669,-6.2381,-6.2398,-6.2381,-6.1924,-6.1383,-6.1214,-6.0385,-5.9252,-5.8981,-5.8541,-5.8,-5.7881,-5.7881,-5.7881,-5.7881,-5.7881,-5.7881,-5.7881,-5.7881,-5.7881,-5.7881,-5.7881,-5.7881,-5.7881,-5.7881,-5.7881,-5.7881,-5.7881,-5.7881,-5.7881,-5.7881,-5.7881,-5.7881,-5.7881,-5.7881,-5.7881,-5.7881,-5.7881,-5.7881,-5.7915,-5.8019,-5.8761,-5.9927,-6.1307,-6.2664,-6.4238,-6.601,-6.682,-6.7313,-6.7615,-6.7669,-6.7375,-6.6714,-6.6476,-6.5705,-6.4402,-6.4108,-6.3649,-6.3044,-6.2952,-6.289,-6.2842,-6.2823,-6.2823,-6.2823,-6.2823,-6.2823,-6.2798,-6.2552,-6.2212,-6.1712,-6.1045,-6.0223,-5.9434,-5.9183,-5.8978,-5.8789,-5.8858,-5.9182,-5.9565,-6.0036,-6.0538,-6.1099,-6.1728,-6.2577,-6.3454,-6.4632,-6.5653,-6.6292,-6.699,-6.7522,-6.7669,-6.7669,-6.7669,-6.7669,-6.7669,-6.7669,-6.7669,-6.7669,-6.7669,-6.7669,-6.7669,-6.7669,-6.7669,-6.7669,-6.7669,-6.7669,-6.7669,-6.7669,-6.7669,-6.7669,-6.7669,-6.7669,-6.7669,-6.7669,-6.2398,-6.2398,-6.2398,-6.2279,-6.2026,-6.1552,-6.074,-5.9793,-5.9218,-5.8592,-5.8,-5.7881,-5.7881,-5.7881,-5.7881,-5.7881,-5.7881,-5.7881,-5.7881,-5.7881,-5.7881,-5.7881,-5.7881,-5.7881,-5.7881,-5.7881,-5.7881,-5.7881,-5.7881,-5.7881,-5.7881,-5.7881,-5.7881,-5.7881,-5.7881,-5.7881,-5.7881,-5.7881,-5.7881,-5.7881,-5.7952,-5.832,-5.9431,-6.1186,-6.2245,-6.3916,-6.5987,-6.7032,-6.7533,-6.7669,-6.7669,-6.732,-6.6512,-6.5962,-6.5191,-6.42,-6.3484,-6.3117,-6.2897,-6.2823,-6.2823,-6.2823,-6.2823,-6.2823,-6.2823,-6.2823,-6.2823,-6.2773,-6.257,-6.2212,-6.1684,-6.0956,-6.0001,-5.8927,-5.8684,-5.8632,-5.8789,-5.9114,-5.9598,-6.016,-6.0686,-6.1205,-6.1762,-6.2567,-6.3346,-6.4006,-6.5079,-6.6237,-6.6696,-6.7136,-6.7669,-6.7669,-6.7669,-6.7669,-6.7669,-6.7669,-6.7669,-6.7669,-6.7669,-6.7669,-6.7669,-6.7669,-6.7669,-6.7669,-6.7669,-6.7669,-6.7669,-6.7669,-6.7669,-6.7669,-6.7669,-6.7669,-6.7669,-6.7669,-6.7669,-6.2398,-6.2398,-6.2398,-6.2398,-6.2296,-6.1603,-6.0842,-6.0063,-5.9319,-5.8592,-5.8,-5.7881,-5.7881,-5.7881,-5.7881,-5.7881,-5.7881,-5.7881,-5.7881,-5.7881,-5.7881,-5.7881,-5.7881,-5.7881,-5.7881,-5.7881,-5.7881,-5.7881,-5.7881,-5.7881,-5.7881,-5.7881,-5.7881,-5.7881,-5.7881,-5.7881,-5.7881,-5.7881,-5.7881,-5.7881,-5.7935,-5.8422,-5.9623,-6.1258,-6.2366,-6.4037,-6.6247,-6.7294,-6.7669,-6.7669,-6.7632,-6.7173,-6.609,-6.5595,-6.4787,-6.3686,-6.3062,-6.2823,-6.2823,-6.2823,-6.2823,-6.2823,-6.2823,-6.2823,-6.2823,-6.2823,-6.2798,-6.2705,-6.2449,-6.2078,-6.1487,-6.0643,-5.9631,-5.8858,-5.8596,-5.8667,-5.8927,-5.9466,-6.0097,-6.077,-6.1536,-6.2161,-6.2577,-6.3556,-6.429,-6.4908,-6.5728,-6.6504,-6.7026,-6.743,-6.7669,-6.7669,-6.7669,-6.7669,-6.7669,-6.7669,-6.7669,-6.7669,-6.7669,-6.7669,-6.7669,-6.7669,-6.7669,-6.7669,-6.7669,-6.7669,-6.7669,-6.7669,-6.7669,-6.7669,-6.7669,-6.7669,-6.7669,-6.7669,-6.7669,-6.2398,-6.2398,-6.2398,-6.2398,-6.2279,-6.1603,-6.0842,-6.0063,-5.9319,-5.8592,-5.8,-5.7881,-5.7881,-5.7881,-5.7881,-5.7881,-5.7881,-5.7881,-5.7881,-5.7881,-5.7881,-5.7881,-5.7881,-5.7881,-5.7881,-5.7881,-5.7881,-5.7881,-5.7881,-5.7881,-5.7881,-5.7881,-5.7881,-5.7881,-5.7881,-5.7881,-5.7881,-5.7881,-5.7881,-5.8,-5.8242,-5.8936,-6.0141,-6.1762,-6.3385,-6.4894,-6.6591,-6.747,-6.7669,-6.7669,-6.7669,-6.6971,-6.5723,-6.5448,-6.4604,-6.3367,-6.2989,-6.2823,-6.2823,-6.2823,-6.2823,-6.2823,-6.2823,-6.2823,-6.2823,-6.2823,-6.2773,-6.2629,-6.2389,-6.1969,-6.1257,-6.0164,-5.9485,-5.9064,-5.9047,-5.9217,-5.9554,-6.0025,-6.06,-6.1281,-6.2416,-6.3193,-6.3875,-6.4556,-6.5474,-6.5647,-6.6423,-6.6945,-6.7302,-6.754,-6.7669,-6.7669,-6.7669,-6.7669,-6.7669,-6.7669,-6.7669,-6.7669,-6.7669,-6.7669,-6.7669,-6.7669,-6.7669,-6.7669,-6.7669,-6.7669,-6.7669,-6.7669,-6.7669,-6.7669,-6.7669,-6.7669,-6.7669,-6.7669,-6.7669,-6.2398,-6.2398,-6.2398,-6.2398,-6.2279,-6.1603,-6.0825,-6.003,-5.9302,-5.8541,-5.8,-5.7881,-5.7881,-5.7881,-5.7881,-5.7881,-5.7881,-5.7881,-5.7881,-5.7881,-5.7881,-5.7881,-5.7881,-5.7881,-5.7881,-5.7881,-5.7881,-5.7881,-5.7881,-5.7881,-5.7881,-5.7881,-5.7881,-5.7881,-5.7881,-5.7881,-5.7881,-5.7881,-5.7898,-5.8237,-5.8787,-5.9511,-6.075,-6.2544,-6.4631,-6.6205,-6.7109,-6.7579,-6.7687,-6.7669,-6.7614,-6.7192,-6.6274,-6.5668,-6.4861,-6.3925,-6.3154,-6.286,-6.2823,-6.2823,-6.2823,-6.2823,-6.2823,-6.2823,-6.2823,-6.2823,-6.273,-6.2585,-6.2423,-6.1951,-6.1169,-6.0419,-5.9931,-5.9735,-5.9801,-6.0221,-6.0893,-6.0928,-6.1022,-6.1573,-6.2739,-6.401,-6.5262,-6.572,-6.6294,-6.6559,-6.6926,-6.743,-6.7622,-6.7669,-6.7669,-6.7669,-6.7669,-6.7669,-6.7669,-6.7669,-6.7669,-6.7669,-6.7669,-6.7669,-6.7669,-6.7669,-6.7669,-6.7669,-6.7669,-6.7669,-6.7669,-6.7669,-6.7669,-6.7669,-6.7669,-6.7669,-6.7669,-6.7669,-6.7669,-6.2398,-6.2398,-6.2398,-6.2195,-6.1789,-6.1061,-6.0317,-5.9539,-5.8795,-5.8271,-5.7949,-5.7881,-5.7881,-5.7881,-5.7881,-5.7881,-5.7881,-5.7881,-5.7881,-5.7881,-5.7881,-5.7881,-5.7881,-5.7881,-5.7881,-5.7881,-5.7881,-5.7881,-5.7881,-5.7881,-5.7881,-5.7881,-5.7881,-5.7881,-5.7881,-5.7881,-5.7881,-5.7983,-5.8254,-5.8663,-5.9186,-6.0388,-6.2022,-6.3877,-6.5797,-6.6983,-6.746,-6.7606,-6.7687,-6.7669,-6.7669,-6.732,-6.6623,-6.609,-6.5319,-6.4218,-6.3741,-6.3154,-6.297,-6.2823,-6.2823,-6.2823,-6.2823,-6.2823,-6.2823,-6.2823,-6.2698,-6.2526,-6.2318,-6.1969,-6.1093,-6.0691,-6.0476,-6.0752,-6.0896,-6.1499,-6.2261,-6.2087,-6.1877,-6.2552,-6.3948,-6.5001,-6.5938,-6.6586,-6.6953,-6.7155,-6.7192,-6.764,-6.764,-6.7669,-6.7669,-6.7669,-6.7669,-6.7669,-6.7669,-6.7669,-6.7669,-6.7669,-6.7669,-6.7669,-6.7669,-6.7669,-6.7669,-6.7669,-6.7669,-6.7669,-6.7669,-6.7669,-6.7669,-6.7669,-6.7669,-6.7669,-6.7669,-6.7669,-6.7669,-6.2398,-6.2381,-6.2262,-6.1856,-6.1214,-6.0334,-5.9607,-5.8998,-5.8203,-5.7949,-5.7881,-5.7881,-5.7881,-5.7881,-5.7881,-5.7881,-5.7881,-5.7881,-5.7881,-5.7881,-5.7881,-5.7881,-5.7881,-5.7881,-5.7881,-5.7881,-5.7881,-5.7881,-5.7881,-5.7881,-5.7881,-5.7881,-5.7881,-5.7881,-5.7881,-5.7898,-5.8,-5.822,-5.868,-5.9332,-5.9984,-6.1448,-6.3311,-6.5365,-6.6392,-6.7144,-6.747,-6.7633,-6.7669,-6.7669,-6.7669,-6.732,-6.6861,-6.6439,-6.6017,-6.453,-6.4255,-6.3704,-6.3227,-6.2952,-6.2823,-6.2823,-6.2823,-6.2823,-6.2823,-6.2798,-6.2698,-6.25,-6.2265,-6.2087,-6.1429,-6.1396,-6.1622,-6.2025,-6.242,-6.3006,-6.3657,-6.3516,-6.3641,-6.39,-6.4904,-6.5886,-6.6515,-6.7081,-6.743,-6.7669,-6.7669,-6.7669,-6.7669,-6.7669,-6.7669,-6.7669,-6.7669,-6.7669,-6.7669,-6.7669,-6.7669,-6.7669,-6.7669,-6.7669,-6.7669,-6.7669,-6.7669,-6.7669,-6.7669,-6.7669,-6.7669,-6.7669,-6.7669,-6.7669,-6.7669,-6.7669,-6.7669,-6.7669,-6.7669,-6.2398,-6.2347,-6.1738,-6.14,-6.1078,-5.981,-5.9133,-5.8913,-5.8169,-5.7881,-5.7881,-5.7881,-5.7881,-5.7881,-5.7881,-5.7881,-5.7881,-5.7881,-5.7881,-5.7881,-5.7881,-5.7881,-5.7881,-5.7881,-5.7898,-5.7881,-5.7932,-5.7983,-5.7949,-5.7881,-5.8152,-5.7966,-5.8017,-5.8017,-5.8051,-5.7932,-5.8426,-5.8869,-5.9318,-6.0101,-6.1231,-6.2524,-6.4016,-6.6112,-6.6809,-6.7229,-6.7552,-6.7687,-6.7669,-6.7669,-6.7669,-6.7595,-6.7338,-6.6861,-6.6384,-6.5815,-6.4897,-6.4218,-6.3759,-6.3209,-6.2915,-6.2823,-6.2823,-6.2823,-6.2823,-6.2853,-6.2925,-6.279,-6.2599,-6.2458,-6.2975,-6.2807,-6.3195,-6.3718,-6.4083,-6.4496,-6.5198,-6.5448,-6.5368,-6.536,-6.6025,-6.6563,-6.7028,-6.7375,-6.754,-6.7669,-6.7669,-6.7669,-6.7669,-6.7669,-6.7669,-6.7669,-6.7669,-6.7669,-6.7669,-6.7669,-6.7669,-6.7669,-6.7669,-6.7669,-6.7669,-6.7669,-6.7669,-6.7669,-6.7669,-6.7669,-6.7669,-6.7669,-6.7669,-6.7669,-6.7669,-6.7669,-6.7669,-6.7669,-6.7669,-6.1214,-6.1163,-6.0825,-6.0469,-6.003,-5.937,-5.8778,-5.8406,-5.8034,-5.7881,-5.7881,-5.7881,-5.7881,-5.7881,-5.7881,-5.7881,-5.7881,-5.7881,-5.7881,-5.7881,-5.7881,-5.7881,-5.7881,-5.7881,-5.8169,-5.8372,-5.8473,-5.849,-5.8524,-5.8913,-5.893,-5.9066,-5.9032,-5.9032,-5.9069,-5.9228,-5.9366,-5.9777,-6.043,-6.1219,-6.2393,-6.364,-6.5344,-6.6271,-6.7011,-6.7396,-6.7588,-6.7669,-6.7669,-6.7669,-6.7669,-6.7669,-6.7559,-6.7338,-6.6916,-6.6457,-6.5723,-6.4861,-6.4273,-6.3631,-6.3356,-6.286,-6.286,-6.2823,-6.2952,-6.3165,-6.3562,-6.3756,-6.3716,-6.3702,-6.4057,-6.4039,-6.4457,-6.5039,-6.5387,-6.5825,-6.6427,-6.6811,-6.6728,-6.6528,-6.6892,-6.7211,-6.7403,-6.7614,-6.765,-6.7669,-6.7669,-6.7669,-6.7669,-6.7669,-6.7669,-6.7669,-6.7669,-6.7669,-6.7669,-6.7669,-6.7669,-6.7669,-6.7669,-6.7669,-6.7669,-6.7669,-6.7669,-6.7669,-6.7669,-6.7669,-6.7669,-6.7669,-6.7669,-6.7669,-6.7669,-6.7669,-6.7669,-6.7669,-6.7669,-6.0097,-6.0097,-5.9945,-5.9556,-5.9049,-5.8829,-5.8457,-5.7966,-5.7881,-5.7881,-5.7881,-5.7881,-5.7881,-5.7881,-5.7881,-5.7881,-5.7881,-5.7881,-5.7881,-5.7881,-5.7881,-5.7881,-5.7898,-5.8118,-5.8423,-5.8863,-5.9505,-5.937,-5.9319,-5.9674,-5.9996,-5.9911,-6.003,-6.0097,-6.0017,-6.0065,-6.0411,-6.0992,-6.1757,-6.2571,-6.3675,-6.5083,-6.6325,-6.6772,-6.7238,-6.7552,-6.7687,-6.7669,-6.7669,-6.7669,-6.7669,-6.7669,-6.7669,-6.7669,-6.7375,-6.6843,-6.6623,-6.576,-6.5044,-6.4383,-6.4108,-6.3668,-6.3411,-6.3356,-6.3503,-6.4064,-6.4552,-6.5089,-6.4973,-6.4911,-6.5103,-6.5149,-6.5551,-6.6144,-6.6509,-6.6774,-6.7177,-6.7459,-6.745,-6.7477,-6.7669,-6.7669,-6.7669,-6.7669,-6.7669,-6.7669,-6.7669,-6.7669,-6.7669,-6.7669,-6.7669,-6.7669,-6.7669,-6.7669,-6.7669,-6.7669,-6.7669,-6.7669,-6.7669,-6.7669,-6.7669,-6.7669,-6.7669,-6.7669,-6.7669,-6.7669,-6.7669,-6.7669,-6.7669,-6.7669,-6.7669,-6.7669,-6.7669,-6.7669,-6.7669,-6.0097,-6.0047,-5.9404,-5.9045,-5.8913,-5.8338,-5.8,-5.7898,-5.7881,-5.7881,-5.7881,-5.7881,-5.7881,-5.7881,-5.7881,-5.7881,-5.7881,-5.7881,-5.7881,-5.7881,-5.7881,-5.7881,-5.8,-5.8626,-5.8846,-5.9336,-6.0351,-6.052,-6.03,-6.025,-6.0233,-6.0283,-6.0351,-6.0165,-6.0512,-6.0847,-6.0864,-6.1673,-6.2519,-6.3794,-6.5283,-6.613,-6.6637,-6.705,-6.7368,-6.757,-6.7687,-6.7669,-6.7669,-6.7669,-6.7669,-6.7669,-6.7669,-6.7669,-6.7669,-6.7375,-6.6971,-6.6421,-6.6017,-6.5503,-6.5044,-6.4751,-6.4787,-6.4971,-6.4952,-6.4989,-6.5393,-6.5867,-6.5624,-6.5681,-6.6113,-6.625,-6.6716,-6.7046,-6.7321,-6.7403,-6.766,-6.7633,-6.7687,-6.7669,-6.7669,-6.7669,-6.7669,-6.7669,-6.7669,-6.7669,-6.7669,-6.7669,-6.7669,-6.7669,-6.7669,-6.7669,-6.7669,-6.7669,-6.7669,-6.7669,-6.7669,-6.7669,-6.7669,-6.7669,-6.7669,-6.7669,-6.7669,-6.7669,-6.7669,-6.7669,-6.7669,-6.7669,-6.7669,-6.7669,-6.7669,-6.7669,-6.7669,-6.7669,-6.7669,-5.8846,-5.8812,-5.8507,-5.8372,-5.8338,-5.8017,-5.7881,-5.7881,-5.7881,-5.7881,-5.7881,-5.7881,-5.7881,-5.7881,-5.7881,-5.7881,-5.7881,-5.7881,-5.7881,-5.7881,-5.7881,-5.7881,-5.8068,-5.866,-5.9133,-5.9827,-6.0672,-6.1383,-6.1247,-6.1349,-6.14,-6.1349,-6.1481,-6.1677,-6.1499,-6.2053,-6.2591,-6.3306,-6.4162,-6.5248,-6.6186,-6.6714,-6.7022,-6.7341,-6.7524,-6.7633,-6.7687,-6.7669,-6.7669,-6.7669,-6.7669,-6.7669,-6.7669,-6.7669,-6.7669,-6.765,-6.7412,-6.699,-6.6512,-6.6164,-6.5833,-6.543,-6.5393,-6.5448,-6.5815,-6.6017,-6.6292,-6.6943,-6.6814,-6.6824,-6.7026,-6.7155,-6.7338,-6.7604,-6.7669,-6.7669,-6.7669,-6.7669,-6.7669,-6.7669,-6.7669,-6.7669,-6.7669,-6.7669,-6.7669,-6.7669,-6.7669,-6.7669,-6.7669,-6.7669,-6.7669,-6.7669,-6.7669,-6.7669,-6.7669,-6.7669,-6.7669,-6.7669,-6.7669,-6.7669,-6.7669,-6.7669,-6.7669,-6.7669,-6.7669,-6.7669,-6.7669,-6.7669,-6.7669,-6.7669,-6.7669,-6.7669,-6.7669,-6.7669,-6.7669,-5.7881,-5.7881,-5.7881,-5.7881,-5.7881,-5.7881,-5.7881,-5.7881,-5.7881,-5.7881,-5.7881,-5.7881,-5.7881,-5.7881,-5.7881,-5.7881,-5.7881,-5.7881,-5.7881,-5.7881,-5.7881,-5.7881,-5.8203,-5.8761,-5.959,-6.0148,-6.118,-6.1772,-6.2161,-6.2313,-6.2245,-6.2398,-6.2356,-6.2574,-6.2893,-6.3319,-6.3883,-6.4666,-6.5479,-6.624,-6.6849,-6.7126,-6.7341,-6.7524,-6.7652,-6.7669,-6.7669,-6.7669,-6.7669,-6.7669,-6.7669,-6.7669,-6.7669,-6.7669,-6.7669,-6.7669,-6.7577,-6.7393,-6.7045,-6.6751,-6.6439,-6.6127,-6.5925,-6.6347,-6.6659,-6.6824,-6.6935,-6.7549,-6.7549,-6.754,-6.7669,-6.7659,-6.7659,-6.7632,-6.7669,-6.7669,-6.7669,-6.7669,-6.7669,-6.7669,-6.7669,-6.7669,-6.7669,-6.7669,-6.7669,-6.7669,-6.7669,-6.7669,-6.7669,-6.7669,-6.7669,-6.7669,-6.7669,-6.7669,-6.7669,-6.7669,-6.7669,-6.7669,-6.7669,-6.7669,-6.7669,-6.7669,-6.7669,-6.7669,-6.7669,-6.7669,-6.7669,-6.7669,-6.7669,-6.7669,-6.7669,-6.7669,-6.7669,-6.7669,-6.7669,-5.7881,-5.7881,-5.7881,-5.7881,-5.7881,-5.7881,-5.7881,-5.7881,-5.7881,-5.7881,-5.7881,-5.7881,-5.7881,-5.7881,-5.7881,-5.7881,-5.7881,-5.7881,-5.7881,-5.7881,-5.7881,-5.7932,-5.8389,-5.9184,-6.0047,-6.0419,-6.1467,-6.2178,-6.2403,-6.2459,-6.2437,-6.2437,-6.271,-6.2864,-6.3247,-6.3931,-6.4907,-6.5679,-6.6385,-6.6809,-6.7229,-6.7442,-6.7524,-6.7633,-6.7687,-6.7669,-6.7669,-6.7669,-6.7669,-6.7669,-6.7669,-6.7669,-6.7669,-6.7669,-6.7669,-6.7669,-6.7669,-6.7559,-6.743,-6.7412,-6.7504,-6.7485,-6.7393,-6.7228,-6.7357,-6.7522,-6.765,-6.765,-6.7669,-6.7669,-6.7669,-6.7669,-6.7669,-6.7669,-6.7669,-6.7669,-6.7669,-6.7669,-6.7669,-6.7669,-6.7669,-6.7669,-6.7669,-6.7669,-6.7669,-6.7669,-6.7669,-6.7669,-6.7669,-6.7669,-6.7669,-6.7669,-6.7669,-6.7669,-6.7669,-6.7669,-6.7669,-6.7669,-6.7669,-6.7669,-6.7669,-6.7669,-6.7669,-6.7669,-6.7669,-6.7669,-6.7669,-6.7669,-6.7669,-6.7669,-6.7669,-6.7669,-6.7669,-6.7669,-6.7669,-5.7881,-5.7881,-5.7881,-5.7881,-5.7881,-5.7881,-5.7881,-5.7881,-5.7881,-5.7881,-5.7881,-5.7881,-5.7881,-5.7881,-5.7881,-5.7881,-5.7881,-5.7881,-5.7881,-5.7881,-5.7898,-5.8152,-5.8778,-5.9522,-6.0351,-6.0926,-6.189,-6.2476,-6.2593,-6.2615,-6.277,-6.2885,-6.3076,-6.3172,-6.3604,-6.4567,-6.5742,-6.65,-6.6993,-6.7331,-6.7497,-6.7606,-6.7633,-6.7687,-6.7669,-6.7669,-6.7669,-6.7669,-6.7669,-6.7669,-6.7669,-6.7669,-6.7669,-6.7669,-6.7669,-6.7669,-6.7669,-6.7669,-6.7669,-6.7669,-6.7669,-6.7669,-6.765,-6.7669,-6.7669,-6.7669,-6.7669,-6.7669,-6.7669,-6.7669,-6.7669,-6.7669,-6.7669,-6.7669,-6.7669,-6.7669,-6.7669,-6.7669,-6.7669,-6.7669,-6.7669,-6.7669,-6.7669,-6.7669,-6.7669,-6.7669,-6.7669,-6.7669,-6.7669,-6.7669,-6.7669,-6.7669,-6.7669,-6.7669,-6.7669,-6.7669,-6.7669,-6.7669,-6.7669,-6.7669,-6.7669,-6.7669,-6.7669,-6.7669,-6.7669,-6.7669,-6.7669,-6.7669,-6.7669,-6.7669,-6.7669,-6.7669,-6.7669,-6.7669,-6.7669,-5.7881,-5.7881,-5.7881,-5.7881,-5.7881,-5.7881,-5.7881,-5.7881,-5.7881,-5.7881,-5.7881,-5.7881,-5.7881,-5.7881,-5.7881,-5.7881,-5.7881,-5.7881,-5.7881,-5.7881,-5.7949,-5.8355,-5.9032,-5.9759,-6.0524,-6.1392,-6.2109,-6.2632,-6.2885,-6.2923,-6.3134,-6.338,-6.3675,-6.3859,-6.4182,-6.5323,-6.6506,-6.7126,-6.7414,-6.757,-6.766,-6.7687,-6.7687,-6.7669,-6.7669,-6.7669,-6.7669,-6.7669,-6.7669,-6.7669,-6.7669,-6.7669,-6.7669,-6.7669,-6.7669,-6.7669,-6.7669,-6.7669,-6.7669,-6.7669,-6.7669,-6.7669,-6.7669,-6.7669,-6.7669,-6.7669,-6.7669,-6.7669,-6.7669,-6.7669,-6.7669,-6.7669,-6.7669,-6.7669,-6.7669,-6.7669,-6.7669,-6.7669,-6.7669,-6.7669,-6.7669,-6.7669,-6.7669,-6.7669,-6.7669,-6.7669,-6.7669,-6.7669,-6.7669,-6.7669,-6.7669,-6.7669,-6.7669,-6.7669,-6.7669,-6.7669,-6.7669,-6.7669,-6.7669,-6.7669,-6.7669,-6.7669,-6.7669,-6.7669,-6.7669,-6.7669,-6.7669,-6.7669,-6.7669,-6.7669,-6.7669,-6.7669,-6.7669,-6.7669,-6.7669,-5.7881,-5.7881,-5.7881,-5.7881,-5.7881,-5.7881,-5.7881,-5.7881,-5.7881,-5.7881,-5.7881,-5.7881,-5.7881,-5.7881,-5.7881,-5.7881,-5.7881,-5.7881,-5.7881,-5.7881,-5.7898,-5.8355,-5.9099,-5.9898,-6.0757,-6.1584,-6.24,-6.2983,-6.3322,-6.3494,-6.3677,-6.4076,-6.4567,-6.4875,-6.4824,-6.5873,-6.679,-6.7387,-6.7515,-6.7597,-6.766,-6.7669,-6.7669,-6.7669,-6.7669,-6.7669,-6.7669,-6.7669,-6.7669,-6.7669,-6.7669,-6.7669,-6.7669,-6.7669,-6.7669,-6.7669,-6.7669,-6.7669,-6.7669,-6.7669,-6.7669,-6.7669,-6.7669,-6.7669,-6.7669,-6.7669,-6.7669,-6.7669,-6.7669,-6.7669,-6.7669,-6.7669,-6.7669,-6.7669,-6.7669,-6.7669,-6.7669,-6.7669,-6.7669,-6.7669,-6.7669,-6.7669,-6.7669,-6.7669,-6.7669,-6.7669,-6.7669,-6.7669,-6.7669,-6.7669,-6.7669,-6.7669,-6.7669,-6.7669,-6.7669,-6.7669,-6.7669,-6.7669,-6.7669,-6.7669,-6.7669,-6.7669,-6.7669,-6.7669,-6.7669,-6.7669,-6.7669,-6.7669,-6.7669,-6.7669,-6.7669,-6.7669,-6.7669,-6.7724,-6.776,-5.7881,-5.7881,-5.7881,-5.7881,-5.7881,-5.7881,-5.7881,-5.7881,-5.7881,-5.7881,-5.7881,-5.7881,-5.7881,-5.7881,-5.7881,-5.7881,-5.7881,-5.7881,-5.7881,-5.7881,-5.7881,-5.8744,-5.9509,-6.0214,-6.1149,-6.2313,-6.3066,-6.3531,-6.4057,-6.4182,-6.4618,-6.5092,-6.5583,-6.6025,-6.6154,-6.6673,-6.7115,-6.7524,-6.7633,-6.766,-6.7687,-6.7669,-6.7669,-6.7669,-6.7669,-6.7669,-6.7669,-6.7669,-6.7669,-6.7669,-6.7669,-6.7669,-6.7669,-6.7669,-6.7669,-6.7669,-6.7669,-6.7669,-6.7669,-6.7669,-6.7669,-6.7669,-6.7669,-6.7669,-6.7669,-6.7669,-6.7669,-6.7669,-6.7669,-6.7669,-6.7669,-6.7669,-6.7669,-6.7669,-6.7669,-6.7669,-6.7669,-6.7669,-6.7669,-6.7669,-6.7669,-6.7669,-6.7669,-6.7669,-6.7669,-6.7669,-6.7669,-6.7669,-6.7669,-6.7669,-6.7669,-6.7669,-6.7669,-6.7669,-6.7669,-6.7669,-6.7669,-6.7669,-6.7669,-6.7669,-6.7669,-6.7669,-6.7669,-6.7669,-6.7669,-6.7669,-6.7669,-6.7669,-6.7669,-6.7669,-6.7779,-6.7834,-6.7871,-6.7926,-6.7962,-5.7881,-5.7881,-5.7881,-5.7881,-5.7881,-5.7881,-5.7881,-5.7881,-5.7881,-5.7881,-5.7881,-5.7881,-5.7881,-5.7881,-5.7881,-5.7881,-5.7881,-5.7881,-5.7881,-5.7881,-5.7881,-5.8869,-5.9841,-6.0588,-6.1636,-6.2856,-6.3677,-6.4129,-6.4739,-6.5009,-6.5471,-6.6061,-6.6566,-6.6743,-6.6925,-6.7144,-6.7313,-6.7633,-6.7687,-6.7687,-6.7669,-6.7669,-6.7669,-6.7669,-6.7669,-6.7669,-6.7669,-6.7669,-6.7669,-6.7669,-6.7669,-6.7669,-6.7669,-6.7669,-6.7669,-6.7669,-6.7669,-6.7669,-6.7669,-6.7669,-6.7669,-6.7669,-6.7669,-6.7669,-6.7669,-6.7669,-6.7669,-6.7669,-6.7669,-6.7705,-6.7724,-6.7724,-6.7779,-6.7779,-6.7834,-6.7834,-6.7816,-6.7834,-6.7852,-6.7834,-6.7779,-6.7742,-6.7669,-6.7669,-6.7669,-6.7669,-6.7669,-6.7669,-6.7669,-6.7669,-6.7669,-6.7669,-6.7669,-6.7669,-6.7669,-6.7669,-6.7669,-6.7669,-6.7669,-6.7669,-6.7669,-6.7669,-6.7669,-6.7669,-6.7669,-6.7669,-6.7669,-6.7687,-6.7705,-6.7852,-6.8072,-6.8109,-6.8091,-6.8238,-6.8385,-5.7881,-5.7881,-5.7881,-5.7881,-5.7881,-5.7881,-5.7881,-5.7881,-5.7881,-5.7881,-5.7881,-5.7881,-5.7881,-5.7881,-5.7881,-5.7881,-5.7881,-5.7881,-5.7881,-5.7881,-5.7881,-5.9058,-6.0044,-6.0759,-6.2002,-6.3338,-6.4288,-6.4857,-6.5454,-6.5887,-6.6434,-6.6809,-6.7011,-6.72,-6.7359,-6.747,-6.7552,-6.766,-6.7669,-6.7669,-6.7669,-6.7669,-6.7669,-6.7669,-6.7669,-6.7669,-6.7669,-6.7669,-6.7669,-6.7669,-6.7669,-6.7669,-6.7669,-6.7669,-6.7669,-6.7669,-6.7669,-6.7669,-6.7669,-6.7669,-6.7669,-6.7669,-6.7669,-6.7669,-6.7669,-6.7669,-6.7669,-6.7669,-6.7687,-6.776,-6.7816,-6.7889,-6.7962,-6.8017,-6.8091,-6.8091,-6.8054,-6.8072,-6.8091,-6.8072,-6.7981,-6.7889,-6.7724,-6.7669,-6.7669,-6.7669,-6.7669,-6.7669,-6.7669,-6.7669,-6.7669,-6.7669,-6.7669,-6.7669,-6.7669,-6.7669,-6.7669,-6.7669,-6.7669,-6.7669,-6.7669,-6.7669,-6.7669,-6.7669,-6.7669,-6.7669,-6.7669,-6.7705,-6.7742,-6.7981,-6.8421,-6.8495,-6.8531,-6.888,-6.9137,-5.7881,-5.7881,-5.7881,-5.7881,-5.7881,-5.7881,-5.7881,-5.7881,-5.7881,-5.7881,-5.7881,-5.7881,-5.7881,-5.7881,-5.7881,-5.7881,-5.7881,-5.7881,-5.7881,-5.7935,-5.8019,-5.9095,-6.012,-6.112,-6.2434,-6.3851,-6.4942,-6.5568,-6.6166,-6.6702,-6.7058,-6.7331,-6.7368,-6.7524,-6.7579,-6.7633,-6.766,-6.7687,-6.7687,-6.7669,-6.7669,-6.7669,-6.7669,-6.7669,-6.7669,-6.7669,-6.7669,-6.7669,-6.7669,-6.7669,-6.7669,-6.7669,-6.7669,-6.7669,-6.7669,-6.7669,-6.7669,-6.7669,-6.7669,-6.7669,-6.7669,-6.7669,-6.7669,-6.7669,-6.7669,-6.7705,-6.7724,-6.7797,-6.7889,-6.8017,-6.8385,-6.8568,-6.8733,-6.8898,-6.8953,-6.8972,-6.8953,-6.8953,-6.8972,-6.888,-6.877,-6.8183,-6.7981,-6.7669,-6.7669,-6.7669,-6.7669,-6.7669,-6.7669,-6.7669,-6.7669,-6.7669,-6.7669,-6.7669,-6.7669,-6.7669,-6.7669,-6.7669,-6.7669,-6.7669,-6.7669,-6.7669,-6.7669,-6.7669,-6.7669,-6.7669,-6.7669,-6.7724,-6.777,-6.844,-6.888,-6.8917,-6.9045,-6.9486,-7.0,-5.7881,-5.7881,-5.7881,-5.7881,-5.7881,-5.7881,-5.7881,-5.7881,-5.7881,-5.7881,-5.7881,-5.7881,-5.7881,-5.7881,-5.7881,-5.7881,-5.7881,-5.7881,-5.7881,-5.7969,-5.8279,-5.9431,-6.0493,-6.1722,-6.3206,-6.4556,-6.5568,-6.6246,-6.6772,-6.7238,-6.7597,-6.7552,-6.766,-6.7687,-6.7669,-6.7687,-6.7687,-6.7687,-6.7669,-6.7669,-6.7669,-6.7669,-6.7669,-6.7669,-6.7669,-6.7669,-6.7669,-6.7669,-6.7669,-6.7669,-6.7669,-6.7669,-6.7669,-6.7669,-6.7669,-6.7669,-6.7669,-6.7669,-6.7669,-6.7669,-6.7669,-6.7687,-6.7705,-6.7907,-6.7926,-6.7962,-6.8054,-6.8164,-6.8256,-6.844,-6.8953,-6.9431,-6.9706,-6.9981,-7.0,-7.0036,-7.0036,-7.0036,-6.9963,-6.9889,-6.9431,-6.877,-6.8311,-6.7944,-6.7669,-6.7669,-6.7669,-6.7669,-6.7669,-6.7669,-6.7669,-6.7669,-6.7669,-6.7669,-6.7669,-6.7669,-6.7669,-6.7669,-6.7669,-6.7669,-6.7669,-6.7669,-6.7669,-6.7669,-6.7669,-6.7669,-6.7687,-6.7752,-6.789,-6.8651,-6.9504,-6.9945,-7.0128,-7.0367,-7.0917,-5.7881,-5.7881,-5.7881,-5.7881,-5.7881,-5.7881,-5.7881,-5.7881,-5.7881,-5.7881,-5.7881,-5.7881,-5.7881,-5.7881,-5.7881,-5.7881,-5.7881,-5.7881,-5.7881,-5.7969,-5.8725,-5.9799,-6.1094,-6.2562,-6.3861,-6.5187,-6.6154,-6.6732,-6.7182,-6.7506,-6.766,-6.7669,-6.7669,-6.7669,-6.7669,-6.7669,-6.7669,-6.7669,-6.7669,-6.7669,-6.7669,-6.7669,-6.7669,-6.7669,-6.7669,-6.7669,-6.7669,-6.7669,-6.7669,-6.7669,-6.7669,-6.7669,-6.7669,-6.7669,-6.7669,-6.7669,-6.7669,-6.7669,-6.7669,-6.7669,-6.7669,-6.7705,-6.776,-6.8183,-6.8329,-6.8274,-6.8366,-6.8843,-6.9045,-6.9412,-6.9908,-7.0183,-7.044,-7.077,-7.0936,-7.0954,-7.0954,-7.0899,-7.077,-7.0532,-6.9834,-6.9192,-6.8586,-6.8201,-6.7687,-6.7669,-6.7669,-6.7669,-6.7669,-6.7669,-6.7669,-6.7669,-6.7669,-6.7669,-6.7669,-6.7669,-6.7669,-6.7669,-6.7669,-6.7669,-6.7669,-6.7669,-6.7669,-6.7669,-6.7669,-6.7669,-6.7705,-6.7743,-6.8119,-6.9146,-7.0018,-7.0907,-7.1238,-7.1274,-7.156,-5.7881,-5.7881,-5.7881,-5.7881,-5.7881,-5.7881,-5.7881,-5.7881,-5.7881,-5.7881,-5.7881,-5.7881,-5.7881,-5.7881,-5.7881,-5.7881,-5.7881,-5.7918,-5.7918,-5.8262,-5.8987,-6.0208,-6.1377,-6.296,-6.4402,-6.5609,-6.6524,-6.7126,-6.7451,-6.7642,-6.7669,-6.7669,-6.7669,-6.7669,-6.7669,-6.7669,-6.7669,-6.7669,-6.7669,-6.7669,-6.7669,-6.7669,-6.7669,-6.7669,-6.7669,-6.7669,-6.7669,-6.7669,-6.7669,-6.7669,-6.7669,-6.7669,-6.7669,-6.7669,-6.7669,-6.7669,-6.7669,-6.7669,-6.7724,-6.776,-6.7834,-6.7999,-6.8201,-6.8568,-6.8752,-6.866,-6.8917,-6.9504,-6.9981,-7.0385,-7.077,-7.0972,-7.1174,-7.1505,-7.1798,-7.1798,-7.1798,-7.1688,-7.1541,-7.0972,-7.0275,-6.9596,-6.8972,-6.8366,-6.7871,-6.7669,-6.7669,-6.7669,-6.7669,-6.7669,-6.7669,-6.7669,-6.7669,-6.7669,-6.7669,-6.7669,-6.7669,-6.7669,-6.7669,-6.7669,-6.7687,-6.7669,-6.7669,-6.7669,-6.7669,-6.776,-6.777,-6.7716,-6.8303,-6.955,-7.0688,-7.1615,-7.1945,-7.2018,-7.2202,-5.7881,-5.7881,-5.7881,-5.7881,-5.7881,-5.7881,-5.7881,-5.7881,-5.7881,-5.7881,-5.7881,-5.7881,-5.7881,-5.7881,-5.7881,-5.7918,-5.7918,-5.7991,-5.8044,-5.839,-5.9518,-6.0754,-6.2092,-6.3522,-6.503,-6.6319,-6.6964,-6.7479,-6.7669,-6.7669,-6.7669,-6.7669,-6.7669,-6.7669,-6.7669,-6.7669,-6.7669,-6.7669,-6.7669,-6.7669,-6.7669,-6.7669,-6.7669,-6.7669,-6.7669,-6.7669,-6.7669,-6.7669,-6.7669,-6.7669,-6.7669,-6.7669,-6.7669,-6.7669,-6.7669,-6.7669,-6.7669,-6.7687,-6.7816,-6.8017,-6.8201,-6.8458,-6.8953,-6.9467,-7.011,-7.011,-7.0128,-7.0624,-7.0642,-7.0991,-7.156,-7.1853,-7.1908,-7.2129,-7.2202,-7.222,-7.222,-7.2165,-7.2074,-7.1872,-7.0991,-6.9963,-6.9247,-6.8329,-6.7889,-6.7669,-6.7669,-6.7669,-6.7669,-6.7724,-6.7705,-6.7779,-6.7834,-6.7742,-6.7669,-6.7669,-6.7669,-6.7669,-6.7871,-6.7779,-6.7816,-6.7724,-6.7669,-6.7871,-6.7981,-6.7981,-6.799,-6.8055,-6.8963,-7.0302,-7.1358,-7.2378,-7.2524,-7.2514,-7.2514,-5.7881,-5.7881,-5.7881,-5.7881,-5.7881,-5.7881,-5.7881,-5.7881,-5.7881,-5.7881,-5.7881,-5.7881,-5.7881,-5.7881,-5.7881,-5.7918,-5.7991,-5.8152,-5.8224,-5.8886,-6.0393,-6.1362,-6.2769,-6.444,-6.5687,-6.6664,-6.7332,-6.7561,-6.7669,-6.7669,-6.7669,-6.7669,-6.7669,-6.7669,-6.7669,-6.7669,-6.7669,-6.7669,-6.7669,-6.7669,-6.7669,-6.7669,-6.7669,-6.7669,-6.7669,-6.7669,-6.7669,-6.7797,-6.7816,-6.7999,-6.8146,-6.8293,-6.8311,-6.8366,-6.8311,-6.8329,-6.8366,-6.8329,-6.8348,-6.8788,-6.8953,-6.9247,-6.9871,-7.0477,-7.1101,-7.1339,-7.1348,-7.1384,-7.1431,-7.1615,-7.2184,-7.2441,-7.2477,-7.2496,-7.2514,-7.2514,-7.2514,-7.2496,-7.2441,-7.2367,-7.1339,-7.022,-6.9357,-6.844,-6.7962,-6.7742,-6.7687,-6.7687,-6.7705,-6.7779,-6.7834,-6.7999,-6.8183,-6.8036,-6.7907,-6.7981,-6.8091,-6.8458,-6.866,-6.8256,-6.8072,-6.8421,-6.8531,-6.8329,-6.8403,-6.8623,-6.8642,-6.8733,-6.9824,-7.0926,-7.1743,-7.2488,-7.2524,-7.2514,-7.2514,-5.7881,-5.7881,-5.7881,-5.7881,-5.7881,-5.7881,-5.7881,-5.7881,-5.7881,-5.7881,-5.7881,-5.7881,-5.7881,-5.7881,-5.7881,-5.7954,-5.8152,-5.8331,-5.8649,-5.9168,-6.0595,-6.1689,-6.3066,-6.487,-6.6028,-6.6899,-6.7533,-6.7642,-6.7669,-6.7669,-6.7669,-6.7669,-6.7669,-6.7669,-6.7669,-6.7669,-6.7669,-6.7669,-6.7669,-6.7669,-6.7669,-6.7669,-6.7669,-6.7669,-6.7669,-6.7669,-6.7816,-6.8348,-6.8568,-6.8843,-6.9155,-6.9357,-6.9376,-6.9321,-6.9321,-6.9229,-6.9265,-6.9284,-6.9412,-6.9669,-6.9834,-6.9963,-7.055,-7.1101,-7.1596,-7.1945,-7.2,-7.211,-7.2129,-7.2129,-7.2496,-7.2496,-7.2514,-7.2514,-7.2514,-7.2514,-7.2514,-7.2441,-7.2349,-7.178,-7.0917,-7.0036,-6.9284,-6.8476,-6.7816,-6.7724,-6.7834,-6.7834,-6.7926,-6.7944,-6.8054,-6.8329,-6.8641,-6.8678,-6.8697,-6.8715,-6.8862,-6.9265,-6.9486,-6.9174,-6.9174,-6.9596,-6.9596,-6.9174,-6.9321,-6.9614,-6.9614,-6.9485,-7.0209,-7.1173,-7.1898,-7.2477,-7.2496,-7.2514,-7.2514]},{"header":{"parameterUnit":"m.s-1","parameterCategory":1,"la1":31.0,"la2":29.5877,"lo1":-88.7671,"lo2":-86.6584,"dy":0.0162,"dx":0.0185,"nx":115,"ny":88,"refTime":"2024-03-29T12:00:00:Z","depth":0,"parameterNumber":3,"parameterNumberName":"V-component_of_WINDS"},"data":[0.0,0.0,0.0,0.0,0.0,0.0,0.0,0.0,0.0,0.0,0.0,0.0,0.0,0.0,0.0,0.0,0.0,0.0,0.0,0.0,0.0,0.0,0.0,0.0,0.0,0.0,0.0,0.0,0.0,0.0,0.0,0.0,0.0,0.0,0.0,0.0,0.0,0.0,0.0,0.0,0.0,0.0,0.0,0.0,0.0,0.0,0.0,0.0,0.0,0.0,0.0,0.0,0.0,0.0,0.0,0.0,0.0,0.0,0.0,0.0,0.0,0.0,0.0,0.0,0.0,0.0,0.0,0.0,0.0,0.0,0.0,0.0,0.0,0.0,0.0,0.0,0.0,0.0,0.0,0.0,0.0,0.0,0.0,0.0,0.0,0.0,0.0,0.0,0.0,0.0,0.0,0.0,0.0,0.0,0.0,0.0,0.0,0.0,0.0,0.0,0.0,0.0,0.0,0.0,0.0,0.0,0.0,0.0,0.0,0.0,0.0,0.0,0.0,0.0,0.0,0.0,0.0,0.0,0.0,0.0,0.0,0.0,0.0,0.0,0.0,0.0,0.0,0.0,0.0,0.0,0.0,0.0,0.0,0.0,0.0,0.0,0.0,0.0,0.0,0.0,0.0,0.0,0.0,0.0,0.0,0.0,0.0,0.0,0.0,0.0,0.0,0.0,0.0,0.0,0.0,0.0,0.0,0.0,0.0,0.0,0.0,0.0,0.0,0.0,0.0,0.0,0.0,0.0,0.0,0.0,0.0,0.0,0.0,0.0,0.0,0.0,0.0,0.0,0.0,0.0,0.0,0.0,0.0,0.0,0.0,0.0,0.0,0.0,0.0,0.0,0.0,0.0,0.0,0.0,0.0,0.0,0.0,0.0,0.0,0.0,0.0,0.0,0.0,0.0,0.0,0.0,0.0,0.0,0.0,0.0,0.0,0.0,0.0,0.0,0.0,0.0,0.0,0.0,0.0,0.0,0.0,0.0,0.0,0.0,0.0,0.0,0.0,0.0,0.0,0.0,0.0,0.0,0.0,0.0,0.0,0.0,0.0,0.0,0.0,0.0,0.0,0.0,0.0,0.0,0.0,0.0,0.0,0.0,0.0,0.0,0.0,0.0,0.0,0.0,0.0,0.0,0.0,0.0,0.0,0.0,0.0,0.0,0.0,0.0,0.0,0.0,0.0,0.0,0.0,0.0,0.0,0.0,0.0,0.0,0.0,0.0,0.0,0.0,0.0,0.0,0.0,0.0,0.0,0.0,0.0,0.0,0.0,0.0,0.0,0.0,0.0,0.0,0.0,0.0,0.0,0.0,0.0,0.0,0.0,0.0,0.0,0.0,0.0,0.0,0.0,0.0,0.0,0.0,0.0,0.0,0.0,0.0,0.0,0.0,0.0,0.0,0.0,0.0,0.0,0.0,0.0,0.0,0.0,0.0,0.0,0.0,0.0,0.0,0.0,0.0,0.0,0.0,0.0,0.0,0.0,0.0,0.0,0.0,0.0,0.0,0.0,0.0,0.0,0.0,0.0,0.0,0.0,0.0,0.0,0.0,0.0,0.0,0.0,0.0,0.0,0.0,0.0,0.0,0.0,0.0,0.0,0.0,0.0,0.0,0.0,0.0,0.0,0.0,0.0,0.0,0.0,0.0,0.0,0.0,0.0,0.0,0.0,0.0,0.0,0.0,0.0,0.0,0.0,0.0,0.0,0.0,0.0,0.0,0.0,0.0,0.0,0.0,0.0,0.0,0.0,0.0,0.0,0.0,0.0,0.0,0.0,0.0,0.0,0.0,0.0,0.0,0.0,0.0,0.0,0.0,0.0,0.0,0.0,0.0,0.0,0.0,0.0,0.0,0.0,0.0,0.0,0.0,0.0,0.0,0.0,0.0,0.0,0.0,0.0,0.0,0.0,0.0,0.0,0.0,0.0,0.0,0.0,0.0,0.0,0.0,0.0,0.0,0.0,0.0,0.0,0.0,0.0,0.0,0.0,0.0,0.0,0.0,0.0,0.0,0.0,0.0,0.0,0.0,0.0,0.0,0.0,0.0,0.0,0.0,0.0,0.0,0.0,0.0,0.0,0.0,0.0,0.0,0.0,0.0,0.0,0.0,0.0,0.0,0.0,0.0,0.0,0.0,0.0,0.0,0.0,0.0,0.0,0.0,0.0,0.0,0.0,0.0,0.0,0.0,0.0,0.0,0.0,0.0,0.0,0.0,0.0,0.0,0.0,0.0,0.0,0.0,0.0,0.0,0.0,0.0,0.0,0.0,0.0,0.0,0.0,0.0,0.0,0.0,0.0,0.0,0.0,0.0,0.0,0.0,0.0,0.0,0.0,0.0,0.0,0.0,0.0,0.0,0.0,0.0,0.0,0.0,0.0,0.0,0.0,0.0,0.0,0.0,0.0,0.0,0.0,0.0,0.0,0.0,0.0,0.0,0.0,0.0,0.0,0.0,0.0,0.0,0.0,0.0,0.0,0.0,0.0,0.0,0.0,0.0,0.0,0.0,0.0,0.0,0.0,0.0,0.0,0.0,0.0,0.0,0.0,0.0,0.0,0.0,0.0,0.0,0.0,0.0,0.0,0.0,0.0,0.0,0.0,0.0,0.0,0.0,0.0,0.0,0.0,0.0,0.0,0.0,0.0,0.0,0.0,0.0,0.0,0.0,0.0,0.0,0.0,0.0,0.0,0.0,0.0,0.0,0.0,0.0,0.0,0.0,0.0,0.0,0.0,0.0,0.0,0.0,0.0,0.0,0.0,0.0,0.0,0.0,0.0,0.0,0.0,0.0,0.0,0.0,0.0,0.0,0.0,0.0,0.0,0.0,0.0,0.0,0.0,0.0,0.0,0.0,0.0,0.0,0.0,0.0,0.0,0.0,0.0,0.0,0.0,0.0,0.0,0.0,0.0,0.0,0.0,0.0,0.0,0.0,0.0,0.0,0.0,0.0,0.0,0.0,0.0,0.0,0.0,0.0,0.0,0.0,0.0,0.0,0.0,0.0,0.0,0.0,0.0,0.0,0.0,0.0,0.0,0.0,0.0,0.0,0.0,0.0,0.0,0.0,0.0,0.0,0.0,0.0,0.0,0.0,0.0,0.0,0.0,0.0,0.0,0.0,0.0,0.0,0.0,0.0,0.0,0.0,0.0,0.0,0.0,0.0,0.0,0.0,0.0,0.0,0.0,0.0,0.0,0.0,0.0,0.0,0.0,0.0,0.0,0.0,0.0,0.0,0.0,0.0,0.0,0.0,0.0,0.0,0.0,0.0,0.0,0.0,0.0,0.0,0.0,0.0,0.0,0.0,0.0,0.0,0.0,0.0,0.0,0.0,0.0,0.0,0.0,0.0,0.0,0.0,0.0,0.0,0.0,0.0,0.0,0.0,0.0,0.0,0.0,0.0,0.0,0.0,0.0,0.0,0.0,0.0,0.0,0.0,0.0,0.0,0.0,0.0,0.0,0.0,0.0,0.0,0.0,0.0,0.0,0.0,0.0,0.0,0.0,0.0,0.0,0.0,0.0,0.0,0.0,0.0,0.0,0.0,0.0,0.0,0.0,0.0,0.0,0.0,0.0,0.0,0.0,0.0,0.0,0.0,0.0,0.0,0.0,0.0,0.0,0.0,0.0,0.0,0.0,0.0,0.0,0.0,0.0,0.0,0.0,0.0,0.0,0.0,0.0,0.0,0.0,0.0,0.0,0.0,0.0,0.0,0.0,0.0,0.0,0.0,0.0,0.0,0.0,0.0,0.0,0.0,0.0,0.0,0.0,0.0,0.0,0.0,0.0,0.0,0.0,0.0,0.0,0.0,0.0,0.0,0.0,0.0,0.0,0.0,0.0,0.0,0.0,0.0,0.0,0.0,0.0,0.0,0.0,0.0,0.0,0.0,0.0,0.0,0.0,0.0,0.0,0.0,0.0,0.0,0.0,0.0,0.0,0.0,0.0,0.0,0.0,0.0,0.0,0.0,0.0,0.0,0.0,0.0,0.0,0.0,0.0,0.0,0.0,0.0,0.0,0.0,0.0,0.0,0.0,0.0,0.0,0.0,0.0,0.0,0.0,0.0,0.0,0.0,0.0,0.0,0.0,0.0,0.0,0.0,0.0,0.0,0.0,0.0,0.0,0.0,0.0,0.0,0.0,0.0,0.0,0.0,0.0,0.0,0.0,0.0,0.0,0.0,0.0,0.0,0.0,0.0,0.0,0.0,0.0,0.0,0.0,0.0,0.0,0.0,0.0,0.0,0.0,0.0,0.0,0.0,-3.0898,0.0,0.0,0.0,-3.0801,0.0,0.0,0.0,0.0,0.0,0.0,0.0,0.0,0.0,0.0,0.0,0.0,0.0,0.0,0.0,0.0,0.0,0.0,0.0,0.0,0.0,0.0,0.0,0.0,0.0,0.0,0.0,0.0,0.0,0.0,0.0,0.0,0.0,0.0,0.0,0.0,0.0,0.0,0.0,0.0,0.0,0.0,0.0,0.0,0.0,0.0,0.0,0.0,0.0,0.0,0.0,0.0,0.0,0.0,0.0,0.0,0.0,0.0,0.0,0.0,0.0,0.0,0.0,0.0,0.0,0.0,0.0,0.0,0.0,0.0,0.0,0.0,0.0,0.0,0.0,0.0,0.0,0.0,0.0,0.0,0.0,0.0,0.0,0.0,0.0,0.0,0.0,0.0,0.0,0.0,0.0,0.0,0.0,0.0,0.0,0.0,0.0,0.0,0.0,0.0,0.0,0.0,0.0,0.0,0.0,0.0,0.0,0.0,0.0,0.0,-3.0898,-3.0898,-3.0898,-3.0898,-3.0898,0.0,0.0,0.0,0.0,0.0,0.0,0.0,0.0,0.0,0.0,0.0,0.0,0.0,0.0,0.0,0.0,0.0,0.0,0.0,0.0,0.0,0.0,0.0,0.0,0.0,0.0,0.0,0.0,0.0,0.0,0.0,0.0,0.0,0.0,0.0,0.0,0.0,0.0,0.0,0.0,0.0,0.0,0.0,0.0,0.0,0.0,0.0,0.0,0.0,0.0,0.0,0.0,0.0,0.0,0.0,0.0,0.0,0.0,0.0,0.0,0.0,0.0,0.0,0.0,0.0,0.0,0.0,0.0,0.0,0.0,0.0,0.0,0.0,0.0,0.0,0.0,0.0,0.0,0.0,0.0,0.0,0.0,0.0,0.0,0.0,0.0,0.0,0.0,0.0,0.0,0.0,0.0,0.0,0.0,0.0,0.0,0.0,0.0,0.0,0.0,0.0,0.0,0.0,0.0,0.0,0.0,0.0,0.0,0.0,0.0,0.0,0.0,-3.0898,-3.0898,-3.0889,0.0,0.0,0.0,0.0,0.0,0.0,0.0,0.0,0.0,0.0,0.0,0.0,0.0,0.0,0.0,0.0,0.0,0.0,0.0,0.0,0.0,0.0,0.0,0.0,0.0,0.0,0.0,0.0,0.0,0.0,0.0,0.0,0.0,0.0,0.0,0.0,0.0,0.0,0.0,0.0,0.0,0.0,0.0,0.0,0.0,0.0,0.0,0.0,0.0,0.0,0.0,0.0,0.0,0.0,0.0,0.0,0.0,0.0,0.0,0.0,0.0,0.0,0.0,0.0,0.0,0.0,0.0,0.0,0.0,0.0,0.0,0.0,0.0,0.0,0.0,0.0,0.0,0.0,0.0,0.0,0.0,0.0,0.0,0.0,0.0,0.0,0.0,0.0,0.0,0.0,0.0,0.0,0.0,0.0,0.0,0.0,0.0,0.0,0.0,0.0,0.0,0.0,0.0,0.0,0.0,0.0,0.0,0.0,0.0,0.0,-3.0898,-3.0898,-3.0898,0.0,-3.0869,0.0,0.0,0.0,0.0,0.0,0.0,0.0,0.0,0.0,0.0,0.0,0.0,0.0,0.0,0.0,0.0,0.0,0.0,0.0,0.0,0.0,0.0,0.0,0.0,0.0,0.0,0.0,0.0,0.0,0.0,0.0,0.0,0.0,0.0,0.0,0.0,0.0,0.0,0.0,0.0,0.0,0.0,0.0,0.0,0.0,0.0,0.0,0.0,0.0,0.0,0.0,0.0,0.0,0.0,0.0,0.0,0.0,0.0,0.0,0.0,0.0,0.0,0.0,0.0,0.0,0.0,0.0,0.0,0.0,0.0,0.0,0.0,0.0,0.0,0.0,0.0,0.0,0.0,0.0,0.0,0.0,0.0,0.0,0.0,0.0,0.0,0.0,0.0,0.0,0.0,0.0,0.0,0.0,0.0,0.0,0.0,0.0,0.0,0.0,0.0,0.0,0.0,0.0,0.0,0.0,0.0,0.0,0.0,0.0,0.0,-3.0898,-3.0898,-3.0898,-3.0762,0.0,0.0,0.0,0.0,0.0,0.0,0.0,0.0,0.0,0.0,0.0,0.0,0.0,0.0,0.0,0.0,0.0,0.0,0.0,0.0,0.0,0.0,0.0,0.0,0.0,0.0,0.0,0.0,0.0,0.0,0.0,0.0,0.0,0.0,0.0,0.0,0.0,0.0,0.0,0.0,0.0,0.0,0.0,0.0,0.0,0.0,0.0,0.0,0.0,0.0,0.0,0.0,0.0,0.0,0.0,0.0,0.0,0.0,0.0,0.0,0.0,0.0,0.0,0.0,0.0,0.0,0.0,0.0,0.0,0.0,0.0,0.0,0.0,0.0,0.0,0.0,0.0,0.0,0.0,0.0,0.0,0.0,0.0,0.0,0.0,0.0,0.0,0.0,0.0,0.0,0.0,0.0,0.0,0.0,0.0,0.0,0.0,0.0,0.0,0.0,0.0,0.0,0.0,0.0,0.0,0.0,0.0,0.0,0.0,0.0,-3.082,-3.0898,-3.0898,-3.0898,-3.0674,-3.0215,0.0,0.0,0.0,0.0,0.0,0.0,0.0,0.0,0.0,0.0,0.0,0.0,0.0,0.0,0.0,0.0,0.0,0.0,0.0,0.0,0.0,0.0,0.0,0.0,0.0,0.0,0.0,0.0,0.0,0.0,0.0,0.0,0.0,0.0,0.0,0.0,0.0,0.0,0.0,0.0,0.0,0.0,0.0,0.0,0.0,0.0,0.0,0.0,0.0,0.0,0.0,0.0,0.0,0.0,0.0,0.0,0.0,0.0,0.0,0.0,0.0,0.0,0.0,0.0,0.0,0.0,0.0,0.0,0.0,0.0,0.0,0.0,0.0,0.0,0.0,0.0,0.0,0.0,0.0,0.0,0.0,0.0,0.0,0.0,0.0,0.0,0.0,0.0,0.0,0.0,0.0,0.0,0.0,0.0,0.0,0.0,0.0,0.0,0.0,0.0,0.0,0.0,0.0,0.0,0.0,0.0,0.0,0.0,-3.0244,-3.0664,-3.0898,-3.0898,-3.0889,-3.0674,0.0,0.0,0.0,0.0,0.0,0.0,0.0,0.0,0.0,0.0,0.0,0.0,0.0,0.0,0.0,0.0,0.0,0.0,0.0,0.0,0.0,0.0,0.0,0.0,0.0,0.0,0.0,0.0,0.0,0.0,0.0,0.0,0.0,0.0,0.0,0.0,0.0,0.0,0.0,0.0,0.0,0.0,0.0,0.0,0.0,0.0,0.0,0.0,0.0,0.0,0.0,0.0,0.0,0.0,0.0,0.0,0.0,0.0,0.0,0.0,0.0,0.0,0.0,0.0,0.0,0.0,0.0,0.0,0.0,0.0,0.0,0.0,0.0,0.0,0.0,0.0,0.0,0.0,0.0,0.0,0.0,0.0,0.0,0.0,0.0,0.0,0.0,0.0,0.0,0.0,0.0,0.0,0.0,0.0,0.0,0.0,0.0,0.0,0.0,0.0,0.0,0.0,0.0,0.0,0.0,0.0,0.0,0.0,0.0,-3.0205,-3.0644,-3.0898,-3.0879,-3.0605,-3.0234,0.0,0.0,0.0,0.0,0.0,0.0,0.0,0.0,0.0,0.0,0.0,0.0,0.0,0.0,0.0,0.0,0.0,0.0,0.0,0.0,0.0,0.0,0.0,0.0,0.0,0.0,0.0,0.0,0.0,0.0,0.0,0.0,0.0,0.0,0.0,0.0,0.0,0.0,0.0,0.0,0.0,0.0,0.0,0.0,0.0,0.0,0.0,0.0,0.0,0.0,0.0,0.0,0.0,0.0,0.0,0.0,0.0,0.0,0.0,0.0,0.0,0.0,0.0,0.0,0.0,0.0,0.0,0.0,0.0,0.0,0.0,0.0,0.0,0.0,0.0,0.0,0.0,0.0,0.0,0.0,0.0,0.0,0.0,0.0,0.0,0.0,0.0,0.0,0.0,0.0,0.0,0.0,0.0,0.0,0.0,0.0,0.0,0.0,0.0,0.0,0.0,0.0,0.0,0.0,0.0,0.0,0.0,0.0,0.0,-3.04,0.0,-3.0898,-3.0879,-3.0439,-3.0,0.0,0.0,0.0,0.0,0.0,0.0,0.0,0.0,0.0,0.0,0.0,0.0,0.0,0.0,0.0,0.0,0.0,0.0,0.0,0.0,0.0,0.0,0.0,0.0,0.0,0.0,0.0,0.0,0.0,0.0,0.0,0.0,0.0,0.0,0.0,0.0,0.0,0.0,0.0,0.0,0.0,0.0,0.0,0.0,0.0,0.0,0.0,0.0,0.0,0.0,0.0,0.0,0.0,0.0,0.0,0.0,0.0,0.0,0.0,0.0,0.0,0.0,0.0,0.0,0.0,0.0,0.0,0.0,0.0,0.0,0.0,0.0,0.0,0.0,0.0,0.0,0.0,0.0,0.0,0.0,0.0,0.0,0.0,0.0,0.0,0.0,0.0,0.0,0.0,0.0,0.0,0.0,0.0,0.0,0.0,0.0,0.0,0.0,0.0,0.0,0.0,0.0,0.0,0.0,0.0,0.0,0.0,0.0,-3.0,-3.085,-3.0898,-3.0928,-3.0889,-3.0469,-3.001,0.0,0.0,0.0,0.0,0.0,0.0,0.0,0.0,0.0,0.0,0.0,0.0,0.0,0.0,0.0,0.0,0.0,0.0,0.0,0.0,0.0,0.0,0.0,0.0,0.0,0.0,0.0,0.0,0.0,0.0,0.0,0.0,0.0,0.0,0.0,0.0,0.0,0.0,0.0,0.0,0.0,0.0,0.0,0.0,0.0,0.0,0.0,0.0,0.0,0.0,0.0,0.0,0.0,0.0,0.0,0.0,0.0,0.0,0.0,0.0,0.0,0.0,0.0,0.0,0.0,0.0,0.0,0.0,0.0,0.0,0.0,0.0,0.0,0.0,0.0,0.0,0.0,0.0,0.0,0.0,0.0,0.0,0.0,0.0,0.0,0.0,0.0,0.0,0.0,0.0,0.0,0.0,0.0,0.0,0.0,0.0,0.0,0.0,0.0,0.0,0.0,0.0,0.0,0.0,0.0,0.0,0.0,0.0,0.0,-3.1289,-3.1328,-3.1318,-3.1318,-3.0898,-3.0332,0.0,0.0,0.0,0.0,0.0,0.0,0.0,0.0,0.0,0.0,0.0,0.0,0.0,0.0,0.0,0.0,0.0,0.0,0.0,0.0,0.0,0.0,0.0,0.0,0.0,0.0,0.0,0.0,0.0,0.0,0.0,0.0,0.0,0.0,0.0,0.0,0.0,0.0,0.0,0.0,0.0,0.0,0.0,0.0,0.0,0.0,0.0,0.0,0.0,0.0,0.0,0.0,0.0,0.0,0.0,0.0,0.0,0.0,0.0,0.0,0.0,0.0,0.0,0.0,0.0,0.0,0.0,0.0,0.0,0.0,0.0,0.0,0.0,0.0,0.0,0.0,0.0,0.0,0.0,0.0,0.0,0.0,0.0,0.0,0.0,0.0,0.0,0.0,0.0,0.0,0.0,0.0,0.0,0.0,0.0,0.0,0.0,0.0,0.0,0.0,0.0,0.0,0.0,0.0,0.0,0.0,0.0,0.0,0.0,-3.1934,-3.1836,-3.1758,-3.1768,-3.1201,-3.0547,-2.9834,0.0,0.0,0.0,0.0,0.0,0.0,0.0,0.0,0.0,0.0,0.0,0.0,0.0,0.0,0.0,0.0,0.0,0.0,0.0,0.0,0.0,0.0,0.0,0.0,0.0,0.0,0.0,0.0,0.0,0.0,0.0,0.0,0.0,0.0,0.0,0.0,0.0,0.0,0.0,0.0,0.0,0.0,0.0,0.0,0.0,0.0,0.0,0.0,0.0,0.0,0.0,0.0,0.0,0.0,0.0,0.0,0.0,0.0,0.0,0.0,0.0,0.0,0.0,0.0,0.0,0.0,0.0,0.0,0.0,0.0,0.0,0.0,0.0,0.0,0.0,0.0,0.0,0.0,0.0,0.0,0.0,0.0,0.0,0.0,0.0,0.0,0.0,0.0,0.0,0.0,0.0,0.0,0.0,0.0,0.0,0.0,0.0,0.0,0.0,0.0,0.0,0.0,0.0,0.0,0.0,0.0,0.0,0.0,-3.2803,-3.2461,-3.2275,-3.2236,-3.1455,-3.0762,0.0,0.0,0.0,0.0,0.0,0.0,0.0,0.0,0.0,0.0,0.0,0.0,0.0,0.0,0.0,0.0,0.0,0.0,0.0,0.0,0.0,0.0,0.0,0.0,0.0,0.0,0.0,0.0,0.0,0.0,0.0,0.0,0.0,0.0,0.0,0.0,0.0,0.0,0.0,0.0,0.0,0.0,0.0,0.0,0.0,0.0,0.0,0.0,0.0,0.0,0.0,0.0,0.0,0.0,0.0,0.0,0.0,0.0,0.0,0.0,0.0,0.0,0.0,0.0,0.0,0.0,0.0,0.0,0.0,0.0,0.0,0.0,0.0,0.0,0.0,0.0,0.0,0.0,0.0,0.0,0.0,0.0,0.0,0.0,0.0,0.0,0.0,0.0,0.0,0.0,0.0,0.0,0.0,0.0,0.0,0.0,0.0,0.0,0.0,0.0,0.0,0.0,0.0,0.0,0.0,0.0,0.0,0.0,0.0,-3.3193,-3.3467,-3.3418,-3.3096,-3.2578,-3.1797,0.0,0.0,0.0,0.0,0.0,0.0,0.0,0.0,0.0,0.0,0.0,0.0,0.0,0.0,0.0,0.0,0.0,0.0,0.0,0.0,0.0,0.0,0.0,0.0,0.0,0.0,0.0,0.0,0.0,0.0,0.0,0.0,0.0,0.0,0.0,0.0,0.0,0.0,0.0,0.0,0.0,0.0,0.0,0.0,0.0,0.0,0.0,0.0,0.0,0.0,0.0,0.0,0.0,0.0,0.0,0.0,0.0,0.0,0.0,0.0,0.0,0.0,0.0,0.0,0.0,0.0,0.0,0.0,0.0,0.0,0.0,0.0,0.0,0.0,0.0,0.0,0.0,0.0,0.0,0.0,0.0,0.0,0.0,0.0,0.0,0.0,0.0,0.0,0.0,0.0,0.0,0.0,0.0,0.0,0.0,0.0,0.0,0.0,0.0,0.0,0.0,0.0,0.0,0.0,0.0,0.0,0.0,0.0,-3.2412,-3.3672,-3.4297,-3.4512,-3.4258,-3.3467,-3.2539,0.0,0.0,0.0,0.0,0.0,0.0,0.0,0.0,0.0,0.0,0.0,0.0,0.0,0.0,0.0,0.0,0.0,0.0,0.0,0.0,0.0,0.0,0.0,0.0,0.0,0.0,0.0,0.0,0.0,0.0,0.0,0.0,0.0,0.0,0.0,0.0,0.0,0.0,0.0,0.0,0.0,0.0,0.0,0.0,0.0,0.0,0.0,0.0,0.0,0.0,0.0,0.0,0.0,0.0,0.0,0.0,0.0,0.0,0.0,0.0,0.0,0.0,0.0,0.0,0.0,0.0,0.0,0.0,0.0,0.0,0.0,0.0,0.0,0.0,0.0,0.0,0.0,0.0,0.0,0.0,0.0,0.0,0.0,0.0,0.0,0.0,0.0,0.0,0.0,0.0,0.0,0.0,0.0,0.0,0.0,0.0,0.0,0.0,0.0,0.0,0.0,0.0,0.0,0.0,0.0,0.0,0.0,0.0,-3.2842,-3.4121,-3.4961,-3.541,-3.541,-3.4189,-3.3096,0.0,0.0,0.0,0.0,0.0,0.0,0.0,0.0,0.0,0.0,0.0,0.0,0.0,0.0,0.0,0.0,0.0,0.0,0.0,0.0,0.0,0.0,0.0,0.0,0.0,0.0,0.0,0.0,0.0,0.0,0.0,0.0,0.0,0.0,0.0,0.0,0.0,0.0,0.0,0.0,0.0,0.0,0.0,0.0,0.0,0.0,0.0,0.0,0.0,0.0,0.0,0.0,0.0,0.0,0.0,0.0,0.0,0.0,0.0,0.0,0.0,0.0,0.0,0.0,0.0,0.0,0.0,0.0,0.0,0.0,0.0,0.0,0.0,0.0,0.0,0.0,0.0,0.0,0.0,0.0,0.0,0.0,0.0,0.0,0.0,0.0,0.0,0.0,0.0,0.0,0.0,0.0,0.0,0.0,0.0,0.0,0.0,0.0,0.0,0.0,0.0,0.0,0.0,0.0,0.0,0.0,0.0,0.0,-3.3281,-3.4531,-3.5107,-3.5547,-3.5879,-3.4619,-3.3535,0.0,0.0,0.0,0.0,0.0,0.0,0.0,0.0,0.0,0.0,0.0,0.0,0.0,0.0,0.0,0.0,0.0,0.0,0.0,0.0,0.0,0.0,0.0,0.0,0.0,0.0,0.0,0.0,0.0,0.0,0.0,0.0,0.0,0.0,0.0,0.0,0.0,0.0,0.0,0.0,0.0,0.0,0.0,0.0,0.0,0.0,0.0,0.0,-3.0004,0.0,0.0,0.0,0.0,0.0,0.0,0.0,0.0,0.0,0.0,0.0,0.0,0.0,0.0,0.0,0.0,0.0,0.0,0.0,0.0,0.0,0.0,0.0,0.0,0.0,0.0,0.0,0.0,0.0,0.0,0.0,0.0,0.0,0.0,0.0,0.0,0.0,0.0,0.0,0.0,0.0,0.0,0.0,0.0,0.0,0.0,0.0,0.0,0.0,0.0,0.0,0.0,0.0,0.0,0.0,0.0,0.0,0.0,0.0,-3.3828,-3.4687,-3.5342,-3.5791,-3.5967,-3.4941,-3.3965,0.0,0.0,0.0,0.0,0.0,0.0,0.0,0.0,0.0,0.0,0.0,0.0,0.0,0.0,0.0,0.0,0.0,0.0,0.0,0.0,0.0,0.0,0.0,0.0,0.0,0.0,0.0,0.0,0.0,0.0,0.0,0.0,0.0,0.0,0.0,0.0,0.0,0.0,0.0,0.0,0.0,0.0,0.0,0.0,0.0,0.0,0.0,0.0,0.0,0.0,0.0,0.0,0.0,0.0,0.0,0.0,0.0,0.0,0.0,0.0,0.0,0.0,0.0,0.0,0.0,0.0,0.0,0.0,0.0,0.0,0.0,0.0,0.0,0.0,0.0,0.0,0.0,0.0,0.0,0.0,0.0,0.0,0.0,0.0,0.0,0.0,0.0,0.0,0.0,0.0,0.0,0.0,0.0,0.0,0.0,0.0,0.0,0.0,0.0,0.0,0.0,0.0,0.0,0.0,0.0,0.0,0.0,-3.3057,-3.4316,-3.4814,-3.5605,-3.6025,-3.6006,-3.5156,-3.4297,-3.3437,0.0,0.0,0.0,0.0,0.0,0.0,0.0,0.0,0.0,0.0,0.0,0.0,0.0,0.0,0.0,0.0,0.0,0.0,0.0,0.0,0.0,0.0,0.0,0.0,0.0,0.0,0.0,0.0,0.0,0.0,0.0,0.0,0.0,0.0,0.0,0.0,0.0,0.0,-3.1474,-3.2029,0.0,0.0,0.0,0.0,0.0,0.0,0.0,0.0,-3.0419,0.0,0.0,0.0,0.0,0.0,0.0,0.0,0.0,0.0,0.0,0.0,0.0,0.0,0.0,0.0,0.0,0.0,0.0,0.0,0.0,0.0,0.0,0.0,0.0,0.0,0.0,0.0,0.0,0.0,0.0,0.0,0.0,0.0,0.0,0.0,0.0,0.0,0.0,0.0,0.0,0.0,0.0,0.0,0.0,0.0,0.0,0.0,0.0,0.0,0.0,0.0,0.0,0.0,0.0,0.0,0.0,-3.2013,-3.3359,-3.4463,-3.5264,-3.5762,-3.6025,-3.6006,-3.5166,-3.4297,-3.3408,0.0,0.0,0.0,0.0,0.0,0.0,0.0,0.0,0.0,0.0,0.0,0.0,0.0,0.0,0.0,0.0,0.0,0.0,0.0,0.0,0.0,0.0,0.0,0.0,0.0,0.0,0.0,0.0,0.0,0.0,0.0,0.0,0.0,0.0,0.0,0.0,0.0,0.0,0.0,-3.2512,-3.2593,0.0,0.0,0.0,0.0,0.0,0.0,0.0,0.0,-3.1469,0.0,0.0,0.0,0.0,0.0,0.0,0.0,0.0,0.0,0.0,0.0,0.0,0.0,0.0,0.0,0.0,0.0,0.0,0.0,0.0,0.0,0.0,0.0,0.0,0.0,0.0,0.0,0.0,0.0,0.0,0.0,0.0,0.0,0.0,0.0,0.0,0.0,0.0,0.0,0.0,0.0,0.0,0.0,0.0,0.0,0.0,0.0,0.0,0.0,0.0,0.0,0.0,0.0,0.0,0.0,-3.2187,-3.3643,-3.4726,-3.5371,-3.5801,-3.5918,-3.5693,-3.5049,-3.4199,0.0,0.0,0.0,0.0,0.0,0.0,0.0,0.0,0.0,0.0,0.0,0.0,0.0,0.0,0.0,0.0,0.0,0.0,0.0,0.0,0.0,0.0,0.0,0.0,0.0,0.0,0.0,0.0,0.0,0.0,0.0,0.0,0.0,0.0,0.0,0.0,0.0,0.0,0.0,0.0,-3.2654,-3.281,-3.2572,0.0,0.0,0.0,0.0,0.0,0.0,-3.107,-3.1064,0.0,0.0,0.0,0.0,0.0,0.0,0.0,0.0,0.0,0.0,0.0,0.0,0.0,0.0,0.0,0.0,0.0,0.0,0.0,0.0,0.0,0.0,0.0,0.0,0.0,0.0,0.0,0.0,0.0,0.0,0.0,0.0,0.0,0.0,0.0,0.0,0.0,0.0,0.0,0.0,0.0,0.0,0.0,0.0,0.0,0.0,0.0,0.0,0.0,0.0,0.0,0.0,0.0,0.0,0.0,-3.2432,-3.3916,-3.4961,-3.5498,-3.585,-3.582,-3.54,-3.4941,-3.4062,0.0,0.0,0.0,0.0,0.0,0.0,0.0,0.0,0.0,0.0,0.0,0.0,0.0,0.0,0.0,0.0,0.0,0.0,0.0,0.0,0.0,0.0,0.0,0.0,0.0,0.0,0.0,0.0,0.0,0.0,0.0,0.0,0.0,0.0,0.0,0.0,0.0,0.0,0.0,0.0,0.0,-3.2974,-3.2844,-3.1959,0.0,0.0,0.0,0.0,-3.0839,-3.0508,0.0,0.0,0.0,0.0,0.0,0.0,0.0,0.0,0.0,0.0,0.0,0.0,0.0,0.0,0.0,0.0,0.0,0.0,0.0,0.0,0.0,0.0,0.0,0.0,0.0,0.0,0.0,0.0,0.0,0.0,0.0,0.0,0.0,0.0,0.0,0.0,0.0,0.0,0.0,0.0,0.0,0.0,0.0,0.0,0.0,0.0,0.0,0.0,0.0,0.0,0.0,0.0,0.0,0.0,0.0,0.0,-3.3242,-3.4219,-3.5098,-3.5898,-3.5996,-3.583,-3.54,-3.4951,-3.3926,0.0,0.0,0.0,0.0,0.0,0.0,0.0,0.0,0.0,0.0,0.0,0.0,0.0,0.0,0.0,0.0,0.0,0.0,0.0,0.0,0.0,0.0,0.0,0.0,0.0,0.0,0.0,0.0,0.0,0.0,0.0,0.0,0.0,0.0,0.0,0.0,0.0,0.0,0.0,0.0,0.0,-3.2804,-3.1924,-3.1614,-3.1123,0.0,0.0,-2.9982,-3.0413,-3.0151,0.0,0.0,0.0,0.0,0.0,0.0,0.0,0.0,0.0,0.0,0.0,0.0,0.0,0.0,0.0,0.0,0.0,0.0,0.0,0.0,0.0,0.0,0.0,0.0,0.0,0.0,0.0,0.0,0.0,0.0,0.0,0.0,0.0,0.0,0.0,0.0,0.0,0.0,0.0,0.0,0.0,0.0,0.0,0.0,0.0,0.0,0.0,0.0,0.0,0.0,0.0,0.0,0.0,0.0,0.0,-3.1728,-3.3379,-3.4258,-3.5127,-3.5976,-3.6025,-3.582,-3.54,-3.4941,-3.4014,0.0,0.0,0.0,0.0,0.0,0.0,0.0,0.0,0.0,0.0,0.0,0.0,0.0,0.0,0.0,0.0,0.0,0.0,0.0,0.0,0.0,0.0,0.0,0.0,0.0,0.0,0.0,0.0,0.0,0.0,0.0,0.0,0.0,0.0,0.0,0.0,0.0,0.0,0.0,0.0,0.0,0.0,-3.1615,-3.1003,0.0,0.0,0.0,-2.875,-2.9367,0.0,0.0,0.0,0.0,0.0,0.0,0.0,0.0,0.0,0.0,0.0,0.0,0.0,0.0,0.0,0.0,0.0,0.0,0.0,0.0,0.0,0.0,0.0,0.0,0.0,0.0,0.0,0.0,0.0,0.0,0.0,0.0,0.0,0.0,0.0,0.0,0.0,0.0,0.0,0.0,0.0,0.0,0.0,0.0,0.0,0.0,0.0,0.0,0.0,0.0,0.0,0.0,0.0,0.0,0.0,0.0,0.0,-3.3398,-3.4267,-3.5127,-3.5986,-3.6025,-3.582,-3.54,-3.4941,0.0,0.0,0.0,0.0,0.0,0.0,0.0,0.0,0.0,0.0,0.0,0.0,0.0,0.0,0.0,0.0,0.0,0.0,0.0,0.0,0.0,0.0,0.0,0.0,0.0,0.0,0.0,-2.9346,0.0,0.0,0.0,0.0,0.0,0.0,0.0,0.0,0.0,0.0,0.0,0.0,0.0,0.0,-3.1336,-3.1116,-3.0313,-2.9626,0.0,0.0,-2.7696,-2.8308,-2.7772,-2.7594,0.0,0.0,0.0,0.0,0.0,0.0,0.0,0.0,0.0,0.0,0.0,0.0,0.0,0.0,0.0,0.0,0.0,0.0,0.0,0.0,0.0,0.0,0.0,0.0,0.0,0.0,0.0,0.0,0.0,0.0,0.0,0.0,0.0,0.0,0.0,0.0,0.0,0.0,0.0,0.0,0.0,0.0,0.0,0.0,0.0,0.0,0.0,0.0,0.0,0.0,0.0,0.0,0.0,0.0,-3.1728,-3.3379,-3.4258,-3.5127,-3.5986,-3.6025,-3.582,-3.541,-3.4941,-3.3926,0.0,0.0,0.0,0.0,0.0,0.0,0.0,0.0,0.0,0.0,0.0,0.0,0.0,0.0,0.0,0.0,0.0,0.0,0.0,0.0,0.0,0.0,0.0,0.0,0.0,0.0,0.0,0.0,0.0,0.0,0.0,0.0,0.0,0.0,0.0,0.0,0.0,0.0,0.0,0.0,0.0,-3.1077,-3.0118,-2.962,-2.8979,0.0,-2.7325,-2.718,-2.7623,-2.7088,-2.6847,-2.7617,0.0,0.0,0.0,0.0,0.0,0.0,0.0,0.0,0.0,0.0,0.0,0.0,0.0,0.0,0.0,0.0,0.0,0.0,0.0,0.0,0.0,0.0,0.0,0.0,0.0,0.0,0.0,0.0,0.0,0.0,0.0,0.0,0.0,0.0,0.0,0.0,0.0,0.0,0.0,0.0,0.0,0.0,0.0,0.0,0.0,0.0,0.0,0.0,0.0,0.0,0.0,0.0,0.0,-3.1728,-3.3408,-3.4258,-3.5127,-3.5976,-3.6025,-3.5947,-3.5791,-3.5351,-3.457,0.0,0.0,0.0,0.0,0.0,0.0,0.0,0.0,0.0,0.0,0.0,0.0,0.0,0.0,0.0,0.0,0.0,0.0,0.0,0.0,0.0,0.0,0.0,0.0,0.0,0.0,0.0,0.0,-3.2295,-3.251,-3.2422,0.0,0.0,0.0,0.0,0.0,0.0,0.0,0.0,0.0,0.0,-3.0504,-2.9937,-2.9344,0.0,0.0,-2.6684,-2.6319,-2.6451,-2.5903,-2.5669,-2.6202,-2.5769,0.0,0.0,0.0,0.0,0.0,0.0,0.0,0.0,0.0,0.0,0.0,0.0,0.0,0.0,0.0,0.0,0.0,0.0,0.0,0.0,0.0,0.0,0.0,0.0,0.0,0.0,0.0,0.0,0.0,0.0,0.0,0.0,0.0,0.0,0.0,0.0,0.0,0.0,0.0,0.0,0.0,0.0,0.0,0.0,0.0,0.0,0.0,0.0,0.0,0.0,0.0,0.0,-3.1728,-3.3408,-3.4258,-3.5127,-3.6006,-3.6025,-3.6025,-3.6016,-3.5615,-3.5039,0.0,0.0,0.0,0.0,0.0,0.0,0.0,0.0,0.0,0.0,0.0,0.0,0.0,0.0,0.0,0.0,0.0,0.0,0.0,0.0,0.0,0.0,0.0,0.0,0.0,0.0,0.0,0.0,-3.2695,-3.2578,-3.2031,0.0,0.0,0.0,0.0,0.0,0.0,0.0,0.0,0.0,0.0,-2.991,-2.9387,-2.8766,-2.7985,-2.6838,-2.6173,-2.5793,-2.5646,-2.5105,-2.4901,-2.5314,0.0,0.0,0.0,0.0,0.0,0.0,0.0,0.0,0.0,0.0,0.0,0.0,0.0,0.0,0.0,0.0,0.0,0.0,0.0,0.0,0.0,0.0,0.0,0.0,0.0,0.0,0.0,-2.7041,0.0,0.0,-2.7725,0.0,0.0,0.0,0.0,0.0,0.0,0.0,0.0,0.0,0.0,0.0,0.0,0.0,0.0,0.0,0.0,0.0,0.0,0.0,0.0,0.0,0.0,-3.1719,-3.3398,-3.4267,-3.5137,-3.5996,-3.6025,-3.6025,-3.6016,-3.5615,-3.5176,-3.4678,0.0,0.0,0.0,0.0,0.0,0.0,0.0,0.0,0.0,0.0,0.0,0.0,0.0,0.0,0.0,0.0,0.0,0.0,0.0,0.0,0.0,0.0,0.0,0.0,0.0,0.0,-3.315,-3.3027,-3.2441,0.0,0.0,0.0,0.0,0.0,0.0,0.0,0.0,0.0,-3.0281,-2.9978,-2.9428,-2.8342,-2.7852,-2.7187,-2.6012,-2.58,-2.5646,-2.5279,-2.4893,-2.4826,0.0,0.0,0.0,0.0,0.0,0.0,0.0,0.0,0.0,0.0,0.0,0.0,0.0,0.0,0.0,0.0,0.0,0.0,0.0,0.0,0.0,0.0,0.0,0.0,0.0,0.0,0.0,-2.8281,-2.832,0.0,0.0,0.0,0.0,0.0,0.0,0.0,0.0,0.0,0.0,0.0,-3.2559,-3.2578,0.0,0.0,0.0,0.0,0.0,0.0,0.0,0.0,0.0,0.0,0.0,0.0,-3.1728,-3.3369,-3.4267,-3.5127,-3.5986,-3.6025,-3.6025,-3.6025,-3.5879,-3.5335,-3.4388,0.0,0.0,0.0,0.0,0.0,0.0,0.0,0.0,0.0,0.0,0.0,0.0,0.0,0.0,0.0,0.0,0.0,0.0,0.0,0.0,0.0,0.0,0.0,0.0,0.0,-3.0695,0.0,0.0,0.0,0.0,0.0,0.0,0.0,0.0,0.0,0.0,-3.0371,-3.0656,-3.0368,-3.0035,-2.9393,-2.8266,-2.7548,-2.6765,0.0,0.0,0.0,0.0,0.0,0.0,0.0,0.0,0.0,0.0,0.0,0.0,0.0,-2.4868,-2.5077,-2.4542,-2.4392,-2.4225,-2.4003,0.0,0.0,0.0,0.0,0.0,0.0,0.0,0.0,0.0,0.0,0.0,0.0,0.0,0.0,-2.96,-2.9619,-2.9726,0.0,0.0,0.0,0.0,0.0,0.0,0.0,0.0,-3.2627,-3.3203,-3.3857,-3.3867,-3.3506,-3.2851,-3.2832,-3.2012,0.0,0.0,0.0,0.0,0.0,0.0,0.0,0.0,-3.21,-3.3613,-3.4502,-3.5293,-3.5986,-3.6025,-3.6025,-3.6025,-3.5879,-3.5336,-3.4289,-3.2553,-3.1165,0.0,0.0,0.0,0.0,0.0,0.0,0.0,0.0,0.0,0.0,0.0,0.0,0.0,0.0,0.0,0.0,0.0,0.0,0.0,0.0,0.0,0.0,0.0,-3.0031,0.0,0.0,0.0,0.0,0.0,0.0,0.0,0.0,0.0,-2.9636,-3.0163,-3.033,-3.001,-2.9403,-2.8719,-2.7802,0.0,0.0,0.0,0.0,0.0,0.0,0.0,-2.4336,-2.4361,-2.4375,-2.4395,-2.4293,-2.448,-2.4609,-2.4616,0.0,0.0,-2.4261,-2.4217,-2.4196,-2.408,-2.4015,-2.4038,-2.3865,-2.3887,-2.3949,0.0,0.0,0.0,0.0,-2.9678,0.0,0.0,0.0,-3.0723,-3.0918,0.0,-3.0469,0.0,0.0,0.0,0.0,-3.0967,-3.1826,0.0,0.0,-3.3896,-3.4336,-3.4726,-3.4746,-3.4512,-3.4131,-3.4101,-3.3867,-3.335,-3.1797,0.0,0.0,0.0,0.0,0.0,0.0,-3.2812,-3.4043,-3.4922,-3.5596,-3.6006,-3.6025,-3.6025,-3.5947,-3.5616,-3.5064,-3.4296,-3.3068,-3.1709,-3.0102,-2.8977,0.0,0.0,0.0,0.0,0.0,0.0,0.0,0.0,0.0,0.0,0.0,0.0,0.0,0.0,0.0,0.0,0.0,0.0,0.0,0.0,-2.8946,0.0,0.0,0.0,0.0,0.0,0.0,0.0,0.0,0.0,-2.8535,-2.983,-2.9842,-2.9592,-2.9196,0.0,0.0,0.0,0.0,-2.566,-2.5233,-2.5159,-2.5005,-2.4636,-2.4629,-2.4629,-2.4556,0.0,0.0,-2.4262,-2.4215,-2.4222,-2.4222,-2.4429,-2.4669,-2.4788,-2.4734,-2.467,-2.4364,-2.4281,-2.4236,-2.3941,-2.3866,-2.3866,-3.1826,0.0,0.0,0.0,0.0,-3.1084,-3.1318,-3.1611,-3.1738,-3.1807,-3.1857,-3.172,0.0,0.0,0.0,0.0,0.0,0.0,-3.3818,-3.4346,-3.4805,-3.5244,-3.5644,-3.5635,-3.542,-3.5029,-3.501,-3.4785,-3.4326,-3.3848,-3.2939,-3.1621,0.0,0.0,0.0,0.0,-3.3096,-3.4053,-3.4941,-3.5596,-3.6025,-3.6025,-3.5889,-3.5684,-3.4774,-3.402,-3.3528,-3.1901,-3.0404,-2.9177,-2.8038,0.0,0.0,0.0,0.0,0.0,0.0,0.0,0.0,0.0,0.0,0.0,0.0,0.0,0.0,0.0,0.0,0.0,0.0,0.0,-2.691,-2.7478,-2.7521,0.0,0.0,0.0,0.0,0.0,0.0,0.0,0.0,0.0,-2.7817,-2.8538,-2.8845,0.0,0.0,-2.718,-2.6312,-2.566,-2.5226,-2.4864,-2.4784,0.0,-2.4636,-2.4629,-2.4629,-2.4629,-2.4629,-2.4529,-2.4529,-2.4442,-2.4516,-2.4509,-2.4583,-2.4643,-2.4649,-2.4668,-2.4595,-2.4542,-2.4523,-2.4509,-2.4429,-2.4389,-2.4389,-3.2744,-3.2226,-3.1641,-3.1543,-3.1787,-3.1953,-3.2178,-3.2432,-3.2598,-3.2666,-3.2656,-3.249,-3.2266,-3.2031,-3.2197,0.0,0.0,0.0,-3.4726,-3.5,-3.5439,-3.5771,-3.6016,-3.6025,-3.5889,-3.5644,-3.5644,-3.5488,-3.5215,-3.5059,-3.4463,-3.3457,0.0,-3.2529,-3.2549,-3.3213,-3.3896,-3.459,-3.5293,-3.5762,-3.6006,-3.5889,-3.5606,-3.5264,-3.4144,-3.3224,-3.2508,-3.1031,-2.9563,-2.8284,-2.7345,-2.6296,0.0,0.0,0.0,0.0,0.0,0.0,0.0,0.0,0.0,0.0,0.0,-2.5409,-2.5329,0.0,0.0,0.0,-2.5397,-2.5829,-2.6027,-2.6138,0.0,0.0,0.0,0.0,0.0,0.0,0.0,-2.5827,-2.6065,-2.6249,-2.6349,-2.7039,-2.7527,-2.7433,-2.6961,-2.6312,-2.566,0.0,-2.4857,-2.4636,-2.4629,-2.4629,-2.4629,-2.4629,-2.4629,-2.4629,-2.4629,-2.4629,-2.4629,-2.4629,-2.4629,-2.4629,-2.4629,-2.4629,-2.4629,-2.4629,-2.4629,-2.4629,-2.4629,-2.4629,-2.4629,-2.4629,-2.4629,-3.3418,-3.335,-3.2588,-3.2326,-3.2305,-3.2685,-3.2842,-3.2871,-3.3252,-3.3418,-3.3389,-3.3018,-3.2842,-3.2871,-3.332,0.0,-3.416,-3.5039,-3.543,-3.5459,-3.585,-3.6025,-3.6025,-3.6025,-3.6025,-3.6025,-3.6025,-3.6025,-3.5996,-3.5625,-3.5449,-3.542,-3.459,-3.415,-3.4101,-3.4453,-3.4883,-3.5332,-3.5752,-3.5976,-3.6025,-3.5606,-3.5274,-3.4774,-3.3641,-3.25,-3.1279,-3.0146,-2.8853,-2.7453,-2.6735,-2.5855,-2.4827,0.0,0.0,0.0,0.0,0.0,0.0,0.0,0.0,0.0,0.0,0.0,0.0,0.0,0.0,-2.3904,-2.4715,0.0,-2.5293,-2.5072,0.0,0.0,0.0,-2.4841,-2.4893,-2.544,-2.5584,-2.4972,0.0,0.0,-2.5318,-2.5506,-2.5873,-2.6173,-2.5667,-2.5159,-2.5159,-2.4857,-2.4629,-2.4629,-2.4629,-2.4629,-2.4629,-2.4629,-2.4629,-2.4629,-2.4629,-2.4629,-2.4629,-2.4629,-2.4629,-2.4629,-2.4629,-2.4629,-2.4629,-2.4629,-2.4629,-2.4629,-2.4629,-2.4629,-2.4629,-2.4629,-2.4629,-3.3418,-3.3398,-3.3203,-3.3125,-3.3125,-3.3232,-3.3271,-3.3281,-3.3369,-3.3418,-3.3408,-3.332,-3.3271,-3.331,-3.4053,-3.4453,-3.459,-3.5469,-3.5869,-3.5879,-3.5976,-3.6025,-3.6025,-3.6025,-3.6025,-3.6025,-3.6025,-3.6025,-3.6016,-3.5918,-3.5869,-3.584,-3.5332,-3.4746,-3.4101,-3.4234,-3.4434,-3.4853,-3.5312,-3.5693,-3.5938,-3.5401,-3.4696,-3.4057,-3.2368,-3.0896,-2.9504,-2.8073,-2.672,-2.564,-2.5342,-2.4784,-2.3821,-2.3649,0.0,0.0,0.0,0.0,0.0,0.0,0.0,0.0,0.0,-2.3634,-2.359,0.0,-2.4163,0.0,-2.4266,-2.4458,-2.4462,-2.4675,0.0,0.0,-2.4538,-2.4726,-2.4514,-2.4811,-2.4968,-2.4795,-2.4853,-2.4956,-2.4817,-2.4851,-2.4924,-2.5005,-2.5152,-2.5085,-2.4784,-2.4636,-2.4629,-2.4629,-2.4629,-2.4629,-2.4629,-2.4629,-2.4629,-2.4629,-2.4629,-2.4629,-2.4629,-2.4629,-2.4629,-2.4629,-2.4629,-2.4629,-2.4629,-2.4629,-2.4629,-2.4629,-2.4629,-2.4629,-2.4629,-2.4629,-2.4629,-3.3418,-3.3418,-3.3418,-3.3418,-3.3418,-3.3418,-3.3418,-3.3418,-3.3418,-3.3418,-3.3418,-3.3418,-3.3525,-3.374,-3.4209,-3.4531,-3.4746,-3.542,-3.5742,-3.5752,-3.5937,-3.6025,-3.6025,-3.6025,-3.6025,-3.6025,-3.6025,-3.6025,-3.6025,-3.6025,-3.6025,-3.6006,-3.5605,-3.5039,-3.4385,-3.4346,-3.4473,-3.4697,-3.5146,-3.5596,-3.5928,-3.5264,-3.4474,-3.3514,-3.1757,-3.0058,-2.8589,-2.7115,-2.5832,-2.496,-2.4734,-2.4238,-2.3445,-2.3252,-2.2755,0.0,0.0,0.0,0.0,0.0,0.0,0.0,0.0,0.0,0.0,0.0,-2.3955,-2.4042,-2.4268,-2.4349,-2.4215,-2.4347,-2.4309,-2.3856,-2.4272,-2.4453,-2.4302,-2.4542,-2.4702,-2.4661,-2.4681,-2.4675,-2.4616,-2.4629,-2.4629,-2.4629,-2.4784,-2.4864,-2.4636,-2.4629,-2.4629,-2.4629,-2.4629,-2.4629,-2.4629,-2.4629,-2.4629,-2.4629,-2.4629,-2.4629,-2.4629,-2.4629,-2.4629,-2.4629,-2.4629,-2.4629,-2.4629,-2.4629,-2.4629,-2.4629,-2.4629,-2.4629,-2.4629,-2.4629,-2.4629,-3.3418,-3.3418,-3.3418,-3.3418,-3.3418,-3.3418,-3.3418,-3.3418,-3.3418,-3.3418,-3.3418,-3.3418,-3.3633,-3.3984,-3.4053,-3.4267,-3.4639,-3.5098,-3.5303,-3.5332,-3.5684,-3.585,-3.585,-3.585,-3.5879,-3.5937,-3.5937,-3.5967,-3.6025,-3.6025,-3.6025,-3.6006,-3.5605,-3.5185,-3.4805,-3.4726,-3.4697,-3.4707,-3.5205,-3.5654,-3.6006,-3.5333,-3.443,-3.3211,-3.1444,-2.9727,-2.8101,-2.6643,-2.5432,-2.4764,-2.4368,-2.3907,-2.3273,-2.3059,-2.2508,0.0,-2.161,0.0,0.0,0.0,0.0,0.0,0.0,0.0,0.0,-2.3055,-2.3627,-2.4248,-2.4468,-2.4536,-2.4282,-2.4262,-2.4162,-2.3921,-2.4108,-2.4255,-2.4269,-2.4482,-2.4629,-2.4629,-2.4629,-2.4629,-2.4629,-2.4629,-2.4629,-2.4629,-2.4636,-2.4636,-2.4629,-2.4629,-2.4629,-2.4629,-2.4629,-2.4629,-2.4629,-2.4629,-2.4629,-2.4629,-2.4629,-2.4629,-2.4629,-2.4629,-2.4629,-2.4629,-2.4629,-2.4629,-2.4629,-2.4629,-2.4629,-2.4629,-2.4629,-2.4629,-2.4629,-2.4629,-2.4629,-3.3418,-3.3418,-3.3418,-3.3418,-3.3418,-3.3418,-3.3418,-3.3418,-3.3418,-3.3418,-3.3418,-3.3418,-3.3467,-3.3574,-3.3916,-3.4121,-3.4219,-3.4639,-3.4834,-3.4824,-3.4912,-3.4951,-3.4951,-3.4951,-3.5146,-3.5498,-3.5508,-3.5693,-3.6025,-3.6025,-3.6025,-3.6006,-3.5596,-3.5351,-3.5244,0.0,0.0,0.0,-3.5488,-3.5937,-3.5938,-3.5616,-3.4713,-3.3202,-3.1366,0.0,-2.7487,-2.567,-2.4379,-2.3736,-2.3545,0.0,0.0,0.0,0.0,0.0,0.0,0.0,0.0,0.0,0.0,0.0,-2.2983,-2.3043,-2.2875,-2.3604,-2.4143,-2.4516,-2.4556,-2.4542,-2.4563,-2.4556,-2.4536,-2.4482,-2.4523,-2.4549,-2.4556,-2.4529,-2.4629,-2.4629,-2.4629,-2.4636,-2.4636,-2.4629,-2.4636,-2.4636,-2.4629,-2.4629,-2.4629,-2.4629,-2.4629,-2.4629,-2.4629,-2.4629,-2.4629,-2.4629,-2.4629,-2.4629,-2.4629,-2.4629,-2.4629,-2.4629,-2.4629,-2.4629,-2.4629,-2.4629,-2.4629,-2.4629,-2.4629,-2.4629,-2.4629,-2.4629,-2.4629,-2.4629,-2.4629,-3.3418,-3.3418,-3.3418,-3.3418,0.0,-3.3418,-3.3418,-3.3418,-3.3418,-3.3418,-3.3418,-3.3418,-3.3418,-3.3437,-3.3652,-3.375,-3.3769,-3.4199,-3.4385,-3.4394,-3.46,-3.4697,-3.4697,-3.4697,-3.4814,-3.5049,-3.5049,-3.5166,-3.5371,-3.5596,-3.5713,-3.5713,-3.5703,-3.5596,-3.5391,-3.5166,-3.5049,-3.5039,-3.5488,-3.5801,-3.5938,-3.547,-3.4567,-3.3202,-3.1435,0.0,0.0,0.0,0.0,0.0,0.0,0.0,0.0,-2.3372,0.0,-2.2679,-2.2786,-2.2799,-2.2672,-2.2919,-2.3153,-2.3307,-2.3581,-2.3694,-2.3534,-2.3941,-2.4322,-2.4609,-2.4629,-2.4629,-2.4629,-2.4629,-2.4629,-2.4629,-2.4629,-2.4629,-2.4629,-2.4629,-2.471,-2.4864,-2.4857,-2.4931,-2.5139,-2.5005,-2.4931,-2.4857,-2.471,-2.4629,-2.4629,-2.4629,-2.4629,-2.4629,-2.4629,-2.4629,-2.4629,-2.4629,-2.4629,-2.4629,-2.4629,-2.4629,-2.4629,-2.4629,-2.4629,-2.4629,-2.4629,-2.4629,-2.4629,-2.4629,-2.4629,-2.4629,-2.4629,-2.4629,-2.4629,-2.4629,-2.4629,-3.3418,-3.3418,-3.3418,-3.3418,-3.3418,-3.3418,-3.3418,-3.3418,-3.3418,0.0,0.0,-3.3418,-3.3418,-3.3418,-3.3418,-3.3418,-3.3447,-3.3789,-3.3965,-3.3975,-3.4316,-3.4473,-3.4473,-3.4473,-3.4521,-3.458,-3.459,-3.4629,-3.4707,-3.5088,-3.5273,-3.5303,-3.5625,-3.5664,-3.541,-3.5469,-3.5508,-3.5508,-3.5498,-3.5664,-3.6006,-3.5323,-3.4439,-3.332,-3.1513,-2.9749,-2.7948,-2.6084,-2.4915,-2.4491,-2.3797,-2.3482,-2.3805,-2.3776,-2.3655,-2.3427,-2.3681,-2.3741,-2.3507,-2.3761,-2.3928,-2.3928,-2.4142,-2.4282,-2.4282,-2.4282,-2.4376,-2.4623,-2.4629,-2.4629,-2.4629,-2.4629,-2.4629,-2.4629,-2.4629,-2.4629,-2.4629,-2.4629,-2.471,-2.5085,-2.5159,-2.5373,-2.5807,-2.5667,-2.5373,-2.5373,-2.5226,-2.4857,-2.471,-2.4636,-2.4629,-2.4629,-2.4629,-2.4629,-2.4629,-2.4629,-2.4629,-2.4629,-2.4629,-2.4629,-2.4629,-2.4629,-2.4629,-2.4629,-2.4629,-2.4629,-2.4629,-2.4629,-2.4629,-2.4629,-2.4629,-2.4629,-2.4629,-2.4629,-2.4629,-3.3418,-3.3418,-3.3418,-3.3418,-3.3418,-3.3418,-3.3418,-3.3418,-3.3418,-3.3418,-3.3418,-3.3418,-3.3418,-3.3418,-3.3418,-3.3418,-3.3418,-3.3476,-3.3506,-3.3506,-3.3574,-3.3603,-3.3594,-3.3603,-3.3799,-3.4141,-3.416,-3.4346,-3.4678,-3.4756,-3.4795,-3.4795,-3.4853,-3.5059,-3.5391,-3.5752,-3.5937,-3.5937,-3.5928,-3.5957,-3.6025,-3.5606,-3.485,-3.361,-3.1866,-3.0228,-2.8713,-2.6474,-2.5165,-2.4813,-2.4156,-2.3765,-2.3761,-2.3825,-2.3799,-2.3721,-2.3981,-2.4122,-2.4088,-2.4356,-2.4509,-2.4516,-2.4549,-2.4576,-2.4576,-2.4576,-2.4596,-2.4629,-2.4629,-2.4629,-2.4629,-2.4629,-2.4629,-2.4629,-2.4629,-2.4629,-2.4629,-2.4636,-2.4784,-2.5233,-2.5233,-2.5593,-2.6246,-2.6319,-2.6319,-2.6246,-2.6026,-2.5814,-2.5152,-2.479,-2.4636,-2.4629,-2.4629,-2.4629,-2.4629,-2.4629,-2.4629,-2.4629,-2.4629,-2.4629,-2.4629,-2.4629,-2.4629,-2.4629,-2.4629,-2.4629,-2.4629,-2.4629,-2.4629,-2.4629,-2.4629,-2.4629,-2.4629,-2.4629,-2.4629,-3.3418,-3.3418,-3.3418,-3.3418,-3.3418,-3.3418,-3.3418,-3.3418,-3.3418,-3.3418,-3.3418,-3.3418,-3.3418,-3.3418,-3.3418,-3.3418,-3.3418,-3.3418,-3.3418,-3.3418,-3.3418,-3.3418,-3.3418,-3.3418,-3.3525,-3.3721,-3.3721,-3.3828,-3.4004,-3.4238,-3.4365,-3.4365,-3.459,-3.4932,-3.5381,-3.5576,-3.5791,-3.6016,-3.6025,-3.6025,-3.6025,-3.5264,-3.4405,-3.3427,-3.1469,-2.969,-2.8169,-2.6401,-2.5206,-2.4777,-2.4313,-2.41,-2.4229,-2.4242,-2.4242,-2.4242,-2.4362,-2.4436,-2.4436,-2.4563,-2.4629,-2.4629,-2.4629,-2.4629,-2.4629,-2.4629,-2.4629,-2.4629,-2.4629,-2.4629,-2.4629,-2.4629,-2.4629,-2.4629,-2.4629,-2.4629,-2.4636,-2.4784,-2.5159,-2.574,-2.6246,-2.675,-2.7543,-2.7615,-2.7543,-2.7325,-2.6743,-2.5873,-2.5299,-2.4857,-2.4629,-2.4629,-2.4629,-2.4629,-2.4629,-2.4629,-2.4629,-2.4629,-2.4629,-2.4629,-2.4629,-2.4629,-2.4629,-2.4629,-2.4629,-2.4629,-2.4629,-2.4629,-2.4629,-2.4629,-2.4629,-2.4629,-2.4629,-2.4629,-2.4629,-3.3418,-3.3418,-3.3418,-3.3418,-3.3418,-3.3418,-3.3418,-3.3418,-3.3418,-3.3418,-3.3418,-3.3418,-3.3418,-3.3418,-3.3418,-3.3418,-3.3418,-3.3418,-3.3418,-3.3418,-3.3418,-3.3418,-3.3418,-3.3418,-3.3418,-3.3418,-3.3418,-3.3418,-3.3467,-3.3769,-3.3926,-3.3975,-3.4346,-3.4736,-3.5088,-3.5293,-3.5557,-3.5859,-3.5967,-3.6025,-3.5957,-3.4931,-3.4015,-3.3137,-3.0864,-2.9052,-2.7756,-2.6236,-2.516,-2.4804,-2.4453,-2.4408,-2.4603,-2.4629,-2.4629,-2.4629,-2.4629,-2.4629,-2.4629,-2.4629,-2.4629,-2.4629,-2.4629,-2.4629,-2.4629,-2.4629,-2.4629,-2.4629,-2.4629,-2.4629,-2.4629,-2.4629,-2.4629,-2.4629,-2.4629,-2.4629,-2.4629,-2.4931,-2.552,-2.6319,-2.7041,-2.7825,-2.8691,-2.8987,-2.8763,-2.8107,-2.6881,-2.58,-2.5366,-2.4931,-2.4636,-2.4629,-2.4629,-2.4629,-2.4629,-2.4629,-2.4629,-2.4629,-2.4629,-2.4629,-2.4629,-2.4629,-2.4629,-2.4629,-2.4629,-2.4629,-2.4629,-2.4629,-2.4629,-2.4629,-2.4629,-2.4629,-2.4629,-2.4629,-2.4629,-3.3418,-3.3418,-3.3418,-3.3418,-3.3418,-3.3418,-3.3418,-3.3418,-3.3418,-3.3418,-3.3418,-3.3418,-3.3418,-3.3418,-3.3418,-3.3418,-3.3418,-3.3418,-3.3418,-3.3418,-3.3418,-3.3418,-3.3418,-3.3418,-3.3418,-3.3418,-3.3418,-3.3418,-3.3418,-3.3467,-3.3486,-3.3535,-3.3916,-3.416,-3.4287,-3.498,-3.541,-3.5459,-3.582,-3.6025,-3.5957,-3.4921,-3.4015,-3.3215,-3.066,-2.8876,-2.7966,-2.6196,-2.5192,-2.5118,-2.473,-2.4596,-2.4629,-2.4629,-2.4629,-2.4629,-2.4629,-2.4629,-2.4629,-2.4629,-2.4629,-2.4629,-2.4629,-2.4629,-2.4629,-2.4629,-2.4629,-2.4629,-2.4629,-2.4629,-2.4629,-2.4629,-2.4636,-2.4636,-2.4636,-2.4629,-2.4703,-2.4931,-2.552,-2.6319,-2.7252,-2.8042,-2.9409,-2.9775,-2.9417,-2.8619,-2.7252,-2.6093,-2.5653,-2.4998,-2.4629,-2.4629,-2.4629,-2.4629,-2.4629,-2.4629,-2.4629,-2.4629,-2.4629,-2.4629,-2.4629,-2.4629,-2.4629,-2.4629,-2.4629,-2.4629,-2.4629,-2.4629,-2.4629,-2.4629,-2.4629,-2.4629,-2.4629,-2.4629,-2.4629,-3.3418,-3.3418,-3.3418,-3.3418,-3.3418,-3.3418,-3.3418,-3.3418,-3.3418,-3.3418,-3.3418,-3.3418,-3.3418,-3.3418,-3.3418,-3.3418,-3.3418,-3.3418,-3.3418,-3.3418,-3.3418,-3.3418,-3.3418,-3.3418,-3.3418,-3.3418,-3.3418,-3.3418,-3.3418,-3.3418,-3.3418,-3.3437,-3.3613,-3.3818,-3.4146,-3.4434,-3.4726,-3.498,-3.542,-3.5654,-3.5549,-3.4593,-3.3659,-3.2727,-3.0099,-2.8171,-2.739,-2.58,-2.4857,-2.4857,-2.471,-2.4629,-2.4629,-2.4629,-2.4629,-2.4629,-2.4629,-2.4629,-2.4629,-2.4629,-2.4629,-2.4629,-2.4629,-2.4629,-2.4629,-2.4629,-2.4629,-2.4629,-2.4629,-2.4629,-2.4629,-2.4629,-2.471,-2.4857,-2.4938,-2.5079,-2.566,-2.6026,-2.6619,-2.7615,-2.8619,-2.9624,-3.0488,-3.0488,-2.9695,-2.8539,-2.718,-2.6166,-2.5513,-2.4931,-2.4636,-2.4629,-2.4629,-2.4629,-2.4629,-2.4629,-2.4629,-2.4629,-2.4629,-2.4629,-2.4629,-2.4629,-2.4629,-2.4629,-2.4629,-2.4629,-2.4629,-2.4629,-2.4629,-2.4629,-2.4629,-2.4629,-2.4629,-2.4629,-2.4629,-3.3418,-3.3418,-3.3418,-3.3418,-3.3418,-3.3418,-3.3418,-3.3418,-3.3418,-3.3418,-3.3418,-3.3418,-3.3418,-3.3418,-3.3418,-3.3418,-3.3418,-3.3418,-3.3418,-3.3418,-3.3418,-3.3418,-3.3418,-3.3418,-3.3418,-3.3418,-3.3418,-3.3418,-3.3418,-3.3418,-3.3418,-3.3418,-3.3418,-3.3584,-3.3877,-3.3994,-3.4219,-3.4541,-3.4971,-3.5254,-3.5209,-3.4249,-3.3342,-3.2517,-2.9743,-2.7745,-2.7027,-2.5433,-2.4629,-2.4629,-2.4629,-2.4629,-2.4629,-2.4629,-2.4629,-2.4629,-2.4629,-2.4629,-2.4629,-2.4629,-2.4629,-2.4629,-2.4576,-2.4523,-2.4502,-2.4442,-2.4402,-2.4382,-2.4402,-2.4422,-2.4549,-2.4629,-2.4757,-2.505,-2.511,-2.5521,-2.6135,-2.6778,-2.7552,-2.8702,-2.9694,-3.0843,-3.1268,-3.0764,-2.9679,-2.8315,-2.7027,-2.6026,-2.5373,-2.4864,-2.4629,-2.4629,-2.4629,-2.4629,-2.4629,-2.4629,-2.4629,-2.4629,-2.4629,-2.4629,-2.4629,-2.4629,-2.4629,-2.4629,-2.4629,-2.4629,-2.4629,-2.4629,-2.4629,-2.4629,-2.4629,-2.4629,-2.4629,-2.4629,-2.4629,-3.3418,-3.3418,-3.3418,-3.3418,-3.3418,-3.3418,-3.3418,-3.3418,-3.3418,-3.3418,-3.3418,-3.3418,-3.3418,-3.3418,-3.3418,-3.3418,-3.3418,-3.3418,-3.3418,-3.3418,-3.3418,-3.3418,-3.3418,-3.3418,-3.3418,-3.3418,-3.3418,-3.3418,-3.3418,-3.3418,-3.3418,-3.3418,-3.3418,-3.3428,-3.3535,-3.3857,-3.4072,-3.4141,-3.4521,-3.4932,-3.5112,-3.3949,-3.307,-3.2482,-2.9735,-2.7745,-2.6954,-2.5433,-2.4629,-2.4629,-2.4629,-2.4629,-2.4629,-2.4629,-2.4629,-2.4629,-2.4629,-2.4629,-2.4616,-2.4609,-2.4603,-2.4576,-2.4356,-2.4222,-2.4209,-2.4022,-2.3901,-2.3834,-2.3888,-2.4068,-2.4482,-2.4529,-2.4675,-2.4895,-2.5142,-2.5591,-2.6042,-2.7213,-2.8051,-2.9236,-3.0348,-3.1053,-3.1429,-3.0543,-2.9305,-2.8023,-2.6699,-2.5625,-2.5192,-2.4837,-2.4636,-2.4629,-2.4629,-2.4629,-2.4629,-2.4629,-2.4629,-2.4629,-2.4629,-2.4629,-2.4629,-2.4629,-2.4629,-2.4629,-2.4629,-2.4629,-2.4629,-2.4629,-2.4629,-2.4629,-2.4629,-2.4629,-2.4629,-2.4629,-2.4629,-3.3418,-3.3418,-3.3418,-3.3418,-3.3418,-3.3418,-3.3418,-3.3418,-3.3418,-3.3418,-3.3418,-3.3418,-3.3418,-3.3418,-3.3418,-3.3418,-3.3418,-3.3418,-3.3418,-3.3418,-3.3418,-3.3418,-3.3418,-3.3418,-3.3418,-3.3418,-3.3418,-3.3418,-3.3418,-3.3418,-3.3418,-3.3418,-3.3418,-3.3418,-3.3447,-3.3574,-3.3652,-3.3701,-3.4082,-3.4502,-3.4799,-3.4001,-3.3239,-3.2561,-2.9743,-2.7745,-2.7034,-2.544,-2.4629,-2.4629,-2.4629,-2.4629,-2.4629,-2.4629,-2.4629,-2.4629,-2.4629,-2.4556,-2.4389,-2.4362,-2.4275,-2.4095,-2.3995,-2.3921,-2.3915,-2.3834,-2.3774,-2.3768,-2.3768,-2.3973,-2.4289,-2.4442,-2.4819,-2.5705,-2.6157,-2.6886,-2.8134,-2.8952,-2.9785,-3.0763,-3.1372,-3.1373,-3.052,-2.949,-2.8146,-2.6709,-2.5733,-2.5063,-2.4681,-2.4576,-2.4629,-2.4629,-2.4629,-2.4629,-2.4629,-2.4629,-2.4629,-2.4629,-2.4629,-2.4629,-2.4629,-2.4629,-2.4629,-2.4629,-2.4629,-2.4629,-2.4629,-2.4629,-2.4629,-2.4629,-2.4629,-2.4629,-2.4629,-2.4629,-2.4629,-3.3838,-3.3828,-3.3838,-3.375,-3.3643,-3.3633,-3.3545,-3.3428,-3.3418,-3.3418,-3.3418,-3.3418,-3.3418,-3.3418,-3.3418,-3.3418,-3.3418,-3.3418,-3.3418,-3.3418,-3.3418,-3.3418,-3.3418,-3.3418,-3.3418,-3.3418,-3.3418,-3.3418,-3.3418,-3.3418,-3.3418,-3.3418,-3.3418,-3.3418,-3.3418,-3.3418,-3.3418,-3.3486,-3.3721,-3.4072,-3.4362,-3.3861,-3.3261,-3.2357,-2.9884,-2.7962,-2.7027,-2.558,-2.4717,-2.4636,-2.4629,-2.4629,-2.4629,-2.4629,-2.4589,-2.4516,-2.4496,-2.4369,-2.4115,-2.4062,-2.3981,-2.3794,-2.3681,-2.3627,-2.3621,-2.3541,-2.3551,-2.3544,-2.3621,-2.3825,-2.4309,-2.4659,-2.5315,-2.6354,-2.6939,-2.785,-2.9547,-3.0155,-3.0959,-3.1765,-3.1953,-3.1328,-3.0071,-2.8692,-2.7262,-2.5659,-2.5013,-2.4471,-2.4308,-2.4442,-2.4629,-2.4629,-2.4629,-2.4629,-2.4629,-2.4629,-2.4629,-2.4629,-2.4629,-2.4629,-2.4629,-2.4629,-2.4629,-2.4629,-2.4629,-2.4629,-2.4629,-2.4629,-2.4629,-2.4629,-2.4629,-2.4629,-2.4629,-2.4629,-2.4629,-3.4658,-3.4629,-3.4678,-3.4414,-3.4092,-3.4033,-3.3809,-3.3506,-3.3437,-3.3418,-3.3418,-3.3418,-3.3418,-3.3418,-3.3418,-3.3418,-3.3418,-3.3418,-3.3418,-3.3418,-3.3418,-3.3418,-3.3418,-3.3418,-3.3418,-3.3418,-3.3418,-3.3418,-3.3418,-3.3418,-3.3418,-3.3418,-3.3418,-3.3418,-3.3418,-3.3418,-3.3418,-3.3428,-3.3476,-3.3682,-3.3998,-3.3519,-3.2991,-3.2442,-3.0381,-2.8573,-2.71,-2.5807,-2.5005,-2.4636,-2.4629,-2.4629,-2.4629,-2.4609,-2.4502,-2.4275,-2.4215,-2.4062,-2.3814,-2.3768,-2.3754,-2.3641,-2.3474,-2.3327,-2.3287,-2.31,-2.3021,-2.3042,-2.3296,-2.3673,-2.4513,-2.5396,-2.617,-2.6595,-2.7406,-2.8492,-2.9719,-3.0509,-3.1318,-3.2129,-3.205,-3.1325,-2.9893,-2.8143,-2.6592,-2.5495,-2.4715,-2.4214,-2.4168,-2.4416,-2.4609,-2.4629,-2.4629,-2.4629,-2.4629,-2.4629,-2.4629,-2.4629,-2.4629,-2.4629,-2.4629,-2.4629,-2.4629,-2.4629,-2.4629,-2.4629,-2.4629,-2.4629,-2.4629,-2.4629,-2.4629,-2.4629,-2.4629,-2.4629,-2.4629,-3.4697,-3.4697,-3.4697,-3.4629,-3.4473,-3.4199,-3.3984,-3.3838,-3.3564,-3.3418,-3.3418,-3.3418,-3.3418,-3.3418,-3.3418,-3.3418,-3.3418,-3.3418,-3.3418,-3.3418,-3.3418,-3.3418,-3.3418,-3.3418,-3.3418,-3.3418,-3.3418,-3.3418,-3.3418,-3.3418,-3.3418,-3.3418,-3.3418,-3.3418,-3.3418,-3.3418,-3.3418,-3.3418,-3.3418,-3.3633,-3.4033,-3.3606,-3.3142,-3.2489,-3.1149,-2.9413,-2.744,-2.5953,-2.5085,-2.4636,-2.4629,-2.4629,-2.4603,-2.4442,-2.4302,-2.4202,-2.4008,-2.3781,-2.3514,-2.346,-2.3367,-2.32,-2.306,-2.302,-2.3006,-2.2926,-2.2866,-2.2934,-2.3201,-2.3679,-2.4495,-2.5689,-2.6883,-2.7995,-2.8908,-2.9953,-3.1156,-3.1884,-3.206,-3.1708,-3.1213,-3.0153,-2.8635,-2.697,-2.5723,-2.478,-2.4179,-2.3993,-2.3988,-2.4356,-2.4542,-2.4629,-2.4629,-2.4629,-2.4629,-2.4629,-2.4629,-2.4629,-2.4629,-2.4629,-2.4629,-2.4629,-2.4629,-2.4629,-2.4629,-2.4629,-2.4629,-2.4629,-2.4629,-2.4629,-2.4629,-2.4629,-2.4629,-2.4629,-2.4629,-3.5195,-3.5195,-3.5185,-3.5098,-3.4941,-3.4658,-3.4355,-3.4072,-3.3789,-3.3574,-3.3447,-3.3418,-3.3418,-3.3418,-3.3418,-3.3418,-3.3418,-3.3418,-3.3418,-3.3418,-3.3418,-3.3418,-3.3418,-3.3418,-3.3418,-3.3418,-3.3418,-3.3418,-3.3418,-3.3418,-3.3418,-3.3418,-3.3418,-3.3418,-3.3418,-3.3418,-3.3418,-3.3418,-3.3418,-3.3555,-3.3735,-3.3598,-3.3209,-3.2525,-3.1512,-2.9888,-2.7787,-2.6385,-2.5299,-2.4784,-2.4629,-2.4589,-2.4476,-2.4295,-2.4108,-2.3875,-2.3708,-2.3474,-2.32,-2.3146,-2.308,-2.2899,-2.2866,-2.2866,-2.2866,-2.2866,-2.2866,-2.2934,-2.3338,-2.3952,-2.4895,-2.6285,-2.7808,-2.9413,-3.0091,-3.0982,-3.2019,-3.2275,-3.1891,-3.1082,-3.0287,-2.9077,-2.77,-2.6241,-2.5088,-2.4299,-2.3945,-2.3848,-2.3975,-2.4342,-2.4523,-2.4629,-2.4629,-2.4629,-2.4629,-2.4629,-2.4629,-2.4629,-2.4629,-2.4629,-2.4629,-2.4629,-2.4629,-2.4629,-2.4629,-2.4629,-2.4629,-2.4629,-2.4629,-2.4629,-2.4629,-2.4629,-2.4629,-2.4629,-2.4629,-3.6016,-3.6025,-3.6016,-3.5752,-3.5439,-3.5342,-3.4863,-3.4209,-3.4053,-3.3799,-3.3486,-3.3418,-3.3418,-3.3418,-3.3418,-3.3418,-3.3418,-3.3418,-3.3418,-3.3418,-3.3418,-3.3418,-3.3418,-3.3418,-3.3418,-3.3418,-3.3418,-3.3418,-3.3418,-3.3418,-3.3418,-3.3418,-3.3418,-3.3418,-3.3418,-3.3418,-3.3418,-3.3418,-3.3418,-3.3437,-3.3413,-3.3415,-3.3133,-3.2512,-3.1414,-2.9955,-2.819,-2.6743,-2.5586,-2.4777,-2.4629,-2.4523,-2.4282,-2.4195,-2.3915,-2.344,-2.3333,-2.3166,-2.2946,-2.2913,-2.2968,-2.2873,-2.2866,-2.2866,-2.2866,-2.2866,-2.2866,-2.2934,-2.3543,-2.4428,-2.5562,-2.702,-2.8806,-3.0529,-3.1055,-3.1442,-3.1754,-3.1625,-3.0972,-3.0186,-2.9282,-2.823,-2.7043,-2.5727,-2.4886,-2.4358,-2.4004,-2.4058,-2.4128,-2.4382,-2.4576,-2.4629,-2.4629,-2.4629,-2.4629,-2.4629,-2.4629,-2.4629,-2.4629,-2.4629,-2.4629,-2.4629,-2.4629,-2.4629,-2.4629,-2.4629,-2.4629,-2.4629,-2.4629,-2.4629,-2.4629,-2.4629,-2.4629,-2.4629,-2.4629,-3.6025,-3.6025,-3.6025,-3.5957,-3.581,-3.5537,-3.5068,-3.4521,-3.4189,-3.3828,-3.3486,-3.3418,-3.3418,-3.3418,-3.3418,-3.3418,-3.3418,-3.3418,-3.3418,-3.3418,-3.3418,-3.3418,-3.3418,-3.3418,-3.3418,-3.3418,-3.3418,-3.3418,-3.3418,-3.3418,-3.3418,-3.3418,-3.3418,-3.3418,-3.3418,-3.3418,-3.3418,-3.3418,-3.3418,-3.3418,-3.3374,-3.3164,-3.2859,-3.2448,-3.1204,-2.972,-2.8095,-2.6152,-2.4998,-2.4629,-2.4629,-2.4502,-2.4209,-2.4008,-2.3728,-2.3367,-2.3106,-2.2973,-2.2893,-2.2866,-2.2866,-2.2866,-2.2866,-2.2866,-2.2866,-2.2866,-2.2866,-2.3003,-2.355,-2.4428,-2.5629,-2.7219,-2.9265,-3.1497,-3.2029,-3.2083,-3.1754,-3.1102,-3.0121,-2.8937,-2.7816,-2.6851,-2.5899,-2.512,-2.4475,-2.417,-2.409,-2.4108,-2.4275,-2.4436,-2.4629,-2.4629,-2.4629,-2.4629,-2.4629,-2.4629,-2.4629,-2.4629,-2.4629,-2.4629,-2.4629,-2.4629,-2.4629,-2.4629,-2.4629,-2.4629,-2.4629,-2.4629,-2.4629,-2.4629,-2.4629,-2.4629,-2.4629,-2.4629,-2.4629,-3.6025,-3.6025,-3.6025,-3.6025,-3.5967,-3.5566,-3.5127,-3.4678,-3.4248,-3.3828,-3.3486,-3.3418,-3.3418,-3.3418,-3.3418,-3.3418,-3.3418,-3.3418,-3.3418,-3.3418,-3.3418,-3.3418,-3.3418,-3.3418,-3.3418,-3.3418,-3.3418,-3.3418,-3.3418,-3.3418,-3.3418,-3.3418,-3.3418,-3.3418,-3.3418,-3.3418,-3.3418,-3.3418,-3.3418,-3.3418,-3.3364,-3.3222,-3.2795,-3.2229,-3.1094,-2.9691,-2.7525,-2.558,-2.4629,-2.4629,-2.4616,-2.4449,-2.4055,-2.3875,-2.3581,-2.318,-2.2953,-2.2866,-2.2866,-2.2866,-2.2866,-2.2866,-2.2866,-2.2866,-2.2866,-2.2866,-2.2934,-2.3133,-2.3816,-2.4766,-2.61,-2.7957,-3.0056,-3.1708,-3.223,-3.2019,-3.1497,-3.0381,-2.9068,-2.7775,-2.6677,-2.5907,-2.5045,-2.4636,-2.4357,-2.4268,-2.4248,-2.4288,-2.4396,-2.4543,-2.4629,-2.4629,-2.4629,-2.4629,-2.4629,-2.4629,-2.4629,-2.4629,-2.4629,-2.4629,-2.4629,-2.4629,-2.4629,-2.4629,-2.4629,-2.4629,-2.4629,-2.4629,-2.4629,-2.4629,-2.4629,-2.4629,-2.4629,-2.4629,-2.4629,-3.6025,-3.6025,-3.6025,-3.6025,-3.5957,-3.5566,-3.5127,-3.4678,-3.4248,-3.3828,-3.3486,-3.3418,-3.3418,-3.3418,-3.3418,-3.3418,-3.3418,-3.3418,-3.3418,-3.3418,-3.3418,-3.3418,-3.3418,-3.3418,-3.3418,-3.3418,-3.3418,-3.3418,-3.3418,-3.3418,-3.3418,-3.3418,-3.3418,-3.3418,-3.3418,-3.3418,-3.3418,-3.3418,-3.3418,-3.3486,-3.3457,-3.3344,-3.2824,-3.2066,-3.0658,-2.8893,-2.6736,-2.5226,-2.4629,-2.4629,-2.4629,-2.4376,-2.3921,-2.3821,-2.3514,-2.3142,-2.2926,-2.2866,-2.2866,-2.2866,-2.2866,-2.2866,-2.2866,-2.2866,-2.2866,-2.2866,-2.3003,-2.3338,-2.4027,-2.5037,-2.6635,-2.902,-3.0473,-3.1322,-3.1313,-3.0991,-3.0508,-2.9438,-2.8097,-2.6725,-2.5853,-2.5291,-2.484,-2.4539,-2.4317,-2.43,-2.434,-2.4449,-2.4496,-2.4583,-2.4629,-2.4629,-2.4629,-2.4629,-2.4629,-2.4629,-2.4629,-2.4629,-2.4629,-2.4629,-2.4629,-2.4629,-2.4629,-2.4629,-2.4629,-2.4629,-2.4629,-2.4629,-2.4629,-2.4629,-2.4629,-2.4629,-2.4629,-2.4629,-2.4629,-3.6025,-3.6025,-3.6025,-3.6025,-3.5957,-3.5566,-3.5117,-3.4658,-3.4238,-3.3799,-3.3486,-3.3418,-3.3418,-3.3418,-3.3418,-3.3418,-3.3418,-3.3418,-3.3418,-3.3418,-3.3418,-3.3418,-3.3418,-3.3418,-3.3418,-3.3418,-3.3418,-3.3418,-3.3418,-3.3418,-3.3418,-3.3418,-3.3418,-3.3418,-3.3418,-3.3418,-3.3418,-3.3418,-3.3428,-3.3623,-3.3685,-3.3157,-3.2642,-3.204,-2.971,-2.7423,-2.5845,-2.4931,-2.4636,-2.4629,-2.4609,-2.4456,-2.4122,-2.3901,-2.3607,-2.3267,-2.2986,-2.2879,-2.2866,-2.2866,-2.2866,-2.2866,-2.2866,-2.2866,-2.2866,-2.2866,-2.3065,-2.34,-2.3884,-2.503,-2.6835,-2.8576,-2.9717,-3.0109,-2.9979,-2.9616,-2.9126,-2.8411,-2.7408,-2.6295,-2.5269,-2.4491,-2.4157,-2.4327,-2.4293,-2.4308,-2.4442,-2.4543,-2.4529,-2.4629,-2.4629,-2.4629,-2.4629,-2.4629,-2.4629,-2.4629,-2.4629,-2.4629,-2.4629,-2.4629,-2.4629,-2.4629,-2.4629,-2.4629,-2.4629,-2.4629,-2.4629,-2.4629,-2.4629,-2.4629,-2.4629,-2.4629,-2.4629,-2.4629,-2.4629,-3.6025,-3.6025,-3.6025,-3.5908,-3.5674,-3.5254,-3.4824,-3.4375,-3.3945,-3.3643,-3.3457,-3.3418,-3.3418,-3.3418,-3.3418,-3.3418,-3.3418,-3.3418,-3.3418,-3.3418,-3.3418,-3.3418,-3.3418,-3.3418,-3.3418,-3.3418,-3.3418,-3.3418,-3.3418,-3.3418,-3.3418,-3.3418,-3.3418,-3.3418,-3.3418,-3.3418,-3.3418,-3.3476,-3.3633,-3.3784,-3.3656,-3.3388,-3.2115,-3.0897,-2.8439,-2.6385,-2.5306,-2.4857,-2.4636,-2.4629,-2.4629,-2.4502,-2.4249,-2.4055,-2.3774,-2.3374,-2.32,-2.2986,-2.2919,-2.2866,-2.2866,-2.2866,-2.2866,-2.2866,-2.2866,-2.2866,-2.3208,-2.3611,-2.4156,-2.5037,-2.6961,-2.7899,-2.8684,-2.9058,-2.8801,-2.8433,-2.8128,-2.7562,-2.6825,-2.583,-2.5029,-2.4465,-2.4244,-2.4235,-2.4369,-2.4442,-2.4456,-2.4536,-2.4536,-2.4629,-2.4629,-2.4629,-2.4629,-2.4629,-2.4629,-2.4629,-2.4629,-2.4629,-2.4629,-2.4629,-2.4629,-2.4629,-2.4629,-2.4629,-2.4629,-2.4629,-2.4629,-2.4629,-2.4629,-2.4629,-2.4629,-2.4629,-2.4629,-2.4629,-2.4629,-3.6025,-3.6016,-3.5947,-3.5713,-3.5342,-3.4834,-3.4414,-3.4062,-3.3603,-3.3457,-3.3418,-3.3418,-3.3418,-3.3418,-3.3418,-3.3418,-3.3418,-3.3418,-3.3418,-3.3418,-3.3418,-3.3418,-3.3418,-3.3418,-3.3418,-3.3418,-3.3418,-3.3418,-3.3418,-3.3418,-3.3418,-3.3418,-3.3418,-3.3418,-3.3418,-3.3428,-3.3486,-3.3613,-3.3793,-3.3911,-3.3593,-3.3364,-3.1825,-2.9274,-2.7585,-2.6026,-2.5226,-2.4784,-2.4629,-2.4629,-2.4629,-2.4502,-2.4335,-2.4182,-2.4028,-2.3487,-2.3387,-2.3187,-2.3013,-2.2913,-2.2866,-2.2866,-2.2866,-2.2866,-2.2866,-2.2934,-2.3208,-2.3679,-2.4292,-2.5006,-2.663,-2.7095,-2.7597,-2.794,-2.7628,-2.7314,-2.7185,-2.6716,-2.5955,-2.5574,-2.4996,-2.4552,-2.4374,-2.4416,-2.4543,-2.4629,-2.4629,-2.4629,-2.4629,-2.4629,-2.4629,-2.4629,-2.4629,-2.4629,-2.4629,-2.4629,-2.4629,-2.4629,-2.4629,-2.4629,-2.4629,-2.4629,-2.4629,-2.4629,-2.4629,-2.4629,-2.4629,-2.4629,-2.4629,-2.4629,-2.4629,-2.4629,-2.4629,-2.4629,-2.4629,-3.6025,-3.5996,-3.5644,-3.5449,-3.5264,-3.4531,-3.4141,-3.4014,-3.3584,-3.3418,-3.3418,-3.3418,-3.3418,-3.3418,-3.3418,-3.3418,-3.3418,-3.3418,-3.3418,-3.3418,-3.3418,-3.3418,-3.3418,-3.3418,-3.3428,-3.3418,-3.3447,-3.3476,-3.3457,-3.3418,-3.3574,-3.3467,-3.3496,-3.3496,-3.3516,-3.3447,-3.3647,-3.3817,-3.3818,-3.3744,-3.368,-3.2548,-3.0878,-2.8148,-2.6823,-2.5807,-2.5005,-2.4636,-2.4629,-2.4629,-2.4629,-2.4603,-2.4509,-2.4335,-2.4162,-2.3955,-2.3621,-2.3374,-2.3207,-2.3006,-2.2899,-2.2866,-2.2866,-2.2866,-2.2866,-2.2954,-2.3214,-2.3632,-2.4186,-2.4761,-2.5204,-2.5775,-2.6015,-2.623,-2.6217,-2.5976,-2.6011,-2.5698,-2.5256,-2.5171,-2.485,-2.4639,-2.4562,-2.4523,-2.4583,-2.4629,-2.4629,-2.4629,-2.4629,-2.4629,-2.4629,-2.4629,-2.4629,-2.4629,-2.4629,-2.4629,-2.4629,-2.4629,-2.4629,-2.4629,-2.4629,-2.4629,-2.4629,-2.4629,-2.4629,-2.4629,-2.4629,-2.4629,-2.4629,-2.4629,-2.4629,-2.4629,-2.4629,-2.4629,-2.4629,-3.5342,-3.5312,-3.5117,-3.4912,-3.4658,-3.4277,-3.3935,-3.3721,-3.3506,-3.3418,-3.3418,-3.3418,-3.3418,-3.3418,-3.3418,-3.3418,-3.3418,-3.3418,-3.3418,-3.3418,-3.3418,-3.3418,-3.3418,-3.3418,-3.3584,-3.3701,-3.376,-3.3769,-3.3789,-3.4014,-3.4023,-3.4101,-3.4082,-3.4082,-3.4018,-3.3937,-3.3931,-3.4079,-3.3756,-3.3499,-3.3175,-3.147,-2.9178,-2.762,-2.6312,-2.5366,-2.4851,-2.4629,-2.4629,-2.4629,-2.4629,-2.4629,-2.4589,-2.4509,-2.4356,-2.4189,-2.3921,-2.3607,-2.3394,-2.316,-2.306,-2.2879,-2.2879,-2.2866,-2.2913,-2.3068,-2.3292,-2.3837,-2.4219,-2.4692,-2.491,-2.5064,-2.5228,-2.5456,-2.5263,-2.5268,-2.5333,-2.498,-2.4866,-2.4956,-2.4761,-2.4629,-2.4616,-2.4609,-2.4623,-2.4629,-2.4629,-2.4629,-2.4629,-2.4629,-2.4629,-2.4629,-2.4629,-2.4629,-2.4629,-2.4629,-2.4629,-2.4629,-2.4629,-2.4629,-2.4629,-2.4629,-2.4629,-2.4629,-2.4629,-2.4629,-2.4629,-2.4629,-2.4629,-2.4629,-2.4629,-2.4629,-2.4629,-2.4629,-2.4629,-3.4697,-3.4697,-3.4609,-3.4385,-3.4092,-3.3965,-3.375,-3.3467,-3.3418,-3.3418,-3.3418,-3.3418,-3.3418,-3.3418,-3.3418,-3.3418,-3.3418,-3.3418,-3.3418,-3.3418,-3.3418,-3.3418,-3.3428,-3.3555,-3.373,-3.3984,-3.4355,-3.4277,-3.4248,-3.4453,-3.4639,-3.459,-3.4658,-3.4697,-3.4563,-3.4243,-3.4266,-3.407,-3.3532,-3.292,-3.1487,-2.966,-2.7897,-2.6808,-2.5726,-2.5005,-2.4636,-2.4629,-2.4629,-2.4629,-2.4629,-2.4629,-2.4629,-2.4629,-2.4523,-2.4329,-2.4249,-2.3935,-2.3674,-2.3434,-2.3333,-2.3173,-2.308,-2.306,-2.3113,-2.3397,-2.3655,-2.4174,-2.4373,-2.4593,-2.4584,-2.4683,-2.4835,-2.4977,-2.495,-2.48,-2.4949,-2.4804,-2.4716,-2.4643,-2.4629,-2.4629,-2.4629,-2.4629,-2.4629,-2.4629,-2.4629,-2.4629,-2.4629,-2.4629,-2.4629,-2.4629,-2.4629,-2.4629,-2.4629,-2.4629,-2.4629,-2.4629,-2.4629,-2.4629,-2.4629,-2.4629,-2.4629,-2.4629,-2.4629,-2.4629,-2.4629,-2.4629,-2.4629,-2.4629,-2.4629,-2.4629,-2.4629,-2.4629,-2.4629,-3.4697,-3.4668,-3.4297,-3.4176,-3.4014,-3.3682,-3.3486,-3.3428,-3.3418,-3.3418,-3.3418,-3.3418,-3.3418,-3.3418,-3.3418,-3.3418,-3.3418,-3.3418,-3.3418,-3.3418,-3.3418,-3.3418,-3.3486,-3.3848,-3.3975,-3.4258,-3.4844,-3.4941,-3.4814,-3.4785,-3.4775,-3.4805,-3.4844,-3.4736,-3.4761,-3.425,-3.426,-3.401,-3.2893,-3.1201,-2.9408,-2.8156,-2.7092,-2.6159,-2.544,-2.5012,-2.4636,-2.4629,-2.4629,-2.4629,-2.4629,-2.4629,-2.4629,-2.4629,-2.4629,-2.4523,-2.4376,-2.4175,-2.4028,-2.3841,-2.3674,-2.3567,-2.3581,-2.3647,-2.3641,-2.3654,-2.3801,-2.3811,-2.3966,-2.415,-2.439,-2.4359,-2.4448,-2.4569,-2.4669,-2.4616,-2.471,-2.4784,-2.4636,-2.4629,-2.4629,-2.4629,-2.4629,-2.4629,-2.4629,-2.4629,-2.4629,-2.4629,-2.4629,-2.4629,-2.4629,-2.4629,-2.4629,-2.4629,-2.4629,-2.4629,-2.4629,-2.4629,-2.4629,-2.4629,-2.4629,-2.4629,-2.4629,-2.4629,-2.4629,-2.4629,-2.4629,-2.4629,-2.4629,-2.4629,-2.4629,-2.4629,-2.4629,-2.4629,-2.4629,-3.3975,-3.3955,-3.3779,-3.3701,-3.3682,-3.3496,-3.3418,-3.3418,-3.3418,-3.3418,-3.3418,-3.3418,-3.3418,-3.3418,-3.3418,-3.3418,-3.3418,-3.3418,-3.3418,-3.3418,-3.3418,-3.3418,-3.3525,-3.3867,-3.4141,-3.4541,-3.5029,-3.5439,-3.5361,-3.542,-3.5449,-3.542,-3.5229,-3.5162,-3.4883,-3.4131,-3.3632,-3.278,-3.1294,-2.9392,-2.7924,-2.6954,-2.6232,-2.5513,-2.5079,-2.4784,-2.4636,-2.4629,-2.4629,-2.4629,-2.4629,-2.4629,-2.4629,-2.4629,-2.4629,-2.4623,-2.4536,-2.4382,-2.4209,-2.4082,-2.3961,-2.3814,-2.3801,-2.3821,-2.3955,-2.4028,-2.4128,-2.4283,-2.4236,-2.4322,-2.4396,-2.4442,-2.4509,-2.4522,-2.4629,-2.4629,-2.4629,-2.4629,-2.4629,-2.4629,-2.4629,-2.4629,-2.4629,-2.4629,-2.4629,-2.4629,-2.4629,-2.4629,-2.4629,-2.4629,-2.4629,-2.4629,-2.4629,-2.4629,-2.4629,-2.4629,-2.4629,-2.4629,-2.4629,-2.4629,-2.4629,-2.4629,-2.4629,-2.4629,-2.4629,-2.4629,-2.4629,-2.4629,-2.4629,-2.4629,-2.4629,-2.4629,-2.4629,-2.4629,-2.4629,-3.3418,-3.3418,-3.3418,-3.3418,-3.3418,-3.3418,-3.3418,-3.3418,-3.3418,-3.3418,-3.3418,-3.3418,-3.3418,-3.3418,-3.3418,-3.3418,-3.3418,-3.3418,-3.3418,-3.3418,-3.3418,-3.3418,-3.3603,-3.3926,-3.4404,-3.4726,-3.5322,-3.5664,-3.5889,-3.5976,-3.5937,-3.6025,-3.5549,-3.5402,-3.4952,-3.3845,-3.2726,-3.1104,-2.9496,-2.7947,-2.667,-2.6019,-2.5513,-2.5079,-2.479,-2.4629,-2.4629,-2.4629,-2.4629,-2.4629,-2.4629,-2.4629,-2.4629,-2.4629,-2.4629,-2.4629,-2.4596,-2.4529,-2.4402,-2.4295,-2.4182,-2.4068,-2.3995,-2.4148,-2.4262,-2.4322,-2.4362,-2.4502,-2.4502,-2.4583,-2.4629,-2.4542,-2.4542,-2.4616,-2.4629,-2.4629,-2.4629,-2.4629,-2.4629,-2.4629,-2.4629,-2.4629,-2.4629,-2.4629,-2.4629,-2.4629,-2.4629,-2.4629,-2.4629,-2.4629,-2.4629,-2.4629,-2.4629,-2.4629,-2.4629,-2.4629,-2.4629,-2.4629,-2.4629,-2.4629,-2.4629,-2.4629,-2.4629,-2.4629,-2.4629,-2.4629,-2.4629,-2.4629,-2.4629,-2.4629,-2.4629,-2.4629,-2.4629,-2.4629,-2.4629,-3.3418,-3.3418,-3.3418,-3.3418,-3.3418,-3.3418,-3.3418,-3.3418,-3.3418,-3.3418,-3.3418,-3.3418,-3.3418,-3.3418,-3.3418,-3.3418,-3.3418,-3.3418,-3.3418,-3.3418,-3.3418,-3.3447,-3.3711,-3.417,-3.4668,-3.4883,-3.5488,-3.5898,-3.5938,-3.5879,-3.5957,-3.5957,-3.5479,-3.5205,-3.443,-3.3015,-3.0872,-2.9242,-2.7753,-2.6823,-2.5807,-2.5299,-2.5079,-2.4784,-2.4636,-2.4629,-2.4629,-2.4629,-2.4629,-2.4629,-2.4629,-2.4629,-2.4629,-2.4629,-2.4629,-2.4629,-2.4629,-2.4589,-2.4543,-2.4536,-2.4569,-2.4563,-2.4529,-2.4469,-2.4516,-2.4576,-2.4623,-2.4623,-2.4629,-2.4629,-2.4629,-2.4629,-2.4629,-2.4629,-2.4629,-2.4629,-2.4629,-2.4629,-2.4629,-2.4629,-2.4629,-2.4629,-2.4629,-2.4629,-2.4629,-2.4629,-2.4629,-2.4629,-2.4629,-2.4629,-2.4629,-2.4629,-2.4629,-2.4629,-2.4629,-2.4629,-2.4629,-2.4629,-2.4629,-2.4629,-2.4629,-2.4629,-2.4629,-2.4629,-2.4629,-2.4629,-2.4629,-2.4629,-2.4629,-2.4629,-2.4629,-2.4629,-2.4629,-2.4629,-2.4629,-3.3418,-3.3418,-3.3418,-3.3418,-3.3418,-3.3418,-3.3418,-3.3418,-3.3418,-3.3418,-3.3418,-3.3418,-3.3418,-3.3418,-3.3418,-3.3418,-3.3418,-3.3418,-3.3418,-3.3418,-3.3428,-3.3574,-3.3935,-3.4365,-3.4844,-3.5176,-3.5732,-3.5889,-3.5684,-3.5606,-3.5333,-3.5127,-3.4784,-3.4568,-3.3641,-3.1666,-2.9099,-2.7375,-2.6305,-2.5593,-2.5152,-2.4857,-2.4784,-2.4636,-2.4629,-2.4629,-2.4629,-2.4629,-2.4629,-2.4629,-2.4629,-2.4629,-2.4629,-2.4629,-2.4629,-2.4629,-2.4629,-2.4629,-2.4629,-2.4629,-2.4629,-2.4629,-2.4623,-2.4629,-2.4629,-2.4629,-2.4629,-2.4629,-2.4629,-2.4629,-2.4629,-2.4629,-2.4629,-2.4629,-2.4629,-2.4629,-2.4629,-2.4629,-2.4629,-2.4629,-2.4629,-2.4629,-2.4629,-2.4629,-2.4629,-2.4629,-2.4629,-2.4629,-2.4629,-2.4629,-2.4629,-2.4629,-2.4629,-2.4629,-2.4629,-2.4629,-2.4629,-2.4629,-2.4629,-2.4629,-2.4629,-2.4629,-2.4629,-2.4629,-2.4629,-2.4629,-2.4629,-2.4629,-2.4629,-2.4629,-2.4629,-2.4629,-2.4629,-2.4629,-2.4629,-3.3418,-3.3418,-3.3418,-3.3418,-3.3418,-3.3418,-3.3418,-3.3418,-3.3418,-3.3418,-3.3418,-3.3418,-3.3418,-3.3418,-3.3418,-3.3418,-3.3418,-3.3418,-3.3418,-3.3418,-3.3457,-3.3691,-3.4082,-3.4502,-3.4856,-3.5266,-3.5588,-3.5616,-3.5127,-3.5059,-3.4637,-3.4144,-3.359,-3.3155,-3.2438,-3.0028,-2.7463,-2.6019,-2.5373,-2.5012,-2.471,-2.4636,-2.4636,-2.4629,-2.4629,-2.4629,-2.4629,-2.4629,-2.4629,-2.4629,-2.4629,-2.4629,-2.4629,-2.4629,-2.4629,-2.4629,-2.4629,-2.4629,-2.4629,-2.4629,-2.4629,-2.4629,-2.4629,-2.4629,-2.4629,-2.4629,-2.4629,-2.4629,-2.4629,-2.4629,-2.4629,-2.4629,-2.4629,-2.4629,-2.4629,-2.4629,-2.4629,-2.4629,-2.4629,-2.4629,-2.4629,-2.4629,-2.4629,-2.4629,-2.4629,-2.4629,-2.4629,-2.4629,-2.4629,-2.4629,-2.4629,-2.4629,-2.4629,-2.4629,-2.4629,-2.4629,-2.4629,-2.4629,-2.4629,-2.4629,-2.4629,-2.4629,-2.4629,-2.4629,-2.4629,-2.4629,-2.4629,-2.4629,-2.4629,-2.4629,-2.4629,-2.4629,-2.4629,-2.4629,-2.4629,-3.3418,-3.3418,-3.3418,-3.3418,-3.3418,-3.3418,-3.3418,-3.3418,-3.3418,-3.3418,-3.3418,-3.3418,-3.3418,-3.3418,-3.3418,-3.3418,-3.3418,-3.3418,-3.3418,-3.3418,-3.3428,-3.3691,-3.4121,-3.4495,-3.4725,-3.4931,-3.5035,-3.4912,-3.4292,-3.3849,-3.3502,-3.2648,-3.1666,-3.1031,-3.118,-2.8899,-2.6816,-2.5446,-2.5159,-2.4938,-2.471,-2.4629,-2.4629,-2.4629,-2.4629,-2.4629,-2.4629,-2.4629,-2.4629,-2.4629,-2.4629,-2.4629,-2.4629,-2.4629,-2.4629,-2.4629,-2.4629,-2.4629,-2.4629,-2.4629,-2.4629,-2.4629,-2.4629,-2.4629,-2.4629,-2.4629,-2.4629,-2.4629,-2.4629,-2.4629,-2.4629,-2.4629,-2.4629,-2.4629,-2.4629,-2.4629,-2.4629,-2.4629,-2.4629,-2.4629,-2.4629,-2.4629,-2.4629,-2.4629,-2.4629,-2.4629,-2.4629,-2.4629,-2.4629,-2.4629,-2.4629,-2.4629,-2.4629,-2.4629,-2.4629,-2.4629,-2.4629,-2.4629,-2.4629,-2.4629,-2.4629,-2.4629,-2.4629,-2.4629,-2.4629,-2.4629,-2.4629,-2.4629,-2.4629,-2.4629,-2.4629,-2.4629,-2.4629,-2.4649,-2.4663,-3.3418,-3.3418,-3.3418,-3.3418,-3.3418,-3.3418,-3.3418,-3.3418,-3.3418,-3.3418,-3.3418,-3.3418,-3.3418,-3.3418,-3.3418,-3.3418,-3.3418,-3.3418,-3.3418,-3.3418,-3.3418,-3.3916,-3.4271,-3.4415,-3.4509,-3.463,-3.4599,-3.378,-3.2815,-3.2438,-3.1516,-3.0526,-2.9457,-2.8452,-2.8251,-2.7107,-2.61,-2.5079,-2.4784,-2.471,-2.4636,-2.4629,-2.4629,-2.4629,-2.4629,-2.4629,-2.4629,-2.4629,-2.4629,-2.4629,-2.4629,-2.4629,-2.4629,-2.4629,-2.4629,-2.4629,-2.4629,-2.4629,-2.4629,-2.4629,-2.4629,-2.4629,-2.4629,-2.4629,-2.4629,-2.4629,-2.4629,-2.4629,-2.4629,-2.4629,-2.4629,-2.4629,-2.4629,-2.4629,-2.4629,-2.4629,-2.4629,-2.4629,-2.4629,-2.4629,-2.4629,-2.4629,-2.4629,-2.4629,-2.4629,-2.4629,-2.4629,-2.4629,-2.4629,-2.4629,-2.4629,-2.4629,-2.4629,-2.4629,-2.4629,-2.4629,-2.4629,-2.4629,-2.4629,-2.4629,-2.4629,-2.4629,-2.4629,-2.4629,-2.4629,-2.4629,-2.4629,-2.4629,-2.4629,-2.4629,-2.4669,-2.469,-2.4703,-2.4723,-2.4736,-3.3418,-3.3418,-3.3418,-3.3418,-3.3418,-3.3418,-3.3418,-3.3418,-3.3418,-3.3418,-3.3418,-3.3418,-3.3418,-3.3418,-3.3418,-3.3418,-3.3418,-3.3418,-3.3418,-3.3418,-3.3418,-3.3817,-3.4202,-3.4192,-3.4078,-3.4128,-3.3502,-3.2587,-3.1313,-3.0747,-2.9751,-2.8467,-2.7318,-2.6881,-2.6531,-2.6026,-2.5586,-2.4784,-2.4636,-2.4636,-2.4629,-2.4629,-2.4629,-2.4629,-2.4629,-2.4629,-2.4629,-2.4629,-2.4629,-2.4629,-2.4629,-2.4629,-2.4629,-2.4629,-2.4629,-2.4629,-2.4629,-2.4629,-2.4629,-2.4629,-2.4629,-2.4629,-2.4629,-2.4629,-2.4629,-2.4629,-2.4629,-2.4629,-2.4629,-2.4643,-2.4649,-2.4649,-2.4669,-2.4669,-2.469,-2.469,-2.4683,-2.469,-2.4696,-2.469,-2.4669,-2.4656,-2.4629,-2.4629,-2.4629,-2.4629,-2.4629,-2.4629,-2.4629,-2.4629,-2.4629,-2.4629,-2.4629,-2.4629,-2.4629,-2.4629,-2.4629,-2.4629,-2.4629,-2.4629,-2.4629,-2.4629,-2.4629,-2.4629,-2.4629,-2.4629,-2.4629,-2.4636,-2.4643,-2.4696,-2.4776,-2.479,-2.4783,-2.4836,-2.489,-3.3418,-3.3418,-3.3418,-3.3418,-3.3418,-3.3418,-3.3418,-3.3418,-3.3418,-3.3418,-3.3418,-3.3418,-3.3418,-3.3418,-3.3418,-3.3418,-3.3418,-3.3418,-3.3418,-3.3418,-3.3418,-3.384,-3.3885,-3.3766,-3.349,-3.2972,-3.2228,-3.1022,-2.9743,-2.8819,-2.7688,-2.6823,-2.6312,-2.588,-2.552,-2.5226,-2.5005,-2.471,-2.4629,-2.4629,-2.4629,-2.4629,-2.4629,-2.4629,-2.4629,-2.4629,-2.4629,-2.4629,-2.4629,-2.4629,-2.4629,-2.4629,-2.4629,-2.4629,-2.4629,-2.4629,-2.4629,-2.4629,-2.4629,-2.4629,-2.4629,-2.4629,-2.4629,-2.4629,-2.4629,-2.4629,-2.4629,-2.4629,-2.4636,-2.4663,-2.4683,-2.471,-2.4736,-2.4756,-2.4783,-2.4783,-2.477,-2.4776,-2.4783,-2.4776,-2.4743,-2.471,-2.4649,-2.4629,-2.4629,-2.4629,-2.4629,-2.4629,-2.4629,-2.4629,-2.4629,-2.4629,-2.4629,-2.4629,-2.4629,-2.4629,-2.4629,-2.4629,-2.4629,-2.4629,-2.4629,-2.4629,-2.4629,-2.4629,-2.4629,-2.4629,-2.4629,-2.4643,-2.4656,-2.4743,-2.4903,-2.493,-2.4943,-2.507,-2.5164,-3.3418,-3.3418,-3.3418,-3.3418,-3.3418,-3.3418,-3.3418,-3.3418,-3.3418,-3.3418,-3.3418,-3.3418,-3.3418,-3.3418,-3.3418,-3.3418,-3.3418,-3.3418,-3.3418,-3.3364,-3.3413,-3.3776,-3.3669,-3.3272,-3.2761,-3.1922,-3.0889,-2.9536,-2.8171,-2.7034,-2.6246,-2.5593,-2.544,-2.5079,-2.4931,-2.4784,-2.471,-2.4636,-2.4636,-2.4629,-2.4629,-2.4629,-2.4629,-2.4629,-2.4629,-2.4629,-2.4629,-2.4629,-2.4629,-2.4629,-2.4629,-2.4629,-2.4629,-2.4629,-2.4629,-2.4629,-2.4629,-2.4629,-2.4629,-2.4629,-2.4629,-2.4629,-2.4629,-2.4629,-2.4629,-2.4643,-2.4649,-2.4676,-2.471,-2.4756,-2.489,-2.4957,-2.5017,-2.5077,-2.5097,-2.5104,-2.5097,-2.5097,-2.5104,-2.507,-2.503,-2.4816,-2.4743,-2.4629,-2.4629,-2.4629,-2.4629,-2.4629,-2.4629,-2.4629,-2.4629,-2.4629,-2.4629,-2.4629,-2.4629,-2.4629,-2.4629,-2.4629,-2.4629,-2.4629,-2.4629,-2.4629,-2.4629,-2.4629,-2.4629,-2.4629,-2.4629,-2.4649,-2.475,-2.491,-2.507,-2.5084,-2.513,-2.5291,-2.5478,-3.3418,-3.3418,-3.3418,-3.3418,-3.3418,-3.3418,-3.3418,-3.3418,-3.3418,-3.3418,-3.3418,-3.3418,-3.3418,-3.3418,-3.3418,-3.3418,-3.3418,-3.3418,-3.3418,-3.3384,-3.3393,-3.3539,-3.336,-3.2646,-3.1772,-3.0792,-2.9536,-2.8034,-2.6808,-2.5726,-2.4938,-2.5005,-2.471,-2.4636,-2.4629,-2.4636,-2.4636,-2.4636,-2.4629,-2.4629,-2.4629,-2.4629,-2.4629,-2.4629,-2.4629,-2.4629,-2.4629,-2.4629,-2.4629,-2.4629,-2.4629,-2.4629,-2.4629,-2.4629,-2.4629,-2.4629,-2.4629,-2.4629,-2.4629,-2.4629,-2.4629,-2.4636,-2.4643,-2.4716,-2.4723,-2.4736,-2.477,-2.481,-2.4843,-2.491,-2.5097,-2.5271,-2.5371,-2.5471,-2.5478,-2.5491,-2.5491,-2.5491,-2.5464,-2.5438,-2.5271,-2.503,-2.4863,-2.473,-2.4629,-2.4629,-2.4629,-2.4629,-2.4629,-2.4629,-2.4629,-2.4629,-2.4629,-2.4629,-2.4629,-2.4629,-2.4629,-2.4629,-2.4629,-2.4629,-2.4629,-2.4629,-2.4629,-2.4629,-2.4629,-2.4629,-2.4636,-2.4743,-2.4878,-2.5072,-2.5297,-2.5458,-2.5525,-2.5611,-2.5812,-3.3418,-3.3418,-3.3418,-3.3418,-3.3418,-3.3418,-3.3418,-3.3418,-3.3418,-3.3418,-3.3418,-3.3418,-3.3418,-3.3418,-3.3418,-3.3418,-3.3418,-3.3418,-3.3418,-3.3384,-3.3479,-3.3403,-3.2827,-3.1963,-3.0975,-2.9622,-2.8251,-2.6961,-2.5873,-2.5072,-2.471,-2.4629,-2.4629,-2.4629,-2.4629,-2.4629,-2.4629,-2.4629,-2.4629,-2.4629,-2.4629,-2.4629,-2.4629,-2.4629,-2.4629,-2.4629,-2.4629,-2.4629,-2.4629,-2.4629,-2.4629,-2.4629,-2.4629,-2.4629,-2.4629,-2.4629,-2.4629,-2.4629,-2.4629,-2.4629,-2.4629,-2.4643,-2.4663,-2.4816,-2.487,-2.485,-2.4883,-2.5057,-2.513,-2.5264,-2.5444,-2.5545,-2.5638,-2.5758,-2.5818,-2.5825,-2.5825,-2.5805,-2.5758,-2.5671,-2.5418,-2.5184,-2.4963,-2.4823,-2.4636,-2.4629,-2.4629,-2.4629,-2.4629,-2.4629,-2.4629,-2.4629,-2.4629,-2.4629,-2.4629,-2.4629,-2.4629,-2.4629,-2.4629,-2.4629,-2.4629,-2.4629,-2.4629,-2.4629,-2.4629,-2.4629,-2.4643,-2.4824,-2.5046,-2.5253,-2.5484,-2.5896,-2.6016,-2.603,-2.6046,-3.3418,-3.3418,-3.3418,-3.3418,-3.3418,-3.3418,-3.3418,-3.3418,-3.3418,-3.3418,-3.3418,-3.3418,-3.3418,-3.3418,-3.3418,-3.3418,-3.3418,-3.3355,-3.3355,-3.3384,-3.3373,-3.2946,-3.2463,-3.1391,-3.0203,-2.8869,-2.747,-2.6019,-2.5219,-2.4703,-2.4629,-2.4629,-2.4629,-2.4629,-2.4629,-2.4629,-2.4629,-2.4629,-2.4629,-2.4629,-2.4629,-2.4629,-2.4629,-2.4629,-2.4629,-2.4629,-2.4629,-2.4629,-2.4629,-2.4629,-2.4629,-2.4629,-2.4629,-2.4629,-2.4629,-2.4629,-2.4629,-2.4629,-2.4649,-2.4663,-2.469,-2.475,-2.4823,-2.4957,-2.5024,-2.499,-2.5084,-2.5297,-2.5471,-2.5618,-2.5758,-2.5832,-2.5905,-2.6026,-2.6132,-2.6132,-2.6132,-2.6092,-2.6039,-2.5832,-2.5578,-2.5331,-2.5104,-2.4883,-2.4703,-2.4629,-2.4629,-2.4629,-2.4629,-2.4629,-2.4629,-2.4629,-2.4629,-2.4629,-2.4629,-2.4629,-2.4629,-2.4629,-2.4629,-2.4629,-2.4636,-2.4629,-2.4629,-2.4629,-2.4629,-2.4663,-2.475,-2.4898,-2.5114,-2.54,-2.5641,-2.6066,-2.6186,-2.6213,-2.6279,-3.3418,-3.3418,-3.3418,-3.3418,-3.3418,-3.3418,-3.3418,-3.3418,-3.3418,-3.3418,-3.3418,-3.3418,-3.3418,-3.3418,-3.3418,-3.3355,-3.3355,-3.3228,-3.3175,-3.3119,-3.2822,-3.2304,-3.1552,-3.0554,-2.9209,-2.781,-2.6378,-2.5145,-2.4629,-2.4629,-2.4629,-2.4629,-2.4629,-2.4629,-2.4629,-2.4629,-2.4629,-2.4629,-2.4629,-2.4629,-2.4629,-2.4629,-2.4629,-2.4629,-2.4629,-2.4629,-2.4629,-2.4629,-2.4629,-2.4629,-2.4629,-2.4629,-2.4629,-2.4629,-2.4629,-2.4629,-2.4629,-2.4636,-2.4683,-2.4756,-2.4823,-2.4917,-2.5097,-2.5284,-2.5518,-2.5518,-2.5525,-2.5705,-2.5712,-2.5838,-2.6046,-2.6152,-2.6172,-2.6253,-2.6279,-2.6286,-2.6286,-2.6266,-2.6233,-2.6159,-2.5838,-2.5464,-2.5204,-2.487,-2.471,-2.4629,-2.4629,-2.4629,-2.4629,-2.4649,-2.4643,-2.4669,-2.469,-2.4656,-2.4629,-2.4629,-2.4629,-2.4629,-2.4703,-2.4669,-2.4683,-2.4649,-2.4629,-2.4703,-2.4743,-2.4743,-2.4831,-2.5107,-2.5356,-2.5675,-2.5972,-2.6254,-2.6307,-2.6393,-2.6393,-3.3418,-3.3418,-3.3418,-3.3418,-3.3418,-3.3418,-3.3418,-3.3418,-3.3418,-3.3418,-3.3418,-3.3418,-3.3418,-3.3418,-3.3418,-3.3355,-3.3228,-3.2985,-3.2858,-3.2473,-3.2027,-3.135,-3.0361,-2.9282,-2.8052,-2.6765,-2.5426,-2.4924,-2.4629,-2.4629,-2.4629,-2.4629,-2.4629,-2.4629,-2.4629,-2.4629,-2.4629,-2.4629,-2.4629,-2.4629,-2.4629,-2.4629,-2.4629,-2.4629,-2.4629,-2.4629,-2.4629,-2.4676,-2.4683,-2.475,-2.4803,-2.4857,-2.4863,-2.4883,-2.4863,-2.487,-2.4883,-2.487,-2.4877,-2.5037,-2.5097,-2.5204,-2.5431,-2.5651,-2.5879,-2.5965,-2.6057,-2.607,-2.5999,-2.6066,-2.6273,-2.6366,-2.638,-2.6386,-2.6393,-2.6393,-2.6393,-2.6386,-2.6366,-2.6339,-2.5965,-2.5558,-2.5244,-2.491,-2.4736,-2.4656,-2.4636,-2.4636,-2.4643,-2.4669,-2.469,-2.475,-2.4816,-2.4763,-2.4716,-2.4743,-2.4783,-2.4917,-2.499,-2.4843,-2.4776,-2.4903,-2.4943,-2.487,-2.4897,-2.4977,-2.5153,-2.5357,-2.5673,-2.5903,-2.6112,-2.6294,-2.6307,-2.6393,-2.6393,-3.3418,-3.3418,-3.3418,-3.3418,-3.3418,-3.3418,-3.3418,-3.3418,-3.3418,-3.3418,-3.3418,-3.3418,-3.3418,-3.3418,-3.3418,-3.3292,-3.2985,-3.2667,-3.2093,-3.1626,-3.0875,-3.0171,-2.9325,-2.8122,-2.6929,-2.5848,-2.4998,-2.4703,-2.4629,-2.4629,-2.4629,-2.4629,-2.4629,-2.4629,-2.4629,-2.4629,-2.4629,-2.4629,-2.4629,-2.4629,-2.4629,-2.4629,-2.4629,-2.4629,-2.4629,-2.4629,-2.4683,-2.4877,-2.4957,-2.5057,-2.517,-2.5244,-2.5251,-2.5231,-2.5231,-2.5197,-2.5211,-2.5217,-2.5264,-2.5358,-2.5418,-2.5464,-2.5678,-2.5879,-2.6059,-2.6186,-2.6206,-2.6246,-2.6253,-2.6253,-2.6386,-2.6386,-2.6393,-2.6393,-2.6393,-2.6393,-2.6393,-2.6366,-2.6333,-2.6126,-2.5812,-2.5491,-2.5217,-2.4923,-2.4683,-2.4649,-2.469,-2.469,-2.4723,-2.473,-2.477,-2.487,-2.4983,-2.4997,-2.5003,-2.501,-2.5064,-2.5211,-2.5291,-2.5177,-2.5177,-2.5331,-2.5331,-2.5177,-2.5231,-2.5337,-2.5509,-2.5634,-2.5815,-2.6081,-2.6258,-2.638,-2.6386,-2.6393,-2.6393]}]]